GFSSW_850_temp_000.txt.gz
Temp
7 6 6 6 6 6 6 6 6 6 6 7 8 8 8 9 10 11 11 13 15 15 16 16 17 17 17 18 18 19 17 18 20 22 24 26 25 26 25 25 25 25 24 22 22
6 6 6 6 6 6 6 6 6 6 6 7 8 8 7 9 8 9 11 13 15 15 15 16 17 17 17 19 19 19 17 19 22 23 22 23 24 24 24 25 25 25 23 21 22
5 5 5 6 5 6 5 5 6 6 7 7 8 8 8 8 7 9 10 14 13 15 15 16 17 18 18 19 20 20 18 20 21 23 22 22 22 24 24 22 26 25 24 22 22
5 5 5 6 6 6 6 5 6 6 6 6 7 8 8 8 8 11 10 14 13 14 15 15 16 18 18 18 20 18 20 21 22 22 21 21 23 23 24 24 25 25 24 23 23
5 5 5 5 5 5 5 5 6 6 6 6 7 8 7 8 8 13 14 13 13 12 13 15 16 18 18 20 20 19 20 22 22 22 22 22 22 22 24 25 25 25 24 23 22
5 5 5 5 5 5 5 5 6 6 7 7 7 7 7 8 11 12 13 15 13 13 13 15 17 18 19 20 19 21 21 21 22 22 22 22 22 23 24 25 25 25 24 23 22
5 5 5 5 5 5 5 5 6 6 6 7 8 8 7 9 12 12 12 13 14 13 15 15 17 18 19 18 20 21 19 20 21 22 21 22 20 21 24 24 24 25 24 23 23
5 5 5 5 5 5 5 5 6 6 6 6 6 7 7 10 11 12 12 12 13 15 16 17 17 18 19 20 20 19 18 17 21 22 22 21 19 22 24 24 24 24 25 25 24
5 5 5 5 5 5 5 6 6 6 6 6 6 7 8 9 10 12 12 12 14 14 16 15 17 17 19 17 17 18 17 18 20 22 22 20 20 23 24 24 24 24 25 25 25
5 5 5 5 5 6 6 6 5 5 5 6 5 6 7 9 11 12 12 13 14 13 14 15 16 17 17 17 16 18 18 19 20 21 21 20 19 21 24 24 24 24 24 24 23
5 5 6 6 6 6 6 6 5 5 5 7 8 8 9 9 10 11 12 13 13 15 14 16 16 16 17 18 19 20 20 20 22 20 21 19 20 23 23 22 23 23 22 21 21
6 6 6 6 7 6 6 6 6 7 7 8 8 8 8 10 9 10 11 12 12 13 16 16 16 18 20 20 20 20 20 20 22 22 20 19 21 23 22 22 22 20 20 20 19
7 7 7 7 6 6 7 7 7 7 8 8 8 9 8 9 9 8 11 12 13 14 16 16 18 20 20 19 19 19 19 19 20 21 19 20 19 20 21 22 21 20 20 19 18
6 7 7 7 7 7 8 7 7 7 8 9 9 9 9 9 9 8 10 12 11 14 18 18 18 19 19 19 19 18 20 20 19 18 18 19 18 19 19 19 18 19 19 19 18
7 8 8 7 8 8 8 8 7 7 10 9 8 8 8 9 8 9 13 13 14 18 18 17 17 18 18 19 20 18 19 19 19 17 17 20 17 18 19 18 18 18 19 19 18
8 10 9 9 9 9 9 8 8 11 10 10 9 10 10 11 11 9 11 14 19 18 18 17 19 19 19 18 19 19 18 18 18 16 16 20 19 17 19 18 17 19 19 18 17
10 10 11 11 11 10 10 9 11 11 9 10 10 10 11 11 12 14 16 16 16 15 15 16 17 17 18 18 18 17 17 16 16 16 17 19 18 18 20 19 18 17 18 18 17
12 12 12 12 12 11 10 10 12 11 11 10 10 11 11 12 13 16 16 16 18 18 16 15 15 16 18 18 18 17 18 16 17 17 18 19 17 20 19 21 20 19 18 18 17
13 13 13 13 13 11 10 12 11 12 11 11 11 11 11 12 13 15 17 17 17 17 17 17 16 16 16 17 17 18 17 18 17 20 17 19 22 21 19 18 18 19 18 17 16
13 14 14 14 14 13 14 13 12 13 13 13 13 13 12 12 13 15 17 15 16 15 16 18 15 17 16 16 17 17 17 17 16 17 17 18 20 18 17 17 17 17 18 17 16
14 14 15 16 16 15 14 13 13 13 14 14 17 15 14 13 15 17 16 14 15 15 16 16 17 15 16 15 16 16 16 17 16 17 16 17 17 19 18 18 17 17 18 17 15
14 14 15 16 15 14 12 14 14 14 15 15 15 16 16 16 17 17 15 14 15 16 16 15 16 14 16 15 16 16 17 17 16 17 15 14 14 18 16 16 18 18 17 16 15
13 14 14 16 13 12 13 13 13 14 13 15 15 16 17 15 15 15 14 14 14 13 14 15 16 14 14 15 15 16 17 17 15 15 15 14 15 18 17 16 18 18 17 15 14
13 14 15 14 15 14 14 14 13 13 13 14 14 16 16 15 15 14 13 13 13 13 13 14 15 15 15 15 16 15 16 16 15 14 15 15 16 18 17 17 18 18 16 15 13
12 11 12 13 12 13 14 15 14 14 14 15 15 15 16 15 15 14 14 13 14 13 14 14 15 15 15 16 16 15 15 15 14 15 14 16 16 18 17 17 18 17 14 14 13
11 13 13 13 13 15 14 14 14 13 13 14 14 15 16 14 15 14 15 16 15 14 15 13 13 15 14 15 15 14 14 15 15 15 15 15 15 17 18 16 16 16 15 13 12
10 12 13 11 13 14 12 12 12 14 12 12 14 15 13 12 12 13 14 15 14 14 14 13 13 13 13 15 14 12 14 14 14 15 15 14 15 16 16 15 15 15 14 13 11

GFSSW_850_temp_003.txt.gz
Temp
7 7 7 6 6 6 7 6 7 7 7 7 7 7 8 9 9 9 10 12 14 15 15 16 16 17 16 17 18 18 14 14 17 19 20 22 21 24 24 25 25 24 24 25 24
6 6 6 5 6 6 6 6 6 6 6 6 7 8 8 8 8 8 11 12 14 15 15 15 16 16 17 17 18 17 13 15 18 18 18 21 21 22 23 23 24 23 23 23 23
6 6 6 5 5 6 6 6 5 6 6 6 7 8 8 7 7 7 11 13 14 14 15 16 16 17 17 17 18 17 15 17 18 20 20 20 22 22 22 22 24 24 24 23 22
5 6 6 5 5 6 6 6 5 6 6 6 7 7 7 7 8 13 13 13 14 14 14 15 16 16 16 16 18 16 18 19 20 21 20 20 21 21 22 23 24 24 24 24 23
5 5 6 5 5 5 5 6 6 6 6 6 7 7 6 6 8 11 12 14 13 13 14 15 16 16 15 17 17 16 17 19 20 21 21 21 21 20 21 24 24 24 24 24 23
5 5 5 6 6 5 5 5 5 5 6 6 7 6 5 6 11 11 10 13 14 13 13 15 16 16 17 17 16 19 19 19 20 20 20 20 20 20 22 23 24 23 23 24 23
5 5 5 5 5 5 5 5 5 6 6 6 7 6 6 7 11 10 10 10 13 14 14 14 16 16 17 17 19 19 16 16 18 20 19 21 19 19 23 23 23 24 23 23 24
5 5 5 5 5 5 5 5 5 5 6 6 6 6 6 9 10 10 11 10 12 13 14 16 16 15 16 17 18 17 17 15 17 19 20 21 17 19 23 22 23 24 24 24 23
4 4 5 5 5 5 6 6 6 6 6 6 6 6 7 9 9 12 11 11 11 12 14 14 14 15 16 15 14 15 14 15 16 18 19 19 18 19 23 23 23 24 24 22 21
5 5 5 5 5 5 5 5 5 6 5 5 6 7 7 9 11 11 12 11 11 12 12 13 12 14 14 14 12 14 14 15 15 20 19 18 17 17 21 21 21 20 21 20 20
5 5 5 5 5 6 5 5 5 5 5 6 8 7 9 10 10 10 11 11 12 13 12 12 11 13 14 13 15 15 16 16 19 19 20 18 17 17 20 21 19 19 19 19 19
5 5 5 6 6 6 6 6 6 7 6 7 7 9 10 10 10 10 11 12 13 12 13 13 13 14 15 15 16 16 16 16 19 19 18 18 18 20 20 18 18 19 19 18 18
5 5 6 6 6 6 6 6 7 7 7 7 7 8 10 9 10 10 10 12 14 14 14 13 14 16 17 16 16 17 18 17 18 17 18 18 16 19 18 18 19 19 18 18 17
5 6 7 7 6 6 6 7 6 6 7 7 8 8 9 8 9 9 10 12 11 14 13 15 17 16 16 17 17 17 18 19 18 16 15 16 15 17 16 16 15 18 18 18 17
7 7 7 7 7 6 7 6 6 6 9 8 9 8 9 9 9 9 10 12 12 14 14 15 16 15 16 17 17 17 18 18 18 16 15 17 15 15 15 15 15 15 17 17 17
9 8 8 8 8 8 8 7 6 9 9 8 8 9 10 9 9 9 10 12 12 11 14 15 17 17 17 17 17 17 17 17 16 14 14 15 15 16 16 15 14 15 17 17 17
10 10 10 9 9 8 8 7 9 10 8 9 9 11 10 9 10 11 10 10 10 12 13 15 16 17 18 16 17 16 14 13 14 13 13 17 16 15 17 16 16 14 16 17 17
12 12 12 11 9 8 7 8 11 10 10 10 10 10 10 10 11 12 13 12 15 15 12 12 14 16 17 17 16 14 14 13 16 14 15 17 15 17 17 17 18 18 17 16 16
12 12 13 12 10 9 8 11 10 11 10 10 9 10 10 11 12 13 14 15 15 16 16 14 14 15 16 16 16 16 15 15 15 16 14 15 18 18 14 14 15 16 16 16 16
13 13 14 13 12 10 11 11 10 10 11 12 11 11 12 13 14 14 14 14 14 15 15 16 13 16 15 16 16 16 16 15 13 16 16 15 18 16 15 14 14 13 15 16 15
13 13 14 14 13 12 10 10 11 11 12 12 13 13 13 12 14 15 13 14 15 15 15 16 14 14 15 14 14 14 15 15 14 13 14 13 15 15 16 14 14 13 16 16 15
13 11 14 15 10 9 9 12 13 12 13 14 14 14 13 13 15 12 12 13 14 15 15 14 12 12 14 14 15 15 16 14 13 15 12 11 13 16 14 13 15 16 16 15 15
13 14 15 16 9 9 11 11 11 12 12 13 14 15 15 14 14 13 12 13 14 13 14 15 13 12 13 14 14 15 16 15 13 12 13 13 13 15 14 14 16 15 15 15 14
13 11 15 15 13 10 11 12 11 13 13 14 14 15 14 13 13 12 12 12 13 13 14 14 14 14 13 14 13 14 15 15 13 12 12 13 15 15 16 16 17 17 16 14 13
12 10 11 9 11 11 12 13 12 12 14 14 14 15 15 13 13 12 12 12 13 13 14 13 13 14 14 15 15 15 14 14 13 13 13 16 15 16 15 14 15 16 14 13 12
12 10 12 10 13 11 10 11 12 12 12 13 13 12 12 11 13 13 13 13 13 13 13 11 12 13 14 14 13 13 13 13 13 13 12 13 14 15 16 16 15 14 13 12 10
11 11 13 11 10 10 11 12 12 11 12 12 12 11 10 10 11 12 13 13 13 13 12 12 11 11 12 12 12 13 13 12 12 13 13 12 14 14 15 15 14 14 13 11 10

GFSSW_850_temp_006.txt.gz
Temp
7 7 7 7 7 7 7 7 7 7 7 7 7 7 8 8 9 7 8 12 13 14 15 16 16 16 16 17 17 18 13 13 15 17 18 20 18 22 23 23 24 24 24 24 24
7 7 6 6 6 6 6 6 6 6 7 7 7 7 7 8 8 7 10 12 13 14 15 16 16 16 16 17 17 16 12 14 16 17 17 18 19 20 21 21 23 23 24 24 24
6 6 6 6 6 6 6 6 6 6 6 6 7 7 7 7 6 7 11 12 13 14 14 15 15 15 16 17 17 16 14 15 17 19 19 18 19 21 20 20 23 23 23 22 22
6 6 6 6 5 6 6 6 6 6 6 6 6 7 7 6 6 10 12 13 14 14 14 14 14 15 15 15 17 16 17 17 18 19 18 18 20 20 21 21 22 22 23 23 23
6 6 5 5 5 6 6 6 5 6 6 6 6 6 6 5 8 10 10 13 14 13 13 13 14 15 14 15 16 15 16 18 19 19 18 19 19 18 20 22 22 23 23 24 23
5 5 5 6 5 5 6 6 5 5 6 6 6 6 5 5 11 10 9 10 13 12 13 13 14 16 16 16 15 17 17 18 18 19 19 18 18 19 21 22 23 22 23 23 23
5 5 5 5 5 5 5 5 5 5 5 6 6 5 5 6 9 10 9 8 10 13 13 14 15 16 16 16 17 18 15 15 17 19 18 19 17 18 22 22 22 22 22 23 23
5 5 5 5 5 5 5 5 5 5 5 6 6 5 5 8 9 9 9 9 9 11 15 15 14 14 15 16 17 17 16 15 16 17 18 18 15 17 22 21 21 22 21 22 22
5 5 5 5 5 5 5 5 5 5 5 6 5 5 6 8 8 10 10 10 10 11 12 12 13 14 15 15 14 13 14 14 14 16 18 17 16 17 21 21 22 21 20 20 19
5 5 5 5 5 5 5 5 5 5 5 5 6 6 7 7 9 10 10 10 9 10 11 11 11 13 14 14 13 13 14 14 14 18 15 15 16 16 20 20 20 19 18 19 19
5 5 5 5 5 6 5 4 4 4 5 6 6 7 9 9 9 10 11 11 10 10 11 11 12 12 13 15 14 14 15 14 14 16 17 15 16 16 17 17 16 17 17 17 18
5 5 5 5 6 6 5 5 6 5 5 6 6 8 8 9 9 10 10 10 10 11 13 11 12 13 14 13 14 14 14 13 15 18 19 18 17 16 17 15 17 17 17 18 18
4 5 6 6 5 5 6 6 6 6 6 7 7 7 9 9 10 10 10 10 11 12 12 13 14 14 15 14 15 14 13 14 16 16 17 17 15 18 16 16 16 17 17 17 17
5 6 6 6 5 6 6 6 6 6 7 6 7 8 9 10 10 10 10 11 13 13 14 13 14 14 14 14 14 13 15 16 17 16 15 16 14 16 15 15 15 15 17 17 16
6 7 7 6 6 6 6 6 5 6 9 7 8 8 9 10 9 9 10 11 13 13 12 14 14 14 15 15 14 15 17 17 17 15 14 15 14 14 14 14 14 13 16 16 16
7 7 7 7 7 7 6 6 6 8 8 8 8 8 8 8 9 8 9 12 14 13 13 14 16 14 14 16 15 16 16 13 12 12 12 13 14 14 13 15 13 13 15 16 15
8 8 7 6 6 6 6 6 7 10 8 9 9 9 10 10 9 10 10 11 12 12 11 12 15 16 16 15 16 14 13 12 13 12 13 14 14 15 15 14 16 13 15 16 16
10 9 9 7 7 7 6 8 10 9 9 10 10 10 10 11 10 10 10 11 12 12 11 11 14 14 16 15 14 13 13 12 14 12 14 15 14 16 14 15 17 16 16 16 16
12 12 11 11 8 7 7 10 10 10 10 10 11 9 10 11 11 11 10 12 13 12 14 13 13 15 15 16 15 15 14 14 14 13 13 14 15 17 12 12 13 14 15 15 16
12 12 12 11 9 7 8 10 10 10 11 11 10 10 10 11 11 11 10 14 13 14 14 13 12 14 15 16 15 15 14 14 12 15 15 14 15 15 14 12 11 11 14 15 15
12 12 12 10 8 8 10 10 10 10 11 11 12 11 11 11 11 12 12 13 14 14 14 13 12 13 14 14 13 14 14 14 12 12 13 13 14 13 13 12 12 12 15 16 15
12 10 11 10 9 8 10 10 10 10 9 11 14 13 12 13 14 12 12 13 13 15 14 14 11 11 14 14 14 14 14 13 12 14 11 11 13 14 13 12 13 14 16 15 15
12 12 10 11 10 9 11 11 9 10 11 13 12 13 14 13 13 12 12 12 13 14 14 14 12 11 14 13 13 14 14 13 12 11 12 12 13 13 12 12 14 14 15 15 14
12 11 12 11 11 10 11 11 11 10 11 12 13 13 13 12 12 12 12 12 13 13 13 14 12 13 14 14 12 13 13 13 13 11 12 11 15 15 15 14 14 15 17 14 12
11 9 11 11 10 10 11 12 12 12 12 12 13 14 14 13 12 11 12 12 13 13 13 13 13 13 14 14 14 14 13 12 12 12 13 14 13 15 13 13 14 15 14 12 12
11 10 11 9 11 10 9 11 11 11 12 12 11 11 12 11 12 12 12 13 14 13 13 12 12 13 13 13 13 13 13 12 12 13 12 13 13 14 15 14 13 14 12 12 11
10 11 11 8 9 10 10 11 11 11 11 11 12 12 10 10 11 12 12 12 12 13 12 12 12 12 13 11 12 13 12 11 11 11 13 13 13 13 13 12 11 12 12 11 10

GFSSW_850_temp_009.txt.gz
Temp
8 8 8 8 7 7 7 8 8 8 8 8 8 8 8 8 8 8 8 11 12 13 14 15 16 16 16 16 17 17 13 12 14 15 16 18 16 20 21 21 22 23 23 23 24
7 7 7 7 7 7 7 7 7 7 7 7 7 7 7 7 7 6 10 11 12 12 13 15 15 15 15 16 17 15 12 14 15 16 16 17 17 19 19 20 21 23 23 23 24
6 6 6 6 6 6 6 6 6 6 6 7 7 7 7 7 6 7 10 12 12 12 13 14 15 15 15 16 16 14 13 15 16 18 18 17 17 19 19 18 21 22 22 22 22
6 6 6 6 6 6 6 6 6 6 6 7 6 7 7 6 6 8 11 12 13 12 12 13 14 14 14 14 16 15 16 16 17 18 17 16 18 18 19 20 22 22 22 22 22
6 6 6 6 6 6 6 5 6 6 6 6 6 6 6 5 7 9 9 11 12 11 11 12 13 14 13 14 15 14 15 17 18 18 18 18 16 16 18 21 21 21 22 22 23
6 6 6 6 6 6 6 6 5 6 6 6 6 6 5 5 8 10 8 9 11 11 12 12 14 15 15 15 14 16 16 17 17 18 17 16 17 17 20 21 21 21 22 22 22
5 6 5 5 5 5 5 5 5 5 6 6 6 5 5 6 8 9 9 8 8 12 12 13 14 15 15 15 16 17 15 15 16 17 16 18 16 16 21 20 21 21 22 22 22
5 5 5 5 5 5 5 5 5 5 5 6 6 5 5 7 8 8 9 8 9 10 12 13 13 14 15 16 15 16 15 14 16 16 17 18 15 16 20 19 20 20 20 21 21
5 5 5 5 5 5 5 5 5 5 5 5 5 5 6 7 7 9 8 9 9 10 11 12 13 14 15 13 13 14 13 13 14 15 17 16 15 16 19 19 20 19 19 19 19
5 5 5 5 5 5 5 5 5 5 5 5 5 4 6 7 8 8 9 9 9 9 11 11 12 11 12 13 14 13 14 13 13 15 15 15 14 16 18 19 18 17 18 18 18
5 5 5 5 5 5 5 4 4 4 4 5 6 6 7 8 8 9 10 8 9 9 11 11 11 12 11 13 14 14 14 14 13 14 15 13 14 15 16 17 15 16 16 17 17
5 5 5 5 5 5 5 4 5 5 5 5 6 6 7 8 8 9 10 9 9 10 12 11 12 13 13 14 13 14 14 13 14 15 15 15 14 14 15 15 15 15 16 16 16
5 5 6 6 5 5 5 5 5 5 6 6 6 6 7 8 9 8 10 10 9 10 12 13 13 13 14 14 13 13 13 13 14 14 15 15 14 15 16 15 15 15 15 15 15
5 5 6 6 5 5 5 5 5 5 5 6 6 8 7 8 9 10 10 11 10 10 12 12 13 13 12 12 14 13 13 14 14 14 14 14 13 13 14 14 13 14 15 15 15
6 6 6 6 6 6 6 5 5 5 5 7 7 8 9 9 9 9 10 10 11 11 11 12 12 13 13 14 13 13 14 14 14 14 13 14 13 13 13 13 12 11 14 14 15
6 6 7 6 6 6 5 5 5 6 8 7 7 7 8 8 10 8 9 9 13 12 13 13 14 14 15 14 13 15 14 12 11 11 11 12 13 14 12 15 13 12 13 15 15
6 7 7 6 6 6 5 5 7 7 7 7 7 8 9 9 9 10 10 10 12 11 12 12 13 13 15 15 14 13 13 12 12 11 12 12 12 16 15 13 14 12 13 15 15
7 8 8 6 6 6 5 6 8 9 8 9 9 9 8 10 10 11 10 11 12 13 13 12 11 13 14 14 13 12 13 11 13 11 12 12 12 15 13 13 16 16 15 15 15
9 10 9 9 7 6 6 7 9 10 10 9 8 8 9 11 11 10 9 11 13 14 13 12 13 13 15 14 14 13 13 13 13 12 11 12 13 15 12 11 11 13 14 14 15
10 9 9 9 7 6 7 9 10 11 11 10 10 9 10 10 10 9 9 11 13 13 13 12 12 13 14 15 14 14 13 13 10 14 14 12 13 14 14 12 10 10 12 14 14
10 9 8 8 6 7 9 10 10 11 11 11 11 10 12 10 10 10 10 12 13 13 13 12 12 12 13 13 12 13 13 11 11 11 12 12 13 13 15 11 11 11 14 15 14
9 8 7 6 8 8 9 10 12 11 9 10 12 12 11 11 11 12 11 12 13 13 13 13 10 11 13 13 13 13 13 12 11 13 9 9 12 12 11 11 12 13 14 14 14
9 7 7 7 9 9 9 9 10 10 11 12 12 13 13 12 11 11 11 12 13 13 13 12 11 10 13 12 12 13 13 12 10 10 10 11 13 12 10 11 13 13 14 15 14
9 8 6 6 8 10 10 9 10 9 11 12 12 12 13 12 11 11 11 12 12 12 13 14 11 11 13 13 11 12 12 12 12 10 11 10 14 15 12 13 14 14 16 15 13
9 8 9 7 8 10 11 10 10 11 11 11 12 13 13 12 11 10 11 12 13 13 12 13 13 13 12 12 12 12 12 11 12 12 13 14 12 15 14 13 14 15 14 13 12
9 9 10 7 10 10 10 11 11 10 11 11 12 11 12 13 12 12 11 12 13 12 12 11 11 13 12 12 13 13 13 11 11 12 12 12 12 12 13 14 13 13 13 12 11
10 10 10 7 8 9 9 10 11 10 10 10 11 10 10 10 10 11 11 11 11 12 11 11 11 11 13 11 12 13 11 11 11 11 12 12 13 12 11 10 12 13 13 12 12

GFSSW_850_temp_012.txt.gz
Temp
8 8 8 8 8 8 8 8 8 8 8 8 9 9 8 8 7 7 7 10 12 12 13 14 14 15 15 16 16 16 12 12 14 14 16 17 16 18 19 19 20 21 22 22 23
7 7 7 7 8 7 7 7 7 7 7 7 8 8 8 7 7 6 9 10 11 12 12 13 14 14 15 15 16 14 11 13 14 15 16 17 16 18 18 18 20 21 22 22 22
5 6 6 7 7 7 6 7 7 7 7 7 7 7 7 7 6 7 9 10 11 12 11 12 13 14 14 15 15 13 13 14 16 17 17 16 16 18 18 16 20 21 21 22 22
5 5 5 6 6 6 6 6 6 6 6 6 6 7 7 6 7 7 9 11 11 11 11 11 12 14 13 13 15 14 15 15 16 18 17 15 17 16 17 19 21 21 21 21 22
6 6 5 6 6 6 6 6 6 6 6 6 6 6 6 5 6 9 8 8 10 10 10 11 12 14 12 13 14 13 15 16 17 17 16 17 15 15 17 19 21 20 20 21 21
6 6 5 5 6 6 6 6 6 6 6 6 6 6 5 5 7 9 9 8 8 8 11 12 13 14 14 14 14 15 16 16 16 17 16 16 16 16 18 20 20 21 21 21 21
6 5 5 6 5 5 6 6 6 6 6 6 6 5 5 6 7 8 8 9 8 8 10 13 12 14 15 14 15 16 15 14 15 17 15 17 15 14 19 19 19 20 20 21 21
6 5 5 5 5 5 5 6 6 6 6 6 5 5 4 6 7 7 7 9 8 8 10 13 12 13 14 15 15 14 14 13 15 16 16 16 16 15 19 18 19 20 18 18 20
6 5 5 5 6 5 5 5 5 5 5 5 4 5 5 6 7 8 7 8 8 8 9 11 12 13 14 13 12 13 13 12 13 15 15 15 13 15 17 18 18 18 17 17 18
5 5 5 5 6 5 5 5 4 4 4 4 4 4 5 6 7 8 8 8 8 8 9 10 12 11 11 11 13 11 13 13 13 15 14 14 13 15 16 17 18 17 16 16 17
5 4 4 5 6 5 5 4 4 3 4 5 5 5 6 7 7 8 9 8 7 9 10 11 11 12 12 13 13 12 13 13 13 14 14 12 12 14 15 16 16 15 15 14 16
6 5 5 5 5 5 5 4 5 5 4 5 5 5 7 6 7 8 8 8 8 8 11 11 12 13 12 12 14 14 13 13 13 14 13 13 13 13 13 15 16 14 14 14 14
6 5 5 5 6 5 5 5 5 5 5 5 5 5 6 6 7 7 8 9 8 9 10 12 13 13 13 12 13 13 12 13 13 12 13 12 13 13 14 14 14 14 14 14 15
6 6 5 6 5 6 5 5 5 4 5 5 5 6 6 6 7 9 9 10 9 9 11 11 11 13 13 12 13 12 12 13 14 13 12 13 12 12 13 13 12 13 14 14 14
6 6 5 5 5 5 5 4 4 4 5 6 7 8 8 7 9 8 10 10 9 9 11 11 11 12 13 14 13 13 14 13 13 12 12 13 12 12 13 12 12 10 13 14 14
6 6 5 5 5 5 6 5 4 5 6 6 7 6 6 8 9 9 9 10 11 11 12 12 13 12 12 12 13 14 14 12 10 10 11 12 12 12 12 12 12 11 13 13 14
6 6 6 6 5 5 5 5 6 7 5 7 7 7 8 7 8 9 8 8 9 9 11 11 11 13 13 12 13 13 13 12 12 11 11 11 11 12 14 13 13 11 13 13 13
7 6 5 6 6 5 5 5 7 8 5 8 8 7 8 8 9 9 9 9 10 12 11 11 10 11 13 13 11 12 11 11 13 11 11 10 11 14 13 11 13 15 15 13 13
7 7 5 6 6 5 4 6 7 9 8 8 8 8 8 9 10 9 9 9 11 12 11 12 11 12 13 14 12 12 12 12 11 10 10 11 12 13 12 10 10 11 13 13 13
8 7 6 6 6 5 5 6 8 10 9 9 8 9 8 10 9 8 9 11 11 13 12 11 11 13 13 14 13 12 12 13 10 13 13 12 12 13 14 14 10 8 10 12 13
7 7 7 6 5 6 6 6 9 11 10 11 10 9 10 8 11 10 9 10 12 12 12 11 11 12 12 12 12 12 12 10 11 10 12 11 13 11 12 12 10 9 12 13 13
7 6 6 5 7 7 7 9 10 10 10 10 11 12 11 10 11 10 10 11 13 12 12 12 9 9 12 12 11 12 12 11 11 11 8 9 11 12 9 8 10 11 12 13 13
8 6 6 6 8 9 9 9 11 10 10 11 11 12 12 11 10 11 10 11 12 12 12 11 10 10 12 12 12 12 11 11 9 9 8 10 12 11 8 9 11 11 13 14 14
7 6 6 6 6 8 9 10 10 9 10 11 12 12 12 11 11 10 10 11 12 13 13 14 10 11 12 13 11 11 11 10 11 10 10 9 13 14 12 12 12 13 14 14 13
8 7 8 7 7 8 10 10 10 10 10 11 12 12 12 11 10 10 10 10 12 12 11 12 12 12 11 12 12 12 12 10 11 12 12 13 11 13 14 14 14 13 13 13 12
8 7 8 7 9 9 9 9 10 10 11 12 11 11 11 12 12 10 10 11 11 12 12 10 11 12 12 11 13 13 12 9 10 10 12 11 11 12 12 12 12 12 13 12 11
9 9 9 7 8 9 10 10 11 11 8 9 11 10 10 10 10 10 10 10 11 11 11 11 10 11 12 11 12 13 11 9 10 10 10 10 11 11 10 10 12 13 13 13 13

GFSSW_850_temp_015.txt.gz
Temp
7 8 8 8 8 8 8 8 8 8 8 8 8 8 8 8 8 8 8 11 11 11 11 13 14 14 14 15 16 16 14 14 15 14 17 17 17 18 18 18 19 20 21 21 21
7 7 7 8 8 7 7 7 7 8 8 7 8 8 8 8 7 7 9 10 11 11 11 11 13 14 14 15 15 14 13 14 15 15 16 17 16 17 17 17 19 20 21 21 21
7 7 7 7 7 7 7 6 6 7 7 7 7 7 7 7 6 6 10 10 11 11 11 11 12 12 13 14 14 13 14 14 16 17 17 16 16 17 17 17 19 20 21 21 21
6 6 7 6 6 6 6 6 6 6 6 7 7 7 7 6 6 7 8 8 10 10 10 10 11 12 12 13 14 14 14 15 16 17 16 15 16 16 17 19 20 20 20 20 21
6 6 6 6 6 6 6 6 6 6 6 6 6 6 6 5 6 8 8 8 8 8 8 10 11 12 13 13 13 13 14 15 16 17 16 16 15 16 16 19 20 20 20 20 21
6 6 6 6 6 6 6 6 6 6 6 6 6 5 5 5 7 8 8 8 7 7 8 9 11 13 13 13 14 14 15 16 16 17 16 15 16 16 19 19 19 19 20 20 21
6 5 6 6 5 5 5 6 6 6 6 6 6 5 5 6 7 8 8 8 9 7 7 10 12 12 14 13 14 15 14 14 15 16 16 16 15 14 20 18 17 18 19 20 18
6 5 6 6 5 5 5 5 6 6 6 6 5 5 4 5 7 8 7 8 9 9 8 9 11 12 13 15 14 14 14 14 15 15 16 17 17 17 17 16 17 18 18 17 17
7 6 6 5 5 6 6 5 5 5 5 5 4 4 5 6 7 8 8 7 7 9 8 9 10 12 14 13 13 13 13 12 14 14 15 15 15 16 17 18 17 18 17 16 16
6 5 5 5 5 5 5 5 5 4 4 4 4 4 5 5 6 7 8 8 7 8 8 8 9 11 12 13 13 13 12 13 14 15 13 14 14 15 15 16 17 17 16 15 15
6 6 5 5 5 5 5 4 4 4 4 5 5 5 6 7 7 7 8 8 7 7 9 9 11 11 13 12 13 12 13 14 13 14 14 14 13 15 16 15 15 14 14 14 15
7 6 5 6 5 5 5 4 5 6 4 5 5 5 6 5 6 6 7 7 6 8 9 10 11 12 12 12 13 13 13 13 13 13 14 14 14 15 14 14 16 15 13 14 14
6 6 5 5 5 5 5 5 4 4 4 5 5 4 5 6 6 7 6 8 8 9 9 10 12 13 13 12 13 12 12 12 13 13 13 12 14 14 14 14 13 13 14 14 14
6 6 5 5 5 5 5 5 4 3 4 5 4 5 5 6 6 8 7 8 8 9 10 10 11 13 13 12 13 12 12 13 13 13 13 13 14 13 15 13 12 11 12 13 13
6 6 5 5 5 5 5 5 4 3 6 6 5 7 6 7 8 8 8 9 9 9 10 10 11 12 12 12 13 13 13 13 13 13 12 12 13 14 12 13 12 10 11 12 13
6 6 5 5 5 5 5 5 4 5 6 6 6 6 6 7 8 8 8 9 9 10 11 10 10 13 14 13 13 12 12 12 11 12 12 12 14 15 14 14 11 10 11 12 12
6 6 5 5 5 5 5 3 5 6 6 6 6 6 7 6 7 8 8 8 7 8 9 9 11 10 12 12 11 12 13 10 11 12 13 10 11 15 13 13 13 12 11 12 13
6 5 5 5 5 5 4 5 7 8 6 8 7 7 7 7 8 8 7 7 7 8 10 9 10 10 11 12 11 11 12 12 13 12 13 9 12 16 13 12 12 13 13 12 12
6 5 4 5 5 4 4 5 7 8 5 8 7 7 7 8 8 8 8 8 8 9 11 10 11 11 12 11 12 10 11 12 11 10 11 12 13 14 13 11 10 10 12 12 12
6 5 5 5 4 4 3 6 7 7 7 8 8 7 7 7 8 8 7 10 10 10 10 11 11 11 12 13 12 12 12 12 11 13 13 12 12 15 14 13 10 9 9 11 12
6 5 6 5 5 4 5 5 7 8 7 8 8 7 8 7 8 9 8 10 11 10 10 10 10 11 11 12 12 11 10 10 12 11 13 13 14 12 13 11 11 9 11 12 12
6 6 6 5 6 5 6 7 7 9 9 10 10 9 8 9 8 9 9 10 12 11 11 11 9 10 11 11 11 12 12 12 12 11 8 10 13 11 9 9 9 9 12 12 13
6 6 5 5 7 6 7 7 7 10 10 10 11 12 10 8 9 10 10 11 11 11 11 11 10 10 12 13 11 11 10 11 10 9 9 12 14 11 9 10 10 10 12 12 12
6 7 6 5 6 7 9 9 9 9 9 10 11 11 10 10 10 9 10 11 11 12 13 13 10 11 12 12 10 11 10 10 13 11 10 11 13 14 13 12 10 11 12 12 12
6 5 7 7 7 7 8 9 9 10 9 9 11 12 11 9 9 10 10 10 11 12 12 12 13 12 11 12 12 11 11 10 11 13 14 13 11 13 12 12 11 13 12 12 12
6 6 6 6 7 7 7 9 9 9 9 11 11 11 11 9 10 10 10 11 12 11 11 10 11 11 11 11 11 11 10 11 12 10 11 11 11 11 11 11 11 11 12 12 11
7 8 8 8 8 9 9 9 9 8 9 8 11 10 11 10 10 12 13 11 11 11 10 11 10 11 11 11 11 12 10 10 11 9 12 12 14 9 9 9 10 11 11 11 11

GFSSW_850_temp_018.txt.gz
Temp
9 8 8 8 8 9 9 9 9 9 9 9 8 9 8 8 8 8 7 11 11 11 11 12 13 13 13 15 15 16 19 19 20 20 21 20 21 20 19 20 21 21 21 21 21
8 8 7 8 8 8 8 8 8 8 8 8 8 8 8 8 8 7 10 11 11 11 10 10 12 13 14 15 16 18 19 20 21 21 21 20 19 19 20 21 21 22 22 20 20
7 7 7 7 7 7 7 7 7 7 7 7 8 8 8 7 6 7 10 11 11 10 8 9 10 12 15 16 16 18 19 20 19 19 19 19 19 19 19 21 21 21 22 21 20
7 7 7 7 7 7 7 7 7 6 6 7 7 7 7 6 9 7 8 8 9 9 8 9 11 11 13 16 17 17 18 19 19 18 18 19 19 19 20 20 20 20 20 19 20
7 7 7 7 7 7 7 7 6 6 6 6 7 6 6 6 8 8 9 9 8 8 8 9 10 12 14 16 17 17 19 18 18 17 17 17 18 19 19 20 20 20 19 19 19
6 6 7 6 6 7 7 6 6 6 6 6 6 6 5 6 7 8 9 9 8 8 8 9 11 13 14 16 17 17 17 18 18 18 18 18 19 18 20 21 20 20 19 19 19
6 6 6 6 6 7 7 6 6 6 6 6 6 5 5 7 7 8 8 8 8 8 8 9 10 12 14 15 15 17 17 18 18 18 19 18 19 20 20 20 19 19 19 17 19
7 6 6 6 6 7 7 6 5 5 6 6 5 5 5 6 7 7 7 7 8 8 9 9 9 9 12 15 14 17 16 17 19 19 19 18 19 22 20 19 20 19 18 16 17
6 5 6 5 5 6 6 6 5 5 5 5 5 4 6 6 6 7 7 7 7 8 8 8 8 9 13 13 14 15 16 16 18 19 19 18 19 21 19 19 20 21 18 17 15
6 5 6 6 5 5 5 6 5 5 4 4 4 4 5 6 6 6 6 7 7 8 8 8 8 9 13 13 13 15 16 18 18 19 18 19 19 20 20 19 20 20 18 17 16
7 6 6 5 5 5 5 5 4 3 3 5 6 6 6 6 6 6 6 6 7 7 8 9 8 10 12 15 17 17 18 17 18 19 17 19 20 20 21 21 20 19 18 17 15
7 6 6 5 5 5 5 5 5 5 5 4 5 5 6 6 6 6 6 7 8 8 8 10 8 12 13 15 16 18 17 17 19 17 17 19 19 20 21 21 20 20 18 16 14
7 6 6 5 4 5 5 5 5 4 3 4 4 5 5 5 6 7 6 8 9 8 7 9 10 12 13 16 16 16 16 17 18 16 17 17 19 21 20 18 16 17 18 16 15
7 6 6 5 5 6 5 5 5 3 4 5 5 5 5 6 6 7 7 8 9 8 7 11 11 11 13 15 16 15 17 17 16 16 17 17 19 20 21 20 17 17 16 15 14
6 6 6 5 5 5 6 5 4 3 6 7 5 5 6 7 8 7 7 8 9 8 7 8 10 11 12 15 16 17 16 17 16 16 15 18 17 21 18 20 18 17 15 14 13
6 6 5 5 5 5 5 5 4 5 7 6 5 6 6 7 9 7 8 8 7 8 9 12 10 11 15 16 16 15 16 15 15 15 16 19 18 21 21 20 18 17 15 14 13
6 6 5 5 5 5 5 3 5 6 6 6 5 7 8 7 8 7 8 8 5 7 7 9 8 11 15 14 13 16 16 12 13 14 17 16 16 21 20 18 19 17 15 14 13
6 5 5 5 5 5 4 4 7 8 7 6 8 8 8 8 8 8 9 8 7 7 8 8 10 11 14 14 12 14 16 17 16 17 18 14 17 20 18 16 16 17 16 14 12
6 6 5 4 5 4 4 5 8 8 6 6 8 7 8 9 10 9 9 9 8 8 8 9 9 9 11 12 14 12 14 16 16 15 17 19 19 19 17 17 15 15 15 13 13
6 5 6 5 4 4 4 6 7 7 6 7 8 8 9 10 9 9 9 11 9 10 10 13 9 9 8 11 11 13 15 13 15 16 17 18 18 20 19 18 15 15 15 14 12
6 5 6 5 4 4 5 5 6 7 6 6 9 9 10 10 10 10 10 11 11 12 11 13 14 11 9 11 12 12 11 12 15 16 18 19 20 19 19 18 16 16 15 14 12
5 6 6 5 5 4 5 6 7 7 6 7 10 11 11 11 11 8 11 11 12 13 12 13 16 14 12 12 14 15 14 15 15 15 16 17 19 17 17 15 14 15 14 13 12
6 6 6 5 6 6 6 6 6 7 7 7 9 12 12 11 11 8 12 13 12 13 14 14 15 14 13 13 13 14 15 16 17 16 17 18 19 16 16 16 14 14 14 13 12
6 7 5 5 6 7 7 7 7 7 9 8 10 12 12 11 12 10 12 12 12 13 13 13 15 16 16 16 16 14 15 16 16 16 17 17 19 18 17 17 15 14 14 13 11
6 8 7 6 6 6 7 8 8 9 9 9 10 12 13 12 11 12 13 12 12 12 13 13 15 15 15 15 16 15 15 15 16 17 17 19 17 19 20 17 16 14 13 13 11
6 7 5 8 7 8 6 8 9 9 9 9 9 13 14 14 13 12 13 13 12 13 13 14 15 14 14 13 15 15 16 16 16 17 17 18 18 19 17 15 14 15 13 13 12
6 7 7 10 9 8 8 8 9 10 8 9 12 13 13 14 13 14 14 14 14 13 13 14 14 15 15 13 14 14 15 15 16 17 17 17 19 16 14 15 14 13 13 12 11

GFSSW_850_temp_021.txt.gz
Temp
8 8 9 8 8 8 9 9 9 9 9 9 9 9 9 8 8 8 9 11 11 11 11 11 12 14 15 16 17 18 20 20 21 22 23 23 22 23 22 22 22 23 23 23 21
8 8 8 8 8 8 8 9 9 9 8 9 9 8 8 8 8 8 10 11 11 11 10 12 14 15 15 16 17 18 19 20 23 23 23 23 22 22 21 22 23 24 24 23 22
8 7 7 7 7 7 8 8 9 8 8 8 8 8 8 8 8 9 9 11 11 11 10 11 12 13 15 17 18 19 19 22 22 22 21 21 21 22 22 22 23 23 23 23 22
8 7 7 7 7 7 7 8 8 7 7 7 7 7 7 7 11 9 10 9 9 8 9 11 12 12 14 16 18 19 20 20 22 21 20 20 21 21 21 22 22 22 22 22 22
8 7 7 7 7 6 7 7 7 7 7 6 6 7 6 7 9 9 9 9 9 9 10 11 12 13 15 17 17 18 20 20 20 21 20 20 20 20 20 21 22 22 22 22 21
8 7 7 7 7 7 6 6 7 7 7 7 6 6 6 8 10 10 9 8 9 10 10 11 12 14 15 16 17 18 19 19 20 20 20 20 20 20 21 21 22 22 22 22 21
7 7 7 7 6 6 6 6 6 7 7 7 6 5 6 7 8 9 8 9 9 9 10 10 12 13 14 15 17 17 18 19 20 20 20 20 20 20 21 21 22 22 22 22 20
7 7 6 6 6 6 6 5 6 6 7 6 6 5 5 7 7 8 8 8 8 9 9 11 10 12 12 14 16 17 16 15 19 20 20 20 18 22 23 22 22 22 22 20 18
7 7 6 6 6 6 5 5 6 6 5 5 5 5 6 7 6 7 8 8 9 9 9 10 10 10 10 11 12 15 16 16 17 21 21 20 19 22 22 22 22 22 22 20 19
6 6 7 6 6 5 5 5 5 5 5 4 5 5 7 7 7 7 8 8 9 9 9 10 10 10 10 11 12 15 16 17 17 21 20 20 20 21 22 22 22 22 23 21 19
7 6 6 6 6 5 4 4 5 4 4 6 7 8 8 8 7 7 8 8 8 9 9 10 9 9 10 11 15 17 17 17 20 22 21 21 20 21 22 22 22 22 23 21 19
7 6 6 6 6 5 4 5 5 5 5 5 7 7 8 7 8 7 8 8 8 9 11 10 8 12 13 12 12 15 17 18 21 21 20 20 20 22 23 22 22 23 22 21 18
6 6 6 6 5 5 5 5 5 5 4 4 5 6 6 6 7 8 8 8 10 10 10 9 10 12 13 11 12 14 17 19 19 20 19 19 19 20 22 22 23 22 22 21 17
6 6 6 5 5 5 5 5 5 5 4 6 5 5 5 4 5 7 8 8 10 9 10 8 10 7 12 10 12 14 18 18 19 18 18 20 19 23 24 22 20 21 21 20 17
6 6 6 5 5 5 5 5 5 4 7 8 6 5 5 5 9 9 8 8 9 10 6 7 9 7 11 9 12 16 18 18 18 18 17 17 18 21 23 22 22 21 20 18 17
6 6 6 5 5 5 5 4 4 4 7 6 5 5 6 5 8 9 8 8 9 8 6 9 10 11 12 11 12 16 17 17 17 17 15 18 19 22 22 22 23 21 19 17 16
6 6 5 4 5 5 5 3 5 7 8 6 5 5 7 7 8 9 7 7 6 6 6 8 6 8 10 10 12 15 15 12 13 14 17 20 20 22 21 21 21 20 18 17 15
6 6 6 4 5 5 4 3 6 9 7 5 6 7 7 9 9 8 6 7 7 6 6 8 8 7 9 11 12 13 15 17 15 16 19 18 18 21 21 20 20 19 18 16 15
6 6 5 5 4 4 4 5 7 8 6 6 6 7 8 10 10 9 6 8 10 8 7 9 9 7 9 11 14 14 16 18 18 19 21 19 20 20 20 19 18 19 18 16 15
6 6 5 5 5 4 4 6 6 8 6 6 7 9 9 9 9 9 9 11 11 9 7 9 8 6 9 12 12 15 18 16 18 17 18 20 21 21 20 20 18 19 18 16 15
6 5 6 5 5 4 4 5 6 7 6 6 7 9 11 11 11 10 10 12 13 11 8 9 7 7 10 11 12 13 16 16 18 19 20 20 21 22 21 20 19 19 18 16 15
5 5 6 5 5 5 5 4 6 7 6 6 8 11 12 13 12 11 12 13 13 12 9 10 10 8 9 11 15 15 16 17 18 17 19 19 20 20 20 18 18 18 17 16 15
5 6 5 5 6 5 5 5 5 6 7 6 7 11 14 13 12 11 12 15 12 13 12 13 13 10 9 9 12 14 15 16 18 18 19 19 20 20 19 18 17 18 17 16 14
6 7 5 4 5 7 6 6 6 7 6 7 10 13 13 13 14 12 12 14 13 14 14 14 15 17 15 15 13 14 14 16 18 17 18 19 20 20 19 19 18 17 16 16 14
5 7 8 6 6 6 7 7 7 8 7 8 8 12 13 13 13 13 13 14 13 13 14 14 15 17 18 18 17 16 16 16 16 18 18 20 20 21 21 20 19 17 16 15 14
5 8 7 8 7 7 6 7 7 8 9 8 8 11 14 14 14 13 13 14 13 13 14 14 15 16 16 16 17 17 17 17 17 18 19 19 20 22 21 20 19 17 16 15 14
5 7 8 12 11 8 9 7 8 8 9 10 9 11 14 15 15 15 15 15 15 14 13 13 14 16 16 16 16 15 17 17 18 18 18 18 20 21 18 18 18 17 16 15 14

GFSSW_850_temp_024.txt.gz
Temp
9 9 8 8 7 8 9 9 9 9 9 9 9 9 9 9 9 9 10 11 11 11 12 13 12 13 14 15 16 18 17 17 19 20 21 23 22 23 22 22 22 23 23 22 22
9 9 8 7 7 7 8 8 9 9 9 9 9 9 9 9 8 8 11 11 11 11 11 11 13 15 14 15 16 17 16 17 20 21 21 23 22 22 22 22 22 23 23 23 23
8 8 8 7 7 7 7 8 8 8 8 8 8 8 8 8 8 9 10 12 11 10 11 10 12 13 14 15 16 17 16 19 20 21 22 22 21 22 21 20 22 22 22 22 22
8 8 8 8 7 7 7 8 7 7 7 7 8 8 8 7 10 10 11 10 10 9 9 10 11 13 14 15 16 17 18 19 19 20 21 20 21 20 21 21 21 22 22 22 22
8 8 8 8 7 7 7 7 7 7 6 7 7 7 7 7 9 9 10 10 10 9 9 10 11 13 13 15 16 16 18 19 20 20 20 21 19 19 20 20 20 21 22 22 22
7 7 8 7 7 7 7 7 7 6 6 6 7 7 6 7 9 10 9 10 9 10 10 10 11 13 14 15 15 17 17 18 19 20 20 20 19 20 20 21 21 21 22 22 22
7 7 7 7 7 6 6 7 7 6 6 6 6 6 6 7 9 9 10 10 10 10 10 11 11 12 14 14 15 16 15 18 18 19 19 20 18 18 20 21 21 21 22 22 22
7 7 7 6 6 6 6 6 6 6 6 5 6 5 6 7 8 8 8 9 9 9 9 10 11 11 11 12 13 14 15 14 17 18 19 19 17 19 21 21 21 21 22 22 20
7 6 6 6 6 6 6 6 6 6 5 5 5 5 6 8 7 8 8 9 9 9 9 10 10 10 11 11 10 13 12 14 15 18 19 18 17 19 20 21 21 22 22 21 19
7 7 6 6 6 5 5 5 6 6 5 5 5 6 7 8 8 8 7 8 9 10 10 10 10 10 9 10 10 12 12 14 15 17 18 17 18 19 21 21 21 22 22 21 19
7 7 6 6 6 5 5 5 5 5 5 6 6 8 9 8 8 8 8 8 8 9 9 10 9 8 9 10 11 13 14 15 16 19 17 17 18 19 20 20 21 21 22 21 19
7 7 6 6 6 5 5 4 5 5 5 5 7 6 8 8 8 8 8 8 9 8 9 9 8 10 11 11 11 12 12 13 16 19 18 18 19 19 19 20 21 21 22 22 17
7 7 7 6 5 5 5 5 5 5 4 5 6 6 7 7 7 9 8 8 9 8 8 8 9 10 11 11 11 12 12 13 12 18 19 18 17 17 19 20 22 22 22 21 18
7 7 6 5 5 6 4 5 5 5 4 5 4 5 6 5 5 7 8 8 8 8 9 9 10 10 9 10 11 11 12 14 12 16 15 17 14 17 18 19 20 21 22 18 17
6 6 6 6 6 5 6 6 5 5 7 7 6 5 6 5 7 8 6 7 7 8 9 6 8 9 9 9 10 11 13 11 13 13 14 16 15 16 19 19 19 17 21 18 17
7 6 5 5 5 5 5 5 4 5 6 6 5 5 6 5 6 7 7 7 8 8 8 8 8 8 10 11 10 10 11 10 11 14 13 15 15 16 19 19 18 18 20 18 16
7 6 6 6 5 5 5 4 5 6 8 6 6 6 6 6 6 7 8 7 6 6 6 6 6 8 7 8 10 10 9 10 11 12 13 16 15 17 19 19 19 18 18 17 16
6 6 6 5 5 5 4 4 5 10 7 6 6 6 6 8 8 8 7 6 8 7 6 7 8 7 7 6 10 9 7 11 12 12 14 17 15 17 18 19 21 19 18 17 15
6 6 6 5 4 5 4 4 7 9 7 6 5 6 6 8 9 9 8 8 8 8 6 7 7 8 9 8 10 9 7 11 16 17 16 15 18 18 17 16 17 17 16 16 15
6 6 6 6 4 4 5 5 7 8 6 6 6 7 8 9 8 7 8 10 8 9 8 6 7 7 8 9 10 10 12 14 13 15 16 15 16 16 16 15 16 15 15 15 15
6 6 6 6 5 4 5 5 7 6 6 6 6 8 9 10 10 7 8 11 10 9 7 6 6 8 6 8 8 10 12 14 16 16 16 15 16 17 17 16 15 15 16 15 14
6 6 6 5 5 5 5 6 5 5 5 6 6 7 10 12 11 10 10 11 12 8 6 6 6 8 8 9 10 13 14 15 15 15 15 16 15 17 16 17 15 17 16 15 15
5 6 5 5 6 5 6 5 4 6 6 6 6 7 11 11 12 12 12 14 12 10 9 8 8 9 9 10 10 12 15 15 16 16 15 16 14 16 14 15 17 16 16 15 15
5 6 5 5 5 7 6 5 5 5 6 7 7 8 9 10 13 12 12 13 13 13 12 10 8 8 11 12 12 13 14 14 14 14 16 17 15 16 15 14 15 17 17 15 14
6 6 6 6 5 6 7 6 6 6 5 6 7 7 10 11 12 13 12 13 12 12 11 12 11 11 12 13 14 13 14 14 14 15 16 18 16 16 15 14 15 17 16 15 14
4 6 6 7 7 7 6 7 6 7 7 8 7 9 10 12 13 12 13 13 12 12 12 12 12 14 15 14 13 14 14 14 15 15 16 16 17 19 18 18 16 16 16 15 14
5 6 7 9 8 7 8 7 7 7 7 8 8 9 10 12 15 12 15 14 14 12 11 12 12 14 13 15 16 14 15 15 15 15 16 15 17 19 16 16 16 17 16 15 14

GFSSW_850_temp_027.txt.gz
Temp
8 9 9 9 9 8 9 9 9 9 9 10 10 9 9 9 9 9 11 11 11 11 12 12 13 13 13 13 14 15 12 13 15 16 18 20 21 22 22 22 22 22 22 23 22
8 8 8 8 8 8 8 8 8 9 9 9 9 9 9 9 8 8 11 11 10 11 11 11 12 12 13 14 14 14 12 14 17 17 18 20 21 22 21 21 21 22 22 22 22
8 8 8 8 8 8 8 8 8 8 8 8 9 8 8 8 8 9 11 11 11 9 11 11 11 11 12 13 13 14 14 15 17 19 19 19 20 21 20 19 21 21 21 21 21
8 8 8 7 7 8 7 7 7 7 7 7 8 8 8 7 8 10 10 11 10 9 9 10 11 11 11 12 14 13 15 16 17 17 18 18 20 19 20 20 20 20 21 21 21
7 7 7 7 7 7 7 7 7 7 7 7 7 7 6 7 8 10 10 10 10 10 9 9 9 10 10 12 13 13 15 16 17 17 18 18 18 18 19 20 20 20 21 21 21
7 7 7 7 7 7 7 7 7 7 7 7 7 6 6 5 9 9 10 9 10 10 10 9 10 11 11 12 12 14 15 15 16 17 18 18 18 18 20 20 20 20 20 20 21
7 7 7 7 7 7 6 6 6 6 6 7 7 6 6 7 9 9 9 9 9 10 9 10 10 10 11 11 13 13 13 14 15 16 16 17 16 16 20 20 20 20 20 20 21
7 7 7 7 7 6 6 6 6 6 6 6 6 6 5 7 9 8 9 9 9 9 9 10 10 10 11 11 11 11 11 11 14 15 16 17 15 17 19 20 19 20 20 20 21
8 7 7 7 7 6 6 6 6 6 6 5 5 5 5 7 7 9 8 9 9 9 9 10 9 10 10 10 9 9 10 11 12 15 15 15 15 17 19 20 19 19 20 20 20
7 7 7 6 7 6 6 6 6 6 6 5 5 5 6 8 8 8 8 8 8 9 9 9 9 7 7 9 9 9 9 10 11 14 14 15 15 15 19 19 18 20 20 20 20
7 7 7 6 6 6 6 5 5 5 5 6 7 7 9 8 8 8 8 7 8 8 7 9 6 6 7 7 9 10 9 10 12 14 15 15 15 16 17 19 17 19 20 19 18
7 7 7 6 6 6 5 5 6 6 5 6 7 6 8 8 7 8 8 7 7 7 7 7 7 8 9 9 9 9 9 9 12 13 14 15 15 17 17 17 19 19 21 18 16
7 7 7 6 6 5 5 6 5 5 4 5 6 5 6 7 7 7 8 8 7 6 7 6 8 9 9 9 9 9 9 9 11 12 13 13 14 15 16 18 19 19 21 18 17
7 7 6 6 5 5 5 6 5 5 5 6 4 5 5 5 6 7 8 8 8 7 7 8 9 9 8 8 9 9 11 11 11 12 11 14 12 13 16 16 16 18 19 17 16
6 6 6 6 6 5 6 6 5 5 6 6 6 5 6 6 7 7 6 6 6 6 7 6 7 8 8 9 9 9 11 10 11 11 11 12 13 13 15 15 17 17 17 16 16
6 6 6 4 5 5 5 5 5 5 5 6 5 5 5 6 7 7 6 6 6 6 6 6 7 7 8 10 10 10 9 9 10 10 10 12 12 12 14 17 17 16 15 14 14
6 6 6 6 5 5 5 5 5 5 8 6 6 6 6 7 6 7 6 5 6 5 4 5 6 7 7 6 7 8 7 8 8 9 11 12 12 13 16 15 17 14 14 13 14
6 6 6 6 5 5 4 5 5 8 7 6 6 6 6 7 6 6 6 6 5 6 6 5 5 6 7 7 7 7 7 7 8 11 12 13 10 14 17 15 17 15 14 13 13
6 6 6 5 5 5 5 5 5 7 8 6 6 6 6 7 7 6 5 7 7 6 5 6 6 8 8 8 9 8 7 9 8 8 12 13 14 16 15 14 14 13 13 11 11
6 6 6 5 4 4 4 5 6 8 6 6 6 6 6 7 7 6 6 8 7 7 8 6 6 8 6 6 8 9 10 7 7 9 11 13 14 14 14 13 13 13 12 11 11
6 6 6 6 4 4 4 5 7 7 7 6 6 6 7 6 7 6 7 8 9 9 8 5 5 7 5 7 8 7 8 9 10 10 11 12 13 14 13 14 13 13 12 11 12
6 6 5 5 5 4 5 6 7 7 6 6 5 6 6 8 7 7 7 9 10 9 7 6 6 6 7 9 10 10 10 10 9 10 10 12 13 14 13 13 13 13 13 12 12
6 5 5 5 5 5 6 7 6 6 5 5 6 6 8 8 8 9 9 11 9 8 7 6 6 8 8 8 9 8 9 10 9 11 14 12 13 13 12 12 13 13 13 12 12
5 6 5 5 5 6 6 6 6 5 5 5 6 7 7 7 8 9 10 11 9 9 9 6 7 7 10 11 9 8 9 11 12 12 13 13 13 13 13 13 11 13 13 13 12
6 6 6 5 5 6 6 6 6 5 5 5 5 7 8 7 8 9 11 11 10 11 9 8 8 8 9 9 11 12 13 12 12 12 14 14 14 13 12 12 12 13 13 12 11
5 5 6 5 6 5 6 6 6 6 6 6 6 7 7 8 9 10 11 11 11 10 10 9 8 9 10 13 13 13 13 12 13 13 14 14 16 15 13 13 13 13 13 12 11
5 6 7 7 6 6 6 6 7 7 6 7 7 8 8 8 9 10 12 11 12 11 10 10 10 11 10 12 13 12 13 13 13 14 14 14 15 14 13 13 13 13 13 12 12

GFSSW_850_temp_030.txt.gz
Temp
8 8 8 8 8 7 8 8 9 9 9 9 9 9 9 9 9 10 10 11 11 12 12 12 12 13 13 13 14 14 11 11 14 14 16 19 19 21 22 21 21 21 21 22 22
7 8 8 7 7 7 7 8 8 9 9 9 8 9 9 9 9 9 11 11 11 11 11 11 12 12 12 13 13 12 11 13 14 15 15 17 19 20 20 20 20 21 21 21 21
7 8 8 7 7 7 7 8 8 8 8 8 8 8 8 8 8 10 11 11 11 9 11 11 11 11 11 12 12 12 12 14 15 17 17 16 17 19 19 18 20 21 20 20 20
7 7 8 8 7 7 8 7 7 8 8 8 8 8 8 8 8 10 10 10 11 9 9 10 10 10 10 10 13 11 13 14 15 16 16 15 17 17 18 20 20 20 21 20 20
7 7 7 8 7 7 7 7 7 7 7 7 7 7 7 6 9 10 10 9 10 9 9 9 9 10 9 10 12 10 12 14 15 15 15 16 15 16 17 19 20 20 20 21 21
7 7 7 7 7 7 7 7 7 7 7 7 6 7 6 5 9 9 9 9 9 10 10 9 9 10 10 10 10 12 12 13 14 14 15 15 16 16 17 19 19 20 20 21 21
8 7 7 7 7 7 7 7 7 7 6 6 6 6 5 8 9 8 9 9 9 9 9 9 10 10 10 10 11 11 10 11 12 14 14 15 14 15 17 18 19 20 20 20 20
8 7 7 7 7 7 6 6 6 7 6 6 6 6 6 8 9 8 9 9 9 9 9 9 9 9 9 10 10 10 10 10 13 13 14 15 13 15 18 18 18 19 20 20 20
7 8 8 7 6 6 6 6 6 6 6 6 5 6 6 7 8 8 8 8 8 9 9 9 9 9 10 9 9 8 8 9 11 14 13 13 14 15 17 17 17 19 19 19 19
7 7 7 7 6 6 6 6 6 6 6 6 5 5 7 8 8 8 9 8 8 8 9 9 9 7 6 7 8 9 8 8 10 12 13 13 13 14 17 16 17 19 19 19 19
7 7 7 7 6 6 5 5 5 5 5 6 6 7 8 8 8 8 8 8 8 7 7 8 6 6 6 6 8 8 8 7 9 11 11 12 13 14 15 15 15 16 18 19 18
7 7 7 7 6 6 5 5 6 6 5 7 7 6 7 8 7 8 8 7 7 6 6 6 7 8 7 7 7 7 7 8 9 11 12 11 11 13 15 16 16 17 17 18 18
7 7 7 7 6 5 5 6 6 6 5 6 6 5 5 6 7 7 8 7 6 6 6 6 8 8 8 8 7 7 7 8 8 9 11 11 11 12 14 15 16 17 17 18 18
6 6 7 6 6 5 4 6 5 5 5 6 5 6 5 6 6 7 8 8 7 6 6 6 8 8 8 7 8 7 9 9 9 10 8 12 11 12 14 15 15 16 17 17 17
6 6 6 6 6 6 7 6 5 4 2 6 5 5 5 6 7 7 7 7 6 6 6 6 6 7 7 7 9 8 10 9 10 10 9 9 9 12 13 14 14 15 16 17 17
6 6 6 5 6 7 6 5 5 3 3 6 5 5 5 6 7 7 6 6 6 6 5 5 7 6 8 9 9 9 9 9 9 9 8 10 10 11 13 14 15 15 15 16 14
5 6 6 6 6 6 6 5 4 1 7 6 5 5 5 6 6 7 6 5 6 5 5 5 5 6 7 7 8 8 7 7 7 7 8 10 10 11 12 13 15 16 15 15 13
5 5 6 6 6 5 5 5 4 7 6 7 7 6 6 6 7 6 5 6 5 5 5 2 3 5 6 6 6 7 7 7 6 5 9 11 10 12 13 15 16 15 16 12 11
4 5 6 5 5 5 5 4 4 6 7 7 7 6 6 7 7 6 5 5 6 5 5 4 4 7 7 8 8 6 6 8 7 8 8 9 10 12 13 12 12 12 11 10 10
4 5 5 5 4 5 4 5 5 7 7 7 6 6 7 7 5 5 4 6 7 6 6 6 4 7 7 7 7 8 8 6 6 5 8 10 11 14 13 11 10 10 10 10 9
4 6 5 5 4 4 4 5 6 7 7 6 6 6 6 7 6 5 6 7 7 7 6 7 5 6 5 5 6 5 6 7 8 8 8 10 12 14 15 13 11 11 10 9 9
4 4 4 4 5 4 5 6 7 6 7 6 6 6 6 6 6 5 5 7 9 8 5 5 6 6 6 7 7 7 7 8 8 8 9 8 10 12 12 12 13 11 10 9 9
5 5 4 4 4 4 5 6 7 6 6 6 6 6 7 6 7 6 8 9 9 8 6 5 6 6 7 6 8 7 9 9 11 9 9 9 10 12 9 10 12 10 9 9 9
4 5 5 5 5 5 6 6 6 6 7 6 5 5 6 6 7 7 7 9 10 9 7 6 6 6 8 9 9 8 8 9 10 8 9 8 9 12 11 10 9 10 10 9 10
4 5 6 6 5 6 6 7 6 6 6 5 5 5 6 7 6 6 8 9 9 9 7 6 7 5 6 6 7 10 9 9 9 10 9 10 9 12 11 10 10 10 10 9 8
5 5 6 6 6 6 6 6 6 6 5 5 5 6 6 7 7 8 9 10 10 8 7 7 6 6 8 10 8 9 10 10 10 9 7 12 14 13 10 10 10 10 10 9 9
5 6 8 6 6 6 6 7 7 7 6 7 5 5 7 7 7 8 8 9 10 10 8 8 7 7 10 11 10 10 8 10 8 10 12 13 15 12 12 11 9 10 11 10 9

GFSSW_850_temp_033.txt.gz
Temp
7 7 8 8 8 7 7 8 8 8 8 9 9 9 10 9 9 9 10 11 11 11 11 12 12 12 12 13 13 13 11 11 13 13 15 17 18 20 20 20 21 21 21 21 21
7 7 7 8 7 7 7 7 8 8 8 8 9 9 9 9 9 9 11 11 11 10 11 11 11 12 12 12 13 11 11 12 13 14 14 17 17 18 19 19 20 20 21 21 21
7 6 7 7 7 7 7 7 8 8 7 8 9 9 9 9 8 10 11 11 11 10 10 10 11 11 11 12 12 11 12 13 14 15 16 15 16 17 18 17 19 20 20 21 20
7 7 7 7 5 7 7 7 7 7 7 8 8 8 8 8 8 10 10 10 10 9 9 9 10 10 9 10 12 10 12 13 14 15 15 14 16 16 17 18 19 19 19 20 20
8 8 7 7 7 6 7 7 7 7 7 7 8 7 7 6 9 9 10 10 10 9 9 9 9 9 9 9 10 10 11 12 13 14 14 14 14 14 15 16 18 18 19 20 20
8 8 7 7 7 7 6 7 7 7 7 7 7 7 6 5 9 9 10 10 9 9 9 9 9 9 9 9 9 10 10 11 12 13 13 13 13 14 15 16 17 17 18 19 20
8 8 8 7 7 7 7 6 6 6 6 7 7 7 5 8 9 9 9 9 9 9 9 9 9 9 9 9 10 10 9 10 11 12 12 14 13 13 15 15 16 17 18 19 20
8 8 7 7 7 7 7 6 6 6 6 6 6 6 6 8 8 9 8 8 9 9 9 9 9 9 9 10 9 9 9 9 11 11 12 14 13 14 16 16 16 17 18 18 19
7 8 7 7 7 7 6 6 5 6 6 6 6 6 6 7 8 8 8 8 8 8 8 9 9 9 9 8 7 8 8 8 10 12 12 12 12 14 16 16 16 17 18 18 19
7 7 7 7 7 7 6 5 5 5 5 5 5 5 7 8 8 8 8 8 8 8 9 9 8 7 7 7 7 8 9 8 9 12 11 11 12 12 14 14 14 15 17 18 19
6 7 7 7 6 6 5 5 5 5 5 6 7 7 8 8 8 8 8 8 8 7 6 7 6 6 7 6 7 7 7 7 8 10 9 9 9 11 12 13 14 14 16 17 18
6 6 6 7 7 6 5 5 6 5 5 5 6 6 7 7 7 7 8 7 7 5 6 6 6 6 7 6 6 6 7 7 8 9 9 9 10 10 11 12 13 14 15 16 18
5 6 6 6 6 5 5 6 5 5 5 6 6 5 5 7 6 7 7 7 6 5 5 6 7 8 7 7 6 6 6 7 7 8 9 8 9 11 13 13 13 14 15 16 17
4 6 6 6 6 6 5 5 5 6 4 6 5 5 5 6 6 7 7 8 7 5 5 6 7 7 7 7 6 6 7 8 8 7 6 10 8 10 12 12 13 14 15 15 16
4 5 6 5 6 6 6 6 5 5 2 6 4 5 5 6 7 6 7 7 7 6 5 6 5 5 6 7 8 7 9 8 8 7 6 8 6 8 11 12 13 11 14 16 17
3 5 6 6 6 7 6 6 5 4 3 5 5 5 5 6 7 6 6 7 6 6 7 7 7 6 6 8 8 8 8 7 6 7 7 8 7 9 10 12 12 12 14 15 17
3 4 5 6 6 6 6 5 4 4 6 5 6 5 6 6 7 7 6 6 6 6 5 5 5 6 6 6 7 8 6 6 7 7 7 9 8 10 10 11 12 12 14 16 16
3 3 4 6 6 5 5 5 4 6 5 7 6 5 5 6 6 6 6 6 6 5 5 3 3 5 6 6 6 6 6 7 7 7 7 9 8 10 11 13 14 14 14 15 13
3 3 4 5 5 4 5 5 4 5 6 7 7 6 7 7 7 6 6 6 6 5 5 4 4 5 5 6 7 5 6 7 6 6 7 8 9 10 12 12 10 11 14 14 13
3 3 4 4 5 4 5 5 5 7 7 7 5 6 7 7 6 6 5 5 6 5 5 4 3 6 7 6 7 6 7 6 6 6 7 7 8 11 11 13 14 10 9 10 10
3 3 4 4 4 5 5 5 5 6 7 6 6 7 6 7 6 5 5 6 6 5 5 5 5 5 5 5 6 6 5 7 7 5 5 5 9 11 13 13 12 9 9 9 8
2 3 4 5 2 4 5 5 7 6 6 6 6 7 7 7 7 5 5 7 7 6 5 6 5 5 6 6 7 7 6 7 7 4 6 7 9 11 9 9 9 8 9 8 7
1 4 4 3 3 3 5 6 7 5 6 6 6 7 7 6 7 6 6 8 8 7 6 5 5 6 6 6 5 5 5 5 7 8 7 7 9 10 11 8 10 8 8 7 7
1 3 4 3 4 5 5 6 6 7 7 6 6 6 6 6 7 6 6 8 8 8 8 6 5 6 7 8 6 6 6 5 6 7 8 8 10 11 11 9 8 8 7 7 7
2 3 3 3 4 6 6 6 6 6 6 6 5 5 5 6 6 7 6 7 8 9 7 6 6 6 6 6 6 6 6 6 6 8 8 9 8 9 11 10 9 8 7 7 7
4 5 5 6 5 5 5 6 7 7 6 5 6 6 5 6 7 6 7 7 9 7 7 6 6 5 6 8 7 7 7 7 8 9 9 9 10 11 10 10 8 8 8 7 7
4 5 6 6 6 6 6 6 7 7 6 6 5 5 6 6 7 7 7 7 7 8 7 6 6 7 8 7 8 8 8 8 8 9 9 8 10 11 10 10 9 8 8 8 8

GFSSW_850_temp_036.txt.gz
Temp
8 6 7 8 8 8 8 8 8 8 8 8 9 8 9 9 9 9 9 11 11 11 11 12 11 12 12 13 13 13 10 10 12 12 14 16 16 18 19 19 20 20 21 21 21
9 7 7 7 8 7 7 8 8 8 8 8 8 9 9 9 9 9 11 11 10 10 11 11 11 11 12 12 12 11 10 12 12 12 14 15 16 16 18 17 18 20 21 21 21
8 8 6 7 7 7 7 7 8 8 8 8 8 8 8 8 8 10 10 10 10 10 10 10 10 11 11 11 11 11 11 12 13 14 14 14 15 16 16 15 18 18 19 19 20
8 8 8 7 7 7 7 7 7 7 8 8 8 8 8 8 8 10 9 9 9 10 9 9 9 10 9 9 11 10 11 12 13 14 14 13 14 13 15 16 18 18 17 18 19
8 8 8 8 7 7 7 7 6 7 7 7 7 7 7 7 9 9 10 9 10 9 9 9 9 9 8 9 10 9 10 12 12 12 12 13 12 12 13 15 16 17 17 18 18
7 8 8 8 7 7 7 7 7 6 7 6 7 6 6 5 9 9 9 9 9 9 9 8 9 9 9 8 9 9 9 10 11 12 12 11 12 13 14 15 16 16 17 17 18
7 7 8 7 8 7 7 7 6 6 6 6 6 6 6 8 9 8 9 9 9 9 9 9 8 9 9 8 9 10 8 9 9 11 10 13 11 11 14 14 15 15 16 17 18
6 6 7 7 7 7 7 6 6 6 6 6 6 6 6 8 8 8 8 9 9 9 9 9 9 8 9 9 9 9 8 8 10 10 11 12 11 12 16 14 13 15 16 17 18
5 6 7 7 7 7 6 6 6 6 6 6 6 5 6 7 8 8 8 8 8 8 8 8 8 9 9 8 8 8 6 7 9 11 11 10 11 13 14 14 14 14 15 16 18
3 5 6 6 6 7 6 6 5 5 5 5 5 5 7 8 8 8 8 8 8 8 8 8 8 6 7 8 5 6 6 7 7 10 9 9 9 10 12 12 12 13 14 15 16
3 4 5 6 6 6 5 5 4 4 5 6 6 7 7 7 7 8 7 7 8 8 6 7 5 6 7 6 7 6 6 6 7 8 7 7 8 9 10 10 10 12 13 14 15
3 3 4 6 6 6 5 5 7 6 4 6 6 6 6 6 7 7 7 7 7 5 5 6 5 6 6 6 6 6 6 7 8 8 8 8 8 10 10 10 11 11 12 13 15
2 3 4 6 6 6 6 5 6 6 5 6 6 5 6 6 6 7 7 7 6 4 5 5 7 7 6 6 6 5 5 6 7 7 8 7 8 10 11 12 11 11 12 13 14
1 2 3 4 6 6 5 4 6 6 2 5 4 5 5 5 6 7 7 7 5 5 5 5 7 7 6 6 5 6 7 7 6 6 6 7 8 10 11 10 10 12 12 13 14
1 2 3 3 4 6 6 4 6 6 1 5 4 5 5 6 7 6 7 7 7 6 5 6 5 5 5 6 6 7 7 6 7 6 5 6 6 7 9 10 11 9 12 13 14
1 2 3 4 4 6 7 5 6 2 4 5 5 5 6 6 7 6 6 7 6 7 7 7 7 6 5 7 7 8 7 7 6 6 7 8 6 9 10 10 10 10 13 15 15
2 2 2 4 5 6 6 5 4 5 6 5 5 6 7 6 7 6 6 6 6 6 6 6 6 6 6 6 6 6 5 5 5 6 7 8 7 9 10 10 10 10 12 14 15
2 2 3 4 5 5 4 4 4 6 4 6 6 5 6 7 6 6 6 6 6 6 5 5 4 5 6 6 6 5 6 4 4 6 6 8 7 9 10 11 12 12 13 14 14
2 3 3 4 4 5 4 5 5 5 6 6 6 6 5 6 6 5 6 7 8 6 6 5 4 5 5 6 7 5 5 7 5 6 5 8 6 9 10 10 10 9 12 12 13
2 3 3 3 4 4 4 5 6 6 6 6 5 6 5 6 5 6 6 5 7 5 6 4 2 5 5 5 6 6 7 6 5 6 6 6 6 8 10 10 11 12 11 13 13
3 2 3 3 4 3 4 5 5 6 7 6 5 5 6 7 7 6 5 5 5 5 5 4 4 4 5 5 6 5 5 5 6 6 4 4 8 8 10 9 9 9 12 12 14
2 3 3 4 3 2 4 6 6 5 6 6 6 7 6 7 7 6 4 6 6 5 5 6 5 5 5 8 7 8 6 6 6 4 5 4 8 11 8 8 9 8 8 9 9
2 3 3 3 3 3 5 6 6 5 6 6 5 7 7 7 6 7 6 7 6 5 4 6 5 4 4 6 6 5 5 5 6 6 6 5 8 10 11 11 8 7 6 6 6
1 3 3 2 3 5 5 5 5 6 5 6 6 7 6 6 6 6 6 7 7 6 7 6 6 5 7 8 8 6 5 5 5 6 6 6 8 10 11 10 8 7 6 5 5
2 2 2 3 2 5 6 7 5 5 6 6 5 6 7 6 5 6 6 7 7 8 7 6 6 6 6 7 7 6 6 5 5 6 5 8 8 10 10 11 9 8 6 6 5
3 3 3 4 4 4 6 4 6 5 6 6 5 7 6 6 6 6 7 7 7 6 6 6 6 6 6 8 7 6 6 6 6 6 6 8 8 11 11 9 9 8 6 6 5
2 3 2 3 5 4 5 5 6 7 6 6 6 6 6 6 5 6 7 7 6 7 7 6 6 6 8 8 7 8 7 7 6 7 7 7 9 10 9 10 9 8 6 6 6

GFSSW_850_temp_039.txt.gz
Temp
8 8 8 7 7 7 8 7 7 8 8 9 9 8 9 9 9 9 10 11 11 11 11 11 11 12 12 12 12 13 12 13 13 13 15 16 16 17 18 18 19 19 20 20 20
8 8 8 7 7 7 7 7 7 7 8 8 9 9 8 9 9 9 11 11 10 10 10 10 11 11 12 12 12 12 11 13 13 13 15 15 15 16 17 16 17 18 19 19 20
7 8 8 8 7 7 7 7 7 7 7 8 8 9 8 8 8 9 10 10 10 10 9 10 10 11 11 11 11 10 12 12 13 13 13 13 14 15 15 15 17 18 19 18 18
7 7 8 7 7 7 7 7 7 7 7 7 8 8 8 7 8 9 10 10 10 10 9 9 9 10 9 10 10 10 10 11 12 13 13 13 14 13 14 16 16 17 18 18 17
6 7 7 7 7 7 7 7 7 7 7 7 7 7 7 7 8 9 9 9 10 9 9 9 9 9 9 9 9 9 10 11 11 11 12 12 12 13 13 15 15 16 16 17 17
5 6 7 7 7 7 8 7 7 7 6 7 7 7 7 5 9 9 9 9 9 9 9 9 9 9 9 8 9 9 9 9 10 10 11 12 12 12 14 14 15 15 16 17 17
3 5 6 7 7 7 7 8 7 6 6 6 6 6 6 8 8 9 9 9 9 8 8 8 9 9 9 8 9 9 9 9 9 10 10 11 11 11 13 13 14 15 15 16 17
2 3 5 6 6 6 7 7 7 6 6 6 5 5 6 8 8 8 9 9 9 9 9 9 8 8 8 9 9 9 9 9 10 10 10 12 11 13 13 13 13 13 14 15 17
2 2 4 5 6 6 6 6 6 6 6 6 5 5 6 7 7 8 8 8 8 8 8 8 8 8 8 8 7 8 7 7 9 10 11 11 11 12 12 12 11 12 12 13 14
2 3 3 5 5 6 6 5 5 5 5 5 5 5 6 7 7 8 8 8 8 8 8 8 8 7 8 8 7 6 6 6 8 9 8 9 9 10 11 11 12 12 12 13 14
2 2 3 3 5 6 6 4 4 4 5 6 6 6 7 7 7 7 7 7 8 8 6 7 7 6 7 7 7 6 6 7 8 9 8 8 9 10 10 10 10 11 12 12 13
2 2 2 3 4 5 6 5 7 8 4 6 6 6 6 6 7 7 7 7 7 5 5 5 6 7 6 6 6 6 6 7 8 8 8 8 8 9 10 11 11 11 11 11 13
1 2 2 3 3 4 6 5 7 7 6 5 6 5 6 6 6 6 7 6 5 4 5 5 7 7 6 6 6 6 6 7 7 7 8 7 9 11 12 11 11 10 11 11 12
1 1 1 2 3 4 5 6 7 6 2 5 4 5 5 6 6 7 7 7 5 5 4 5 6 6 5 6 6 6 7 7 6 6 6 7 8 11 12 12 13 12 11 11 11
1 1 1 1 2 3 4 5 6 6 2 5 4 5 5 6 7 6 7 7 6 6 5 5 5 5 5 6 6 7 7 7 6 6 5 7 6 11 9 10 11 11 12 13 13
1 2 1 2 2 3 4 4 5 4 1 5 5 5 5 6 7 6 6 7 6 7 6 6 6 6 6 6 7 7 6 7 6 6 6 8 7 10 11 12 12 12 12 13 13
1 1 2 2 2 4 4 4 4 4 6 5 5 6 7 6 7 7 6 6 6 6 5 6 7 7 7 6 6 6 6 6 5 6 7 8 7 10 11 10 11 11 11 13 14
0 1 2 2 3 3 4 3 5 6 5 7 6 6 6 7 7 6 6 6 6 6 5 6 5 6 7 7 8 6 7 6 4 5 7 7 8 10 10 11 11 11 11 13 13
1 3 2 3 3 4 3 5 5 6 6 6 6 6 5 7 6 6 6 6 7 6 6 5 5 5 5 5 7 6 5 7 5 6 6 8 9 10 12 11 10 11 12 11 13
2 2 3 4 3 4 3 5 5 6 6 6 5 5 5 6 5 5 5 5 7 7 7 6 5 4 5 5 5 5 7 5 5 6 6 7 7 9 9 11 10 9 10 10 11
2 2 3 3 3 2 4 4 5 6 7 6 5 5 5 5 5 5 5 6 6 5 6 5 5 4 5 4 5 5 5 5 5 6 7 8 9 9 10 10 9 9 8 9 9
1 2 3 3 2 0 4 5 6 5 6 6 6 6 6 6 6 7 6 5 6 4 5 5 5 3 4 6 6 7 7 6 6 6 6 7 8 12 9 8 9 9 9 9 8
1 1 4 4 3 3 4 5 5 6 6 6 5 6 7 6 6 7 7 7 5 4 4 5 5 5 4 6 6 5 6 7 5 5 6 6 9 11 11 9 9 9 7 7 6
1 2 2 3 2 4 4 4 5 6 5 6 6 7 6 6 7 6 7 7 6 5 6 7 5 4 5 8 9 5 6 4 5 6 7 6 8 9 10 10 9 9 7 6 5
2 1 2 3 3 5 5 6 5 5 5 6 5 6 7 6 6 6 7 6 6 6 7 5 5 6 6 7 7 6 6 6 5 6 6 9 7 8 10 9 9 9 7 6 4
2 2 2 4 3 5 5 6 6 5 5 5 5 6 6 6 7 6 6 6 7 6 6 6 6 6 6 7 8 6 7 6 6 6 5 6 7 9 9 9 8 8 7 7 4
1 2 1 4 4 4 5 5 6 6 6 6 6 6 6 6 6 7 6 7 6 7 6 7 6 6 7 8 8 9 8 6 6 6 7 6 8 8 8 9 9 9 7 7 4

GFSSW_850_temp_042.txt.gz
Temp
8 8 8 8 8 8 8 8 8 8 8 8 8 8 9 9 9 9 9 10 10 11 11 11 11 11 12 13 13 14 18 19 19 19 20 19 20 20 19 20 20 20 20 19 20
7 8 8 8 7 7 8 8 8 7 8 8 8 8 8 9 9 10 10 10 10 11 11 11 11 11 13 13 14 16 17 18 20 19 19 19 18 20 19 20 20 20 19 18 19
6 7 7 8 8 7 7 7 8 7 7 8 8 8 7 8 9 10 10 10 10 10 10 10 11 12 13 13 14 15 16 18 16 16 16 17 17 17 19 20 20 21 20 18 18
6 6 6 7 7 7 7 7 8 8 7 7 7 8 8 7 12 9 10 10 10 10 9 9 10 12 13 14 13 14 15 15 15 15 15 16 16 16 17 19 19 17 17 17 18
3 4 5 6 7 7 7 7 7 8 7 7 7 7 7 7 10 9 9 9 10 9 9 9 11 12 13 13 12 13 15 14 14 13 14 14 15 16 16 17 17 17 16 17 18
2 2 4 5 6 7 7 7 7 7 7 6 7 7 6 9 9 9 9 10 9 9 9 9 10 11 11 12 13 12 12 13 13 13 13 14 15 15 15 16 16 16 16 17 17
2 2 2 4 5 6 7 7 7 7 7 6 6 6 6 8 8 9 9 9 8 9 9 9 9 10 11 12 11 11 12 14 14 14 14 13 14 15 15 16 16 16 17 17 17
2 2 2 2 4 5 6 7 7 7 7 6 6 6 7 8 8 8 9 9 9 9 9 9 9 9 10 10 11 12 12 13 14 13 14 13 15 17 16 16 16 16 16 17 17
1 1 2 3 3 4 6 7 6 6 6 6 5 5 7 7 7 8 8 8 8 8 9 8 9 10 10 11 11 12 13 12 13 13 13 13 15 16 14 15 15 16 16 16 16
1 2 2 3 3 4 6 6 6 5 5 5 5 5 5 7 7 7 8 7 8 8 8 9 10 11 11 11 13 13 11 12 12 13 13 13 13 15 14 14 15 15 16 15 15
1 1 2 2 3 4 5 7 5 4 4 7 7 7 6 6 7 7 7 7 8 9 9 9 9 9 11 12 12 11 11 11 12 12 12 12 13 14 14 14 14 14 15 15 16
1 1 2 2 2 2 3 4 5 7 5 6 5 6 6 6 7 6 7 8 9 9 9 8 7 10 10 11 10 10 10 11 12 12 11 12 12 14 14 14 14 14 15 15 15
1 1 2 2 2 3 4 3 6 8 8 5 5 6 6 6 8 7 7 8 9 8 9 9 9 9 9 9 9 9 10 11 10 11 11 11 13 16 16 16 15 14 14 14 15
1 1 1 1 2 2 3 3 4 7 6 6 5 6 6 7 8 7 7 8 8 9 9 9 10 8 8 9 9 9 10 9 9 9 10 10 12 15 16 17 16 16 15 15 15
0 1 1 1 1 2 3 3 4 5 8 7 5 5 6 8 7 6 7 8 8 8 8 8 8 8 7 8 9 9 9 9 9 9 8 10 7 14 16 15 16 16 16 16 15
1 1 1 1 1 3 3 3 3 5 7 5 5 6 6 7 7 6 6 7 8 8 8 9 8 8 10 9 9 9 9 9 9 8 7 11 10 14 17 18 17 17 16 16 15
0 1 1 1 1 2 3 3 4 7 7 5 6 6 7 7 7 8 6 6 7 6 7 8 8 9 8 8 8 8 7 8 8 7 10 12 12 13 16 15 15 15 16 15 15
1 1 2 1 2 2 2 1 6 8 8 7 7 7 6 8 7 7 7 6 8 8 8 8 9 8 8 8 8 6 8 9 9 10 13 11 10 15 16 14 14 15 15 14 14
1 2 2 3 3 2 3 4 6 8 7 7 7 6 6 7 7 7 7 7 8 8 7 8 7 8 8 8 9 8 7 9 8 9 9 11 14 15 16 16 15 15 13 13 13
2 2 3 3 3 2 3 6 5 8 8 8 7 8 6 7 7 7 7 9 9 10 10 8 7 7 7 7 8 8 9 7 6 7 9 12 13 13 15 14 14 14 13 13 12
1 2 3 3 3 1 4 5 6 7 8 8 7 7 8 7 8 7 8 8 9 9 9 8 7 7 6 6 7 6 6 7 7 8 9 9 13 15 14 14 14 13 12 12 11
1 2 2 3 2 1 4 4 7 7 7 8 9 9 8 8 8 8 9 9 8 8 8 8 6 6 7 9 10 10 9 8 6 7 7 8 10 14 13 14 12 12 12 11 9
1 0 3 3 4 4 4 5 7 7 7 8 8 9 9 8 8 9 9 9 7 8 8 8 5 7 9 8 8 7 8 8 6 6 7 8 11 13 13 12 12 12 12 11 9
1 2 2 2 3 6 5 5 6 6 7 7 8 9 9 8 8 7 8 8 7 8 7 8 7 7 9 11 10 6 7 6 5 6 9 9 10 12 13 12 13 12 11 10 8
-0 1 2 4 4 6 7 7 7 6 7 7 7 8 9 8 8 7 8 8 7 6 7 7 6 7 7 8 9 8 7 6 6 6 6 10 11 12 12 11 11 11 11 9 7
0 1 2 4 5 6 7 7 8 6 8 7 8 8 8 8 9 8 8 7 8 8 7 6 7 7 6 9 9 7 9 7 8 7 6 6 8 11 12 11 11 11 9 8 7
1 1 1 4 5 6 6 8 8 8 7 8 8 8 7 8 9 9 7 7 7 8 7 7 6 6 7 10 10 11 9 8 8 7 8 7 9 11 11 10 10 10 9 9 6

GFSSW_850_temp_045.txt.gz
Temp
7 7 7 8 8 8 7 8 8 8 8 8 8 9 8 8 9 9 9 11 11 11 11 11 12 13 13 15 16 16 19 20 21 22 23 23 22 22 22 22 22 23 23 21 20
6 6 6 7 7 8 7 7 8 8 8 8 8 8 8 8 9 9 10 10 11 11 10 12 13 13 14 15 15 17 18 20 23 24 23 22 21 22 21 21 22 22 22 20 19
3 5 5 6 7 7 7 7 7 8 7 8 8 8 8 8 9 10 10 10 10 10 11 12 13 14 15 15 16 17 17 21 21 19 19 20 21 20 21 21 23 23 23 21 20
2 3 5 5 6 6 7 7 7 7 7 8 8 8 8 8 12 10 10 10 10 10 10 11 13 14 15 16 16 16 18 19 20 18 17 18 18 20 20 20 21 22 21 20 20
2 2 3 4 4 5 6 7 7 7 7 7 7 7 7 8 11 10 9 10 10 10 10 11 12 14 15 17 16 16 17 18 17 16 16 16 17 18 19 19 19 20 20 19 19
2 2 2 2 4 5 5 7 7 7 7 7 7 7 7 10 9 10 9 9 10 10 10 10 11 13 14 15 15 16 16 16 16 16 16 16 16 16 17 18 18 18 19 19 19
2 2 2 2 3 4 4 6 7 6 7 6 7 7 7 10 9 8 9 9 9 11 10 10 11 11 13 13 13 14 14 16 16 16 16 16 15 16 17 17 18 18 19 19 19
2 2 2 2 3 3 4 5 6 6 7 6 6 6 8 8 8 8 8 9 9 10 11 10 10 11 13 12 13 13 15 15 18 17 17 15 16 20 19 18 18 18 18 19 19
1 1 1 2 2 3 3 5 6 7 6 6 6 6 9 7 7 8 9 9 10 10 9 9 10 11 12 13 14 14 15 16 18 17 16 15 16 20 18 17 18 18 19 19 19
1 1 1 2 2 3 3 4 6 6 5 6 6 6 7 8 8 8 8 9 10 10 10 10 11 12 13 13 14 16 15 16 16 17 15 15 16 17 17 17 17 17 18 18 18
1 1 1 2 2 3 3 4 5 5 6 7 7 9 8 7 7 7 8 9 10 10 11 11 11 11 14 14 15 13 14 15 16 16 15 15 15 17 17 17 17 17 17 17 18
1 1 1 1 2 3 2 2 2 4 5 7 7 8 8 8 8 8 8 10 10 10 12 9 9 13 14 14 13 13 13 14 15 15 13 14 15 16 17 17 17 17 17 17 17
0 1 1 1 2 3 2 2 4 4 5 7 7 8 7 7 9 8 8 10 11 11 11 10 12 12 12 11 11 12 12 13 13 14 14 14 15 18 19 18 17 17 17 17 17
0 1 1 1 2 2 2 3 3 3 5 6 7 7 7 8 9 8 9 10 11 11 11 11 12 11 11 11 12 11 13 12 12 11 12 13 13 16 18 19 19 18 18 17 17
1 1 1 1 1 1 3 2 2 2 8 8 7 8 8 9 9 8 9 9 10 11 10 10 10 10 10 11 11 11 11 11 11 10 9 11 10 15 19 19 19 20 19 18 18
0 1 1 1 1 2 2 2 2 3 8 6 5 7 7 9 9 8 8 8 10 10 10 11 10 11 11 11 11 10 10 10 10 9 8 12 13 15 18 20 19 21 19 18 17
1 1 0 1 1 1 2 2 3 5 7 5 6 7 8 8 8 8 7 7 8 7 7 9 10 10 11 10 10 9 9 9 9 8 10 15 14 15 18 18 18 18 18 18 17
0 1 2 2 2 1 2 2 5 6 8 9 7 7 7 8 8 9 8 6 9 10 10 8 9 10 9 9 9 9 9 10 10 13 14 15 12 15 19 17 17 17 16 17 16
1 2 1 2 1 2 2 3 6 7 8 8 7 6 7 8 8 8 9 8 10 10 9 10 9 10 10 10 10 8 7 10 8 10 9 13 16 18 18 18 18 17 16 15 15
1 1 3 2 2 2 3 5 4 9 9 9 8 8 7 8 8 9 8 10 9 11 12 11 8 10 10 9 10 10 11 7 7 7 10 15 16 16 17 18 17 16 16 15 15
1 1 2 2 2 2 4 5 5 9 10 10 9 9 9 8 9 9 9 10 11 11 10 10 9 8 8 7 9 8 8 8 10 10 11 12 15 18 16 16 15 16 16 14 14
1 2 2 2 3 2 5 5 6 8 8 10 11 10 10 10 9 10 10 11 11 11 9 10 8 7 8 10 11 11 9 9 7 10 9 9 11 15 15 15 15 15 14 14 13
1 0 2 2 4 4 6 5 6 8 9 10 9 11 12 10 9 11 11 10 10 11 10 9 7 7 9 9 10 9 10 10 8 8 7 8 11 16 16 15 14 14 13 13 13
1 3 2 2 4 5 5 5 6 7 8 10 10 11 11 10 11 10 10 9 9 10 8 10 8 7 10 11 10 6 8 9 5 7 9 9 11 13 14 14 14 14 13 13 12
0 2 2 4 6 5 7 5 7 8 9 10 9 11 11 10 10 10 10 8 8 8 8 8 6 8 8 9 10 9 9 10 7 6 6 9 9 11 11 12 12 12 12 12 11
1 1 1 6 7 6 7 6 8 7 9 9 10 11 11 11 11 10 10 9 9 8 8 7 7 8 6 9 10 10 12 12 10 8 8 7 7 10 11 12 11 11 12 9 8
1 1 1 5 8 9 9 10 10 9 9 10 10 10 10 10 10 10 10 10 9 9 7 7 5 6 8 11 12 11 11 10 8 8 8 8 11 12 11 9 7 7 7 8 8

GFSSW_850_temp_048.txt.gz
Temp
4 5 5 6 7 7 8 8 8 8 8 8 8 8 9 8 9 9 8 10 11 11 12 11 12 12 13 14 16 17 16 16 17 19 20 24 23 23 23 22 23 23 23 21 20
3 3 3 5 5 6 7 8 8 8 8 8 8 8 9 8 8 9 10 10 10 11 11 12 12 13 14 14 16 16 14 16 19 20 20 21 23 22 22 22 22 22 23 21 21
3 2 2 3 4 5 6 7 7 7 7 8 8 8 8 8 8 9 10 10 10 11 11 11 13 14 14 15 16 16 14 18 19 20 19 19 19 21 20 20 22 22 23 22 21
2 3 2 2 3 4 5 6 7 7 7 8 8 8 8 8 10 11 11 11 11 11 11 11 13 14 14 14 16 15 17 17 18 19 18 17 19 18 20 20 20 21 21 21 20
2 2 2 2 2 2 3 4 6 7 7 7 8 7 8 7 9 10 11 11 10 10 10 11 13 13 14 15 16 15 16 17 18 18 17 17 17 16 17 19 20 20 20 20 20
2 2 2 2 2 2 2 3 5 6 7 7 7 7 7 8 10 9 10 9 10 10 11 11 12 13 12 14 15 17 16 16 16 17 17 16 16 16 17 17 18 18 19 19 19
3 3 2 2 2 2 2 3 4 6 7 6 7 7 6 8 9 9 10 10 10 10 10 11 11 11 12 14 14 14 13 14 15 15 15 16 14 15 16 16 17 18 18 18 19
2 3 2 2 1 1 3 3 4 5 6 6 6 6 7 8 9 9 9 10 10 11 11 11 11 11 11 12 13 13 13 12 16 16 16 15 13 16 17 17 17 17 18 18 19
2 2 2 2 1 1 2 3 3 4 6 6 5 6 8 8 9 9 9 10 11 11 11 11 10 11 12 12 11 12 12 13 15 16 17 15 14 16 18 18 18 18 18 19 19
1 2 2 1 1 2 2 2 4 4 5 6 6 6 7 8 8 8 9 10 11 10 9 10 11 10 11 10 11 13 12 13 14 15 15 13 14 15 17 17 17 18 18 19 19
1 2 1 1 2 2 2 2 4 5 5 6 6 9 8 9 8 8 9 10 11 10 10 11 10 10 11 12 13 13 13 12 15 16 14 14 14 14 16 16 16 17 17 17 17
1 1 1 1 2 2 2 2 2 2 4 6 6 9 8 8 8 8 9 10 11 10 11 10 8 12 14 14 13 13 12 12 14 15 14 12 13 14 15 15 16 16 17 17 17
1 1 1 1 2 2 2 2 2 2 1 5 6 9 8 9 9 8 9 10 10 10 10 10 11 12 12 12 11 12 11 12 12 13 12 12 12 13 16 15 16 16 16 17 17
1 1 0 1 1 2 2 2 2 2 3 5 6 8 8 9 10 9 9 11 11 10 11 10 12 11 11 11 11 11 12 12 12 11 9 10 8 12 14 15 16 17 18 17 17
1 1 1 1 1 1 2 2 2 2 5 6 6 7 8 10 9 8 9 10 11 11 11 9 11 10 10 11 12 11 11 11 11 9 7 10 7 10 16 15 17 16 18 18 18
0 1 1 1 1 2 2 2 1 3 5 5 6 7 8 10 10 8 9 9 10 11 11 11 11 11 11 11 11 10 10 10 9 8 7 8 9 10 15 16 15 16 19 19 18
0 1 1 1 1 2 2 2 3 4 4 6 6 8 8 8 9 9 8 7 7 6 7 9 9 10 11 10 10 10 9 6 7 6 6 13 10 11 15 16 16 16 18 18 17
1 1 2 2 2 1 2 2 4 7 5 6 7 8 8 8 8 8 7 7 9 9 8 8 8 9 10 10 9 8 8 6 8 7 9 11 10 12 15 16 17 17 17 17 17
1 1 2 2 2 1 2 3 6 5 6 6 7 6 7 8 8 7 7 8 9 9 9 8 9 11 10 10 10 9 7 9 7 8 5 9 12 14 16 15 15 16 16 16 16
1 1 2 2 2 2 3 5 4 3 7 8 7 8 7 7 8 8 8 9 9 10 11 10 8 10 10 10 10 9 10 6 4 3 6 10 11 12 15 14 14 14 15 16 16
1 1 2 3 2 2 3 4 4 5 9 9 9 9 9 8 9 9 9 10 11 10 10 10 9 8 8 7 7 8 8 8 7 6 5 6 10 14 13 13 12 12 14 14 14
1 1 2 3 2 2 4 5 4 6 9 11 11 10 9 10 9 10 9 11 11 11 9 10 8 6 7 9 9 10 8 8 4 5 5 4 8 13 12 14 14 12 14 14 14
1 1 2 2 3 2 5 5 4 5 9 10 11 11 11 10 8 11 10 11 11 11 9 9 7 6 8 8 10 8 9 9 8 6 6 6 8 14 13 12 13 13 13 13 13
1 2 2 2 2 5 5 4 5 7 9 11 11 11 10 10 11 10 9 10 10 11 10 10 8 5 6 8 8 5 7 8 7 6 8 8 8 10 11 11 10 10 11 12 12
1 2 2 4 4 6 6 5 6 8 9 10 10 11 11 10 10 10 9 8 9 8 9 8 6 7 7 8 9 8 8 7 7 6 6 8 9 10 9 9 9 9 8 8 10
1 0 1 3 4 6 7 5 7 8 9 10 10 11 12 11 11 10 10 9 8 8 8 8 5 6 5 8 8 7 8 9 9 9 7 8 8 9 10 11 10 9 8 7 7
1 1 1 5 5 6 7 6 8 9 9 11 10 10 10 9 10 10 10 11 10 8 8 7 6 5 7 9 10 9 10 10 9 9 8 8 9 10 9 11 7 6 6 7 7

GFSSW_850_temp_051.txt.gz
Temp
3 3 3 4 4 5 5 6 7 8 8 8 8 8 8 8 8 8 9 11 10 11 11 12 12 12 13 13 14 15 12 11 14 15 17 21 18 22 22 23 23 23 22 21 20
3 3 3 3 3 3 4 5 6 7 7 8 8 8 8 8 8 8 10 10 10 11 11 11 11 12 12 13 14 13 11 13 16 16 17 19 18 19 21 21 21 22 21 20 21
3 3 3 3 3 3 3 4 5 6 8 8 8 8 8 8 7 10 12 11 10 10 11 11 12 12 12 13 14 14 11 15 16 18 18 17 18 19 19 19 21 21 21 21 21
3 3 3 3 2 2 2 3 3 5 7 7 8 8 7 7 8 10 11 11 10 10 11 11 11 12 12 12 14 12 14 15 16 16 17 17 17 16 17 18 19 20 21 20 20
3 2 2 2 2 2 2 2 3 4 6 7 7 8 7 6 8 10 11 10 10 10 11 11 11 12 12 12 13 12 13 15 16 16 16 17 16 15 16 17 19 19 19 19 20
3 3 3 2 2 2 2 2 2 3 5 6 7 7 6 6 10 10 10 11 10 10 11 11 12 13 13 12 13 14 15 14 15 15 15 15 15 16 16 18 18 18 19 18 18
3 2 2 3 2 2 2 2 2 3 4 6 6 6 5 8 9 9 10 11 10 10 10 11 11 12 12 13 13 14 12 12 13 14 13 15 13 13 16 16 16 16 17 18 18
2 2 2 2 3 2 1 1 2 3 4 5 6 5 5 8 9 9 10 10 10 10 11 11 10 11 12 12 13 12 12 10 13 14 14 14 12 14 16 15 15 16 16 17 18
2 2 2 2 2 1 1 2 2 3 4 4 5 5 6 8 8 9 10 10 11 11 11 11 10 11 11 11 11 11 9 9 11 14 14 13 13 14 15 15 14 15 15 16 17
1 2 2 2 2 2 2 2 3 3 4 4 5 4 6 7 8 8 10 10 10 11 10 10 10 10 9 9 9 10 9 11 11 14 14 13 11 12 16 15 15 16 16 17 17
1 1 1 2 2 2 2 2 3 2 3 6 6 6 9 8 8 8 10 10 10 10 9 10 9 8 8 9 10 10 11 11 12 13 13 11 11 12 13 14 14 15 15 17 17
1 1 1 1 2 2 2 2 2 2 2 5 5 8 9 8 8 9 10 10 10 9 10 9 8 10 10 10 10 10 10 10 11 13 12 10 11 12 13 13 14 14 14 16 16
1 1 1 1 2 2 1 1 2 2 2 3 5 6 8 8 8 8 9 10 9 9 9 8 10 11 10 10 11 11 10 10 10 11 11 9 10 11 12 13 14 14 15 15 16
1 1 1 1 2 2 2 1 1 3 3 4 5 5 7 9 8 8 9 10 10 9 10 10 11 11 9 10 10 9 10 11 10 9 8 9 7 7 11 13 14 14 14 15 15
0 0 1 1 1 1 1 1 1 1 3 6 5 6 8 8 8 8 9 10 9 10 9 8 10 10 9 10 11 9 10 9 9 7 6 7 6 8 9 14 14 15 15 17 17
0 1 1 1 1 1 1 1 1 2 3 5 5 7 7 8 9 8 9 10 11 10 9 9 11 10 9 10 10 10 9 9 8 6 4 6 7 8 11 13 15 13 16 17 17
1 1 1 1 2 1 1 2 -0 -0 3 5 5 7 8 8 7 8 8 7 7 6 6 8 9 10 10 9 10 9 7 3 7 6 5 8 7 7 11 13 13 12 16 17 17
1 1 2 2 2 1 1 2 1 5 4 5 7 8 7 8 7 8 7 6 7 8 4 5 5 8 9 8 7 7 7 3 5 4 7 8 7 10 12 13 15 16 17 17 17
1 2 2 2 2 1 1 2 3 4 4 5 6 6 6 7 7 7 7 7 7 7 6 5 7 9 9 9 8 8 6 7 5 5 2 6 8 10 12 11 12 14 15 15 16
1 2 2 2 2 1 1 3 4 3 2 6 6 7 6 7 7 7 7 8 9 8 9 9 7 9 9 10 9 8 8 4 1 2 4 6 8 10 12 11 11 10 12 14 14
1 2 2 2 2 2 1 3 4 2 4 6 7 7 7 7 7 7 7 8 8 8 9 10 7 6 8 7 7 7 7 7 5 3 3 4 7 10 12 12 12 11 12 12 12
1 1 1 2 1 1 3 5 1 4 5 7 8 8 7 8 7 9 7 9 10 9 8 9 7 5 5 7 8 7 7 7 1 3 1 4 6 10 11 11 10 11 11 11 11
1 2 2 2 1 2 4 3 2 6 7 10 10 10 9 9 8 9 9 10 10 10 9 8 7 6 7 8 8 6 8 7 6 3 1 4 6 11 9 10 11 10 9 9 9
1 1 2 3 2 3 4 3 4 6 7 10 10 10 10 9 8 8 8 9 10 10 10 10 7 3 4 6 6 5 7 6 6 3 6 5 7 9 10 10 10 9 9 9 9
2 2 1 3 3 4 4 4 5 7 8 10 9 10 10 9 9 8 8 7 8 9 8 7 3 5 6 6 7 6 6 6 4 6 6 8 8 9 10 9 9 9 9 9 8
1 1 1 2 4 5 4 5 6 8 7 9 9 10 9 9 9 8 7 7 7 7 7 6 3 6 3 6 7 6 7 7 7 7 8 8 8 9 10 10 10 6 6 6 6
1 1 1 3 5 4 4 5 7 8 9 9 9 8 7 7 8 9 10 9 7 6 7 6 5 4 4 8 8 6 8 7 7 8 9 8 9 10 9 9 5 5 5 5 6

GFSSW_850_temp_054.txt.gz
Temp
3 3 3 3 3 3 3 3 4 5 7 8 8 8 8 8 8 8 7 11 11 11 11 11 11 12 12 12 13 14 10 10 13 13 15 18 18 20 21 21 22 22 22 23 21
3 3 3 3 3 3 3 3 3 4 6 7 7 8 8 7 7 8 11 10 11 11 11 11 11 12 12 12 13 12 9 11 14 15 16 17 18 18 19 20 21 21 21 21 20
3 3 3 3 3 3 3 3 3 3 5 6 7 7 7 7 6 10 12 11 11 10 11 11 11 11 11 12 13 12 10 13 15 16 16 16 16 17 17 18 19 19 20 20 20
3 3 4 4 3 3 3 2 2 3 3 5 6 7 6 6 7 10 10 11 10 10 10 10 11 11 10 11 13 12 13 15 15 16 15 15 17 16 17 18 18 17 18 19 19
4 3 3 3 3 3 2 2 2 2 2 3 5 7 6 5 8 11 10 11 10 10 10 10 10 11 10 11 12 11 13 14 15 15 14 15 15 15 16 18 19 18 17 18 19
3 3 3 3 3 3 2 2 2 2 2 3 5 6 5 5 10 11 10 10 10 10 10 10 11 11 12 12 11 13 13 13 14 14 14 14 14 15 15 17 18 18 19 18 18
2 2 2 2 2 2 2 2 2 2 2 3 4 5 5 6 9 9 10 11 10 10 10 11 11 12 13 12 13 13 13 12 12 14 13 14 13 12 16 16 16 18 19 19 18
2 2 2 2 2 2 2 1 2 2 3 4 4 4 5 8 9 9 9 10 10 10 10 11 10 11 11 12 12 11 11 11 13 13 14 14 13 13 16 16 16 16 17 17 18
2 2 2 2 2 2 2 2 2 3 3 3 3 3 5 7 8 9 9 10 10 10 10 10 10 9 10 10 11 10 9 10 11 13 13 11 12 13 16 15 15 15 16 16 17
1 1 1 2 2 2 2 2 3 3 3 3 3 4 5 7 9 9 9 9 10 10 10 9 9 9 8 10 9 9 9 9 10 12 12 11 10 11 14 14 14 15 15 16 16
1 1 1 1 1 1 1 2 3 3 2 3 4 5 6 7 8 9 9 9 10 10 9 9 9 9 8 10 10 10 10 10 11 12 11 10 10 10 12 13 13 13 15 16 17
1 1 1 1 1 2 1 1 1 1 1 3 3 5 6 7 8 8 9 9 9 9 8 9 9 10 10 9 9 9 9 8 10 11 11 9 9 10 12 12 13 14 14 14 15
1 1 0 1 1 2 1 2 1 1 2 3 4 3 5 8 8 8 8 9 9 9 8 8 10 10 10 10 9 9 9 9 10 10 10 8 11 11 11 12 13 13 14 14 15
1 1 0 1 1 1 2 1 1 1 2 4 3 3 5 8 8 8 9 10 9 9 9 10 10 11 10 9 9 9 10 10 9 9 7 8 7 7 10 9 11 13 13 14 14
1 1 1 1 1 1 1 1 1 1 -1 5 3 4 6 8 8 8 9 10 9 9 9 7 9 9 9 9 10 9 9 9 8 6 5 7 6 8 9 12 14 14 14 16 17
1 1 1 1 1 1 1 1 1 -1 0 4 4 5 7 8 8 9 9 10 10 10 9 9 10 10 9 9 10 9 8 7 6 4 2 6 7 8 10 12 14 13 15 16 17
1 1 1 2 1 1 1 1 -1 1 3 4 4 5 7 7 7 8 8 8 7 6 6 8 8 9 10 8 9 8 5 1 2 2 4 7 5 7 9 10 11 11 14 15 15
1 1 2 2 1 1 1 1 1 3 3 2 6 7 7 7 8 8 7 6 7 6 5 6 6 8 9 8 7 7 6 3 4 5 5 7 7 9 10 11 12 13 13 13 13
2 2 2 2 1 2 1 0 2 3 3 4 6 6 6 7 7 7 8 6 7 7 6 5 6 8 8 9 8 7 5 6 3 3 1 5 6 9 10 9 10 10 12 12 12
2 2 1 1 2 2 1 3 3 3 1 5 6 6 6 5 6 7 7 7 8 7 8 7 5 9 9 9 9 7 7 4 -0 2 3 5 6 8 12 11 10 8 10 12 12
3 2 1 1 2 2 1 2 3 2 1 5 6 6 6 6 6 7 7 7 8 8 9 9 5 6 8 7 6 6 6 4 3 2 2 3 7 8 10 11 9 8 10 10 10
2 1 2 2 1 1 2 3 1 2 5 6 7 7 7 6 7 7 6 7 9 8 7 8 5 5 6 7 7 7 6 5 1 2 -1 4 5 9 8 9 9 10 10 10 10
2 2 2 2 2 2 3 3 2 4 6 8 8 8 8 7 7 7 7 9 9 8 7 8 6 4 5 7 7 6 6 6 4 2 0 2 6 9 8 11 11 10 9 9 9
2 0 2 3 2 3 3 3 5 6 6 9 8 9 8 8 8 7 8 8 9 9 10 9 6 3 4 5 5 3 5 5 5 2 3 3 6 9 9 10 10 10 9 9 9
1 1 1 3 3 3 4 5 7 7 8 8 8 8 9 7 7 7 7 8 8 9 8 7 4 4 5 6 6 6 5 5 4 6 4 7 6 8 10 10 10 9 7 6 6
1 1 1 2 4 4 4 5 6 7 7 8 7 9 8 8 8 7 6 6 7 7 7 6 3 6 3 5 6 5 6 5 6 6 6 7 7 10 10 9 9 5 5 5 5
1 1 1 3 4 4 4 5 6 7 8 8 8 7 7 7 7 8 9 8 7 6 5 6 4 4 4 6 7 5 6 6 6 6 8 7 9 10 10 9 5 4 4 4 3

GFSSW_850_temp_057.txt.gz
Temp
4 3 3 3 3 3 3 3 3 3 4 5 7 7 7 7 7 7 7 11 11 10 10 11 11 11 11 11 13 13 9 9 12 12 14 16 17 19 19 19 20 20 22 22 22
3 3 3 3 3 3 3 3 3 3 3 5 6 7 7 7 6 6 11 11 11 10 9 10 11 11 10 11 13 11 8 10 12 13 15 16 16 17 18 17 19 20 21 20 20
3 3 4 4 3 4 3 3 3 3 3 3 6 7 7 7 5 9 12 11 11 10 9 10 11 11 10 11 12 11 9 12 14 15 15 15 15 17 16 16 17 18 18 17 18
3 4 4 4 3 3 3 3 3 3 3 2 4 6 6 6 6 10 9 10 11 10 9 10 10 10 10 10 12 11 11 13 14 15 15 14 15 15 16 17 18 18 18 17 17
3 3 3 3 3 3 3 3 3 2 3 2 2 5 5 5 7 10 10 10 11 9 9 10 9 10 9 10 11 11 12 13 14 15 14 14 14 14 15 17 17 18 18 18 18
3 3 3 3 3 3 2 3 2 2 2 2 2 3 4 5 9 10 10 9 11 9 9 10 10 11 11 10 11 12 12 13 14 14 14 13 13 14 15 17 17 17 17 18 18
3 2 2 2 2 2 2 2 2 2 2 2 2 3 4 6 8 9 10 10 10 9 9 10 11 11 11 11 12 13 12 12 12 13 12 14 12 10 15 16 16 17 16 17 17
2 2 2 2 2 2 2 2 1 2 1 2 2 2 4 6 7 9 9 9 9 10 10 11 10 11 11 12 11 11 11 10 12 12 13 14 12 13 16 16 16 16 17 17 17
1 2 2 2 1 1 2 2 2 3 2 2 2 2 4 7 7 9 8 9 9 9 10 10 10 10 11 10 9 9 8 9 11 12 13 11 11 13 15 15 14 15 16 17 17
1 1 1 1 2 2 2 2 3 3 2 2 2 2 3 6 7 8 8 9 9 9 8 9 9 9 9 10 10 8 9 9 10 12 11 10 9 11 14 13 13 14 15 15 16
1 1 2 1 1 2 1 2 3 3 1 2 3 4 6 6 7 8 8 9 9 9 9 9 8 9 9 10 10 9 9 10 10 11 11 10 9 10 11 11 11 13 14 15 16
1 1 1 1 0 1 2 1 1 1 1 3 4 2 3 5 6 7 8 8 9 9 8 9 9 9 9 9 9 9 9 9 9 10 11 9 8 10 11 12 13 13 14 14 15
1 1 1 1 1 2 1 1 1 1 1 3 2 3 3 5 7 7 8 8 9 8 9 9 9 10 9 8 9 8 8 9 9 9 8 7 9 10 11 12 12 13 14 14 14
0 1 1 1 1 1 1 1 1 1 1 3 3 3 3 5 7 8 8 9 8 8 8 9 10 10 9 9 8 8 9 9 9 8 7 7 7 7 10 9 9 12 14 14 14
1 1 2 0 1 1 1 0 0 1 -3 4 2 2 3 6 7 7 9 9 8 9 8 8 9 9 9 9 9 9 9 8 7 6 6 6 6 8 9 12 12 11 13 13 13
1 1 1 2 1 1 1 0 1 -2 1 3 3 2 3 7 8 8 9 9 10 9 9 8 10 10 9 9 9 8 7 6 4 4 3 6 7 8 10 12 11 11 11 12 13
1 2 2 2 1 1 1 1 -1 -2 3 4 3 2 6 7 7 7 7 8 7 6 6 8 8 9 9 8 8 7 6 3 3 2 5 6 6 7 9 9 10 9 10 12 12
2 1 2 2 1 1 2 -1 1 3 3 2 3 4 6 7 7 6 7 6 7 6 6 5 7 8 8 8 7 7 6 4 5 3 5 5 6 8 9 9 10 10 11 12 13
2 2 2 1 1 1 2 0 2 3 2 2 5 6 6 7 7 6 7 7 7 7 6 5 5 8 8 8 8 6 4 6 3 2 1 5 6 8 10 9 8 9 10 11 11
3 2 1 1 1 2 1 2 3 2 1 2 6 6 6 6 6 6 7 8 7 7 8 6 5 8 8 9 8 7 6 4 -0 3 5 6 5 8 10 10 8 7 9 11 11
3 2 2 2 2 2 1 2 2 1 2 6 6 6 5 6 6 7 7 7 8 7 8 6 5 6 8 7 6 5 4 3 3 2 3 4 8 6 9 9 8 7 10 10 10
2 -1 2 2 1 0 2 2 1 3 5 5 8 7 6 7 7 7 7 7 8 7 7 8 5 6 7 7 7 6 6 4 2 2 -1 3 5 8 8 7 9 9 10 10 10
2 2 2 2 1 2 3 3 3 4 6 7 7 8 8 7 7 7 7 8 8 7 7 8 4 2 6 7 7 6 6 4 3 0 -1 1 5 7 5 7 9 10 10 9 8
2 -0 2 3 2 3 3 4 5 4 4 7 7 8 7 7 6 7 7 7 8 9 9 8 5 3 4 6 4 2 5 4 5 2 2 3 5 7 8 8 10 10 8 7 7
1 1 1 3 3 4 5 6 6 6 7 7 8 8 8 7 7 6 7 7 7 8 7 6 4 4 5 6 6 5 5 4 4 5 3 5 5 7 9 9 10 8 7 6 5
2 1 1 2 4 5 5 5 7 6 6 6 6 6 6 8 8 6 6 7 7 7 7 5 3 4 3 5 5 5 5 5 5 6 5 6 6 9 9 10 10 6 5 4 4
1 1 1 3 2 4 4 5 6 6 8 7 7 7 6 5 7 8 8 7 7 6 5 6 3 4 2 5 6 5 5 5 6 5 7 6 8 10 10 9 7 5 3 3 3

GFSSW_850_temp_060.txt.gz
Temp
4 4 4 4 4 4 4 4 3 3 3 3 6 6 7 7 7 7 6 10 10 10 9 11 10 10 10 10 12 12 9 8 11 12 14 16 16 17 18 18 19 20 20 21 21
3 3 3 4 5 4 4 4 3 3 3 3 3 5 7 7 7 7 10 10 10 10 9 9 10 10 9 10 12 10 8 10 12 12 14 15 16 16 17 16 18 19 18 20 20
3 3 3 4 4 3 4 4 4 4 3 3 3 3 4 5 6 7 10 10 11 10 8 9 10 10 10 10 11 10 9 12 13 14 15 14 15 16 15 16 17 17 17 17 18
4 3 4 3 3 3 4 4 3 3 3 3 3 3 3 4 7 10 9 8 11 10 8 9 9 10 9 9 11 10 11 12 14 14 14 14 15 14 15 16 17 17 17 16 15
3 3 3 3 3 3 3 3 3 3 3 3 3 2 3 5 6 9 10 9 9 9 8 9 9 10 10 10 10 10 11 12 14 14 13 14 13 13 14 16 16 17 17 17 16
3 3 2 2 2 2 2 2 2 2 2 3 3 2 2 4 6 9 9 9 9 8 8 9 10 10 10 10 10 11 12 12 13 13 13 13 12 13 14 16 16 16 17 17 17
2 2 2 2 1 1 1 2 2 2 2 2 2 2 2 3 6 7 8 9 10 9 9 9 10 11 10 10 11 12 11 11 11 12 12 13 11 10 14 15 15 16 16 17 17
2 2 2 2 2 2 1 1 1 2 2 2 2 2 2 4 7 7 7 9 9 9 9 10 9 11 11 11 10 10 11 10 12 11 12 14 11 13 15 14 15 16 16 16 17
2 2 2 1 1 1 2 2 2 2 2 2 2 2 2 4 5 8 7 8 9 8 9 10 10 10 10 9 9 10 8 8 11 11 12 11 11 12 13 13 13 15 16 16 16
2 1 2 1 2 2 2 2 3 3 3 2 2 1 3 5 6 7 7 8 8 8 8 8 8 9 9 10 9 9 10 8 9 11 11 10 8 10 13 13 12 14 15 15 15
1 1 1 1 1 1 1 2 2 2 2 2 2 2 4 5 6 7 8 8 8 9 9 8 8 9 10 10 9 8 8 9 9 11 11 9 8 9 11 11 10 13 14 15 16
1 1 1 1 2 2 2 1 1 1 1 2 3 2 3 2 5 6 7 8 8 8 9 7 6 9 11 10 10 10 9 9 9 10 10 8 7 9 11 11 12 13 14 14 15
1 0 0 0 1 1 2 1 1 1 0 2 3 2 3 2 4 6 7 8 8 9 9 9 7 9 9 8 8 8 8 8 9 9 8 6 8 9 11 11 12 12 13 13 12
1 0 1 1 0 2 1 0 1 1 1 2 3 3 3 2 6 7 7 9 9 9 8 8 8 8 8 8 7 6 8 9 9 8 8 7 7 8 9 9 9 10 11 11 12
2 2 1 2 1 0 0 0 0 0 -1 4 2 2 3 3 5 6 8 9 8 8 8 7 8 9 8 9 8 8 8 8 7 5 6 7 7 8 9 11 9 7 9 10 11
2 2 2 2 1 1 1 0 0 0 1 3 3 2 3 3 6 5 9 9 9 8 8 8 9 9 9 8 9 7 6 5 4 4 2 6 7 8 10 10 9 8 9 10 12
2 2 2 2 1 1 1 1 -0 1 2 2 2 2 2 6 6 7 7 7 7 7 6 7 7 8 9 7 8 7 6 2 3 2 4 5 6 7 8 8 9 9 9 10 11
2 2 2 1 1 1 2 -1 0 3 3 2 4 3 5 6 6 6 6 6 6 6 5 5 6 8 8 8 7 6 7 4 5 4 6 5 5 8 8 7 9 9 9 11 11
3 3 1 1 2 1 1 1 2 2 2 3 3 5 6 6 6 5 6 6 6 7 7 5 5 8 8 8 8 6 3 5 2 2 1 5 5 7 9 8 8 9 11 10 10
3 3 2 2 1 1 1 2 2 2 1 1 5 6 6 6 6 5 7 7 6 7 7 6 4 7 8 8 7 7 5 5 1 3 5 6 5 8 9 9 8 7 9 10 10
3 2 3 2 1 1 2 2 2 2 1 5 5 5 6 6 7 6 7 7 7 7 6 6 5 6 8 7 6 6 4 3 3 2 4 5 8 6 7 8 8 7 9 9 9
2 -2 3 2 1 -0 3 3 2 4 4 6 7 6 5 7 6 6 6 7 8 7 7 7 6 6 6 6 7 6 5 4 2 3 1 2 6 7 7 7 8 9 10 10 9
1 2 4 3 3 3 3 4 4 5 5 7 7 8 8 6 7 7 7 7 8 8 7 7 4 4 6 7 7 6 5 4 2 1 2 3 6 7 5 5 8 9 10 9 8
1 0 3 3 2 3 4 4 5 5 6 7 6 7 7 6 6 6 7 7 8 8 8 8 4 3 4 6 4 2 4 3 3 1 2 1 4 7 8 7 7 9 9 7 6
2 1 1 3 4 3 5 6 5 5 6 7 7 7 7 6 6 6 6 6 7 8 6 6 4 4 5 6 5 5 5 4 3 3 3 5 4 6 7 8 8 9 7 6 5
2 1 1 2 3 3 5 5 5 6 6 6 5 6 7 7 7 6 6 6 7 6 6 5 2 4 3 5 5 5 5 4 4 5 4 5 5 9 9 10 9 7 5 4 3
1 1 1 2 1 3 3 4 5 6 7 6 7 6 5 5 6 7 7 6 6 5 5 5 3 2 2 4 5 5 5 5 4 4 6 5 8 10 9 9 8 5 4 3 3

GFSSW_850_temp_063.txt.gz
Temp
5 4 4 4 4 5 5 5 4 4 4 4 4 3 5 6 6 6 7 8 9 9 9 9 10 10 10 10 11 12 11 11 13 12 15 15 15 17 17 18 18 19 19 19 19
5 4 4 4 4 4 4 5 4 4 4 4 4 3 3 4 5 7 7 9 9 9 9 8 9 9 10 10 11 11 10 11 12 13 14 15 16 16 17 16 17 18 19 19 19
4 4 4 4 4 4 4 4 4 3 4 4 4 4 3 3 5 6 9 9 10 9 9 8 9 9 9 10 10 10 11 12 12 14 15 14 14 15 15 16 17 17 17 17 18
4 4 3 3 3 2 3 3 3 3 3 3 4 3 3 2 6 9 9 8 7 7 8 8 8 9 10 10 10 10 10 12 14 14 14 13 14 14 15 16 17 17 16 16 15
3 3 3 2 2 2 2 2 2 3 3 3 3 3 2 2 4 8 8 8 7 8 8 8 9 9 11 10 10 10 11 12 13 13 13 13 13 14 14 16 16 16 16 16 16
3 3 2 2 2 2 2 1 2 2 2 2 3 3 2 2 4 6 6 7 7 7 7 8 9 9 10 10 11 11 11 12 12 13 13 12 12 13 14 15 16 16 16 17 17
2 2 2 2 2 2 2 1 1 1 1 2 2 2 2 2 5 6 6 7 8 8 7 8 10 10 10 10 10 11 10 10 12 12 12 12 12 11 14 15 15 15 16 16 17
2 2 2 2 2 2 1 1 2 2 2 2 2 2 1 3 5 5 7 7 8 8 9 9 9 10 11 10 10 10 10 10 11 12 12 13 12 13 14 14 14 15 15 16 16
2 2 2 2 2 2 2 2 3 3 2 2 2 1 1 3 4 6 5 6 8 8 8 9 8 9 9 9 10 9 9 9 11 11 12 13 11 12 12 13 13 14 14 15 15
1 1 1 1 1 2 2 2 3 3 3 2 1 1 2 4 4 5 6 6 7 7 7 8 8 9 9 10 9 9 9 9 11 11 10 10 10 11 13 12 12 13 14 15 15
1 1 1 1 1 1 1 2 2 2 2 3 2 3 3 3 4 6 6 6 7 8 8 8 8 9 10 10 10 10 9 9 9 10 10 10 9 10 11 11 11 13 14 15 15
1 1 1 0 1 1 1 1 1 1 1 1 2 2 2 2 2 6 6 6 8 8 8 7 8 8 10 10 10 10 9 9 9 9 10 8 9 10 11 11 12 12 13 12 13
1 2 2 2 1 1 0 0 0 0 1 2 1 2 2 3 2 5 6 7 9 8 9 7 6 8 9 10 9 9 9 8 9 9 8 7 10 10 11 10 10 10 11 11 11
2 2 2 2 2 0 -0 -0 -0 0 0 2 2 2 2 2 3 5 6 8 8 8 9 6 7 7 7 7 8 8 9 9 9 9 9 7 11 10 9 9 8 8 10 11 11
2 2 2 2 1 0 0 0 -0 0 0 2 2 2 2 1 4 5 8 8 7 7 8 6 7 7 6 5 7 7 7 8 7 6 7 8 9 10 9 9 8 8 9 10 11
2 2 2 2 1 1 0 0 0 -0 -3 2 2 2 2 1 3 5 7 8 7 7 8 6 7 7 7 7 8 7 7 6 4 5 6 6 7 10 10 9 9 9 9 9 10
2 2 2 1 1 0 0 0 -0 1 1 1 3 1 2 4 5 7 7 7 7 6 6 5 6 7 8 7 8 7 7 6 6 6 8 5 6 9 8 8 9 9 9 9 10
4 3 2 2 1 0 0 -2 1 3 3 3 3 3 3 5 6 7 7 6 6 6 5 6 7 7 8 7 7 7 8 6 7 7 7 5 7 9 7 7 9 9 9 9 10
5 4 3 2 1 1 0 -1 1 2 3 3 3 3 5 5 6 6 5 5 5 6 6 5 5 7 7 7 8 7 6 5 2 2 4 6 6 8 8 8 8 8 9 10 9
5 4 3 2 1 1 1 3 3 2 2 2 5 5 6 5 6 6 6 5 6 6 7 6 6 7 7 8 7 7 5 6 2 5 7 7 6 9 8 9 8 8 8 9 8
5 4 4 3 2 2 2 3 2 3 2 5 5 5 5 5 5 6 6 6 7 7 6 5 6 6 7 7 6 6 5 3 4 4 6 7 10 6 8 8 8 7 8 8 8
4 -0 5 4 3 1 3 3 3 4 4 5 7 6 6 6 6 6 6 7 7 8 6 6 5 6 6 6 6 6 5 4 4 4 2 3 8 8 6 6 6 7 9 8 8
2 3 5 4 3 3 4 5 4 4 5 7 7 7 6 6 6 6 6 6 7 8 7 7 4 5 6 6 6 6 5 4 3 2 3 5 9 6 6 6 8 7 8 8 7
2 0 4 4 2 4 4 2 4 6 6 6 6 7 6 5 5 6 6 6 7 8 8 7 4 4 5 6 5 3 4 4 4 4 4 3 6 8 8 7 8 9 8 7 6
2 1 1 2 2 3 4 4 5 4 6 6 6 6 7 6 6 5 6 6 6 7 6 6 4 4 5 6 5 5 5 4 3 4 5 6 4 6 7 7 8 9 7 6 5
1 1 1 1 2 2 3 4 5 5 5 5 5 5 6 6 6 5 5 5 6 6 6 5 3 4 4 5 5 5 5 4 5 5 4 5 6 8 9 9 9 7 6 5 4
1 1 1 2 -0 3 3 4 4 6 6 6 6 5 5 4 5 7 7 6 6 5 4 5 3 3 3 4 5 4 5 5 4 4 6 5 7 9 9 9 7 6 4 4 3

GFSSW_850_temp_066.txt.gz
Temp
4 5 5 5 5 5 5 5 4 5 4 4 4 5 5 4 4 6 6 7 8 9 9 8 9 10 9 11 11 13 17 18 18 18 19 19 19 19 19 21 20 20 20 18 19
4 4 4 5 4 4 4 4 4 4 4 4 4 4 4 3 4 5 7 8 9 9 8 9 9 9 10 11 12 15 16 18 20 19 18 17 19 19 19 20 20 20 19 18 18
3 4 4 3 3 3 3 3 3 3 4 4 4 4 4 3 4 6 7 9 9 9 8 8 10 9 10 11 12 14 16 18 15 15 16 17 18 18 20 19 21 20 19 16 18
4 4 3 3 3 2 2 2 3 3 3 4 3 3 4 3 7 7 7 8 9 8 8 8 9 9 11 11 13 13 14 15 15 14 15 16 17 18 19 20 18 18 17 16 15
3 3 3 3 3 2 2 3 2 2 3 3 3 3 3 3 4 6 6 6 7 8 8 8 9 10 11 12 12 12 14 14 15 14 14 14 16 18 17 17 16 16 16 16 16
2 2 2 3 3 2 2 2 2 2 2 2 3 3 2 3 5 6 4 5 6 8 8 8 10 11 12 12 11 13 13 13 14 14 14 14 15 15 16 16 16 16 16 16 16
2 2 2 2 2 2 2 2 2 2 2 2 2 2 2 4 5 4 4 4 6 7 8 8 9 10 12 12 12 12 12 14 14 14 14 14 14 15 16 16 17 17 17 16 16
2 2 2 2 2 2 2 2 2 2 2 2 2 2 2 3 4 5 4 4 6 8 8 8 8 10 12 12 12 13 13 12 14 14 13 15 16 16 15 16 17 17 17 17 16
2 1 1 1 1 1 2 2 2 2 2 2 2 2 3 3 3 5 4 4 6 7 8 8 8 9 10 12 11 12 13 13 14 14 15 14 16 17 16 15 16 16 16 16 16
1 1 2 2 2 2 1 2 2 3 2 2 1 2 3 4 4 4 4 5 5 8 7 8 8 8 9 11 12 13 13 13 14 13 14 14 14 14 14 14 15 16 16 16 15
1 2 2 2 2 2 1 1 2 2 1 3 3 4 3 3 4 4 4 5 5 7 8 9 8 8 9 13 15 15 13 13 13 13 13 14 14 15 15 15 15 16 16 16 16
2 2 2 2 3 2 1 1 1 1 3 2 2 2 2 2 3 4 5 5 7 8 10 8 8 9 11 12 13 13 13 13 11 13 13 13 13 14 15 15 15 15 16 16 14
2 2 2 3 2 1 0 0 0 0 1 2 2 2 2 3 3 3 5 5 9 8 10 9 8 10 9 10 11 13 14 13 13 11 12 12 14 15 13 12 12 12 12 12 12
2 2 3 3 2 1 0 0 -0 0 2 3 3 3 2 2 4 3 4 7 9 7 7 8 7 9 9 9 10 9 12 13 12 12 13 11 16 13 13 12 13 12 12 12 11
1 2 2 2 1 1 0 -0 -0 0 3 2 3 1 2 3 1 5 5 7 10 7 7 5 6 6 5 8 9 8 11 12 11 11 12 12 14 13 13 12 12 12 11 11 10
2 3 3 2 2 1 0 0 0 2 3 3 3 3 3 2 2 5 5 7 9 7 7 6 6 7 7 7 8 7 8 10 10 11 10 12 12 14 13 13 12 12 11 11 10
3 3 3 3 2 1 0 0 3 4 2 3 3 2 3 3 4 5 7 9 9 8 6 5 5 5 6 5 5 6 8 8 10 10 12 9 10 14 12 12 13 12 11 10 10
3 4 3 2 1 1 1 2 5 4 3 4 3 2 3 6 5 6 7 7 8 10 8 7 7 5 5 7 8 9 10 12 11 11 12 8 11 13 11 11 11 10 10 9 10
4 4 3 2 1 1 1 5 3 3 3 3 3 4 6 6 6 7 6 6 7 8 8 7 7 5 6 8 10 9 10 9 8 7 11 13 11 11 11 11 11 11 10 10 9
5 5 4 3 2 1 4 4 4 3 2 2 5 9 6 8 7 9 8 6 8 8 9 8 7 8 8 9 9 10 9 10 8 10 12 12 12 13 10 11 11 12 11 10 9
5 5 5 4 5 3 4 4 3 4 3 5 7 8 9 8 9 9 8 8 8 8 9 10 10 7 9 8 9 8 9 8 10 9 12 13 14 14 13 12 12 11 10 9 9
6 5 5 5 4 3 5 4 4 6 4 6 8 9 9 9 9 9 9 9 8 9 10 9 9 8 8 8 8 9 10 10 10 8 7 9 13 12 13 12 10 11 10 9 7
4 5 6 5 4 5 6 6 6 7 7 8 9 9 9 9 9 9 8 8 8 9 10 10 9 7 7 8 8 8 8 8 7 7 7 12 12 10 11 10 11 10 10 8 7
3 4 4 4 3 4 4 6 7 6 8 8 8 9 9 9 9 8 8 8 8 9 8 9 8 8 10 9 8 6 7 7 6 8 9 10 11 11 12 12 12 11 9 8 6
2 2 2 4 6 4 6 7 8 7 8 8 9 8 9 9 8 8 8 8 9 8 9 10 7 7 8 8 8 7 7 7 6 8 9 11 11 12 12 12 11 11 8 7 5
1 2 1 3 3 6 6 6 7 7 7 8 8 8 9 9 8 8 9 9 9 9 9 8 7 7 6 7 7 7 7 7 7 9 8 9 9 12 12 11 10 9 7 6 4
1 1 1 4 5 7 4 5 6 7 7 7 8 8 8 7 6 8 7 8 9 9 8 8 7 7 7 7 7 8 8 8 7 8 9 8 11 12 11 11 9 8 6 5 4

GFSSW_850_temp_069.txt.gz
Temp
4 5 5 5 4 5 4 4 4 5 4 4 5 5 4 4 4 5 6 7 8 9 9 10 10 10 10 12 13 15 17 18 20 21 22 23 23 21 22 23 23 22 23 20 19
5 4 4 4 4 4 4 4 4 4 4 4 4 4 4 4 4 5 7 7 8 8 8 9 11 10 10 12 13 14 16 19 21 22 22 21 21 21 21 22 23 22 22 19 19
4 4 3 3 3 4 3 3 3 3 3 3 4 4 4 4 4 6 8 7 8 8 8 10 12 11 10 12 13 14 16 19 21 18 19 19 19 21 21 22 22 22 22 20 19
4 3 3 3 2 3 3 2 2 3 3 3 3 4 4 3 7 6 8 8 7 7 8 10 11 11 12 12 14 15 16 18 19 16 16 18 18 21 21 22 22 22 21 19 18
3 3 3 3 3 3 3 2 2 2 2 3 3 3 3 4 5 6 6 5 6 7 8 9 11 12 13 14 14 14 17 16 16 16 16 17 18 20 20 20 20 19 17 19 19
3 3 3 3 3 3 3 3 2 2 2 2 3 3 3 5 6 6 5 6 5 7 7 8 11 12 13 14 14 14 15 15 16 16 16 15 17 18 19 20 19 18 18 18 19
3 2 2 2 2 2 3 3 3 3 3 3 3 2 3 5 6 6 5 5 5 6 6 8 11 12 13 13 13 13 13 14 15 16 16 15 16 16 18 18 19 19 19 19 18
2 2 2 2 2 2 2 2 2 3 3 3 3 2 3 5 5 5 6 4 5 4 6 7 10 11 13 13 13 12 13 13 14 15 15 15 16 18 17 17 18 19 19 19 18
2 2 2 3 3 3 2 2 2 3 3 2 2 2 5 4 4 5 5 5 4 6 6 8 8 9 12 11 12 12 11 14 15 16 15 14 16 19 17 17 18 19 19 19 19
2 2 3 3 3 3 3 2 2 3 2 2 2 3 4 6 5 5 5 5 3 4 6 7 8 8 11 10 10 13 13 16 15 15 15 15 15 17 17 17 18 19 19 19 18
2 2 3 3 3 3 2 1 2 2 3 5 4 5 5 5 5 5 5 5 2 4 7 8 9 8 10 12 14 16 15 16 16 15 15 15 16 16 17 16 16 18 18 18 18
2 2 3 2 3 2 1 1 2 1 4 4 4 4 4 4 5 6 5 4 4 4 9 9 9 10 10 12 12 14 16 16 16 16 14 16 16 17 17 16 16 17 18 18 18
2 2 3 2 2 1 1 0 0 1 1 4 4 4 4 4 5 5 5 5 5 6 11 11 10 11 9 10 10 11 15 16 15 14 13 14 15 15 16 16 16 15 15 16 15
2 2 2 3 2 1 1 0 0 0 2 5 4 3 4 4 5 4 4 4 9 8 11 12 9 11 9 8 9 12 16 16 15 13 13 14 16 17 17 15 14 15 15 14 14
1 2 2 2 2 1 1 0 0 1 4 3 2 2 3 3 1 4 5 5 8 7 8 6 9 9 10 7 8 10 13 15 14 14 14 13 13 16 15 14 15 15 14 13 13
1 1 3 2 2 1 1 0 1 3 4 3 4 3 4 2 2 3 4 4 6 6 9 7 7 7 8 7 7 11 13 12 13 13 11 15 14 14 14 15 15 14 14 13 13
2 3 3 2 1 1 1 1 4 5 5 4 4 3 3 4 3 3 4 6 7 6 7 5 5 5 6 5 6 8 9 9 9 9 13 14 12 16 15 16 15 14 13 12 12
4 4 3 2 1 1 1 2 6 5 4 5 4 4 4 4 3 7 10 9 9 9 7 8 7 4 5 6 6 7 7 10 12 13 14 11 12 15 14 14 13 13 12 12 12
5 3 2 2 2 1 2 5 4 3 3 3 4 4 7 8 7 9 8 8 10 11 10 7 7 5 5 6 8 7 8 11 11 12 14 13 14 13 12 13 13 13 12 12 11
6 3 4 4 3 2 5 5 4 5 3 2 6 10 8 10 11 11 11 9 10 11 11 10 7 5 6 7 10 9 10 10 9 11 13 14 15 15 12 12 13 13 13 12 11
6 6 6 5 5 5 4 5 4 5 4 5 10 10 11 11 12 11 11 10 11 10 12 12 11 7 9 8 8 10 10 10 11 11 14 14 15 16 13 13 13 13 12 12 11
5 6 6 6 5 4 7 7 5 8 6 7 10 11 12 12 12 11 11 11 10 11 12 11 11 8 9 10 10 11 12 13 11 10 10 11 13 15 14 14 13 12 11 11 9
4 6 6 5 5 7 8 9 8 9 10 10 11 11 12 11 11 11 11 10 10 11 12 12 10 8 8 10 10 9 11 11 10 8 9 13 12 15 14 13 12 12 12 10 9
4 4 7 7 6 5 5 7 9 8 10 10 11 11 12 11 12 10 10 10 9 10 9 11 11 9 11 10 10 7 9 9 6 9 12 12 12 12 13 13 13 13 12 11 9
3 3 3 7 7 7 8 10 10 9 10 10 11 11 11 11 11 10 10 10 10 9 11 12 9 9 10 10 10 9 8 9 6 9 10 13 13 13 13 14 14 12 11 10 8
2 2 2 5 7 9 8 8 9 9 9 10 10 11 11 11 10 10 10 11 11 11 11 11 8 9 7 9 9 8 9 9 9 10 11 11 11 14 14 13 12 12 10 9 7
1 1 1 7 8 8 6 6 7 9 9 9 9 11 10 8 9 10 10 10 11 11 11 11 10 9 9 8 9 9 9 9 9 10 11 10 12 13 13 13 12 10 8 7 6

GFSSW_850_temp_072.txt.gz
Temp
5 5 5 5 4 4 4 4 4 4 5 5 5 5 5 5 5 5 5 6 7 9 9 10 10 9 10 11 13 14 13 14 15 18 20 23 23 23 23 23 24 23 22 19 18
4 4 4 4 4 4 3 3 4 4 3 3 3 4 4 5 4 4 5 6 7 7 8 9 10 10 10 11 12 14 13 14 17 19 20 21 22 22 22 22 22 23 21 19 19
4 3 3 3 3 3 3 3 3 3 3 3 3 3 4 4 3 5 6 6 7 7 8 9 11 11 11 11 12 13 13 15 17 19 17 20 20 21 21 19 22 22 22 20 19
3 3 4 4 3 4 3 3 3 3 3 3 3 3 4 3 5 6 6 7 7 7 7 8 11 12 11 11 12 13 14 15 18 17 17 18 19 19 20 21 21 22 23 21 20
3 3 3 3 3 3 3 3 3 3 3 3 3 3 3 3 4 6 6 6 6 7 7 8 10 12 12 12 13 13 15 16 16 16 16 17 17 18 19 21 20 20 20 20 19
3 2 2 2 2 3 2 3 3 3 3 3 3 3 2 3 5 6 6 6 5 6 7 8 9 11 13 13 13 14 14 15 16 16 16 16 16 17 18 19 20 19 18 19 19
3 3 3 3 3 3 3 2 3 3 3 3 3 3 2 4 6 6 6 6 6 5 6 8 9 12 13 13 14 14 12 13 15 16 15 15 15 15 18 18 19 19 19 19 19
2 2 3 3 3 3 3 3 3 2 3 3 3 3 3 4 5 5 5 5 5 5 5 6 8 9 12 13 14 12 12 11 14 15 15 15 13 16 17 17 17 19 19 19 19
2 2 3 3 3 3 3 3 3 3 3 3 3 3 4 5 5 5 5 6 6 5 5 6 6 8 11 11 10 10 10 11 13 14 15 14 13 16 17 17 17 18 18 19 19
2 2 2 3 3 3 3 3 2 2 3 2 2 3 4 6 6 6 6 6 4 4 5 5 7 8 10 10 9 10 10 12 12 14 14 13 13 16 17 17 17 17 18 19 19
2 2 3 2 2 2 2 2 2 2 2 4 4 5 6 6 5 6 6 5 3 1 5 7 7 8 9 11 11 12 12 13 13 15 14 14 13 14 16 16 16 17 18 19 19
2 2 3 3 2 1 2 2 1 1 2 3 4 5 5 5 5 6 6 5 3 2 3 7 7 8 11 12 11 12 13 13 15 14 13 14 14 15 15 15 16 16 17 18 18
1 2 3 3 2 2 1 1 1 1 2 4 4 5 5 5 5 5 5 5 4 3 3 7 8 9 10 11 11 11 10 11 14 13 13 14 12 14 16 17 16 16 16 16 16
1 2 3 3 3 2 1 1 1 0 2 3 2 3 4 5 5 5 5 4 4 3 4 7 11 10 10 10 11 10 12 12 15 12 10 12 10 14 15 15 15 15 15 15 15
2 2 3 3 2 2 1 1 0 1 3 4 3 2 4 4 2 4 4 3 4 4 6 6 9 9 7 8 9 9 9 13 12 11 11 11 9 14 14 14 13 13 15 14 14
5 4 4 3 2 2 1 1 1 3 3 3 3 3 3 3 2 3 3 2 2 7 7 7 7 8 8 8 8 7 7 9 11 11 9 11 10 11 12 13 13 13 14 13 13
6 5 4 3 2 1 1 1 3 4 5 4 4 3 2 4 4 6 4 4 6 6 6 6 5 6 6 6 6 5 6 8 9 8 8 12 10 12 13 14 13 12 13 13 12
6 5 4 3 2 1 1 2 5 5 4 4 4 4 4 5 3 5 6 6 7 8 7 8 6 5 5 6 6 5 8 9 10 8 9 11 9 11 13 14 14 14 13 12 12
6 5 3 4 4 2 2 4 4 3 3 3 4 5 6 5 5 4 5 7 6 8 8 6 5 4 5 6 7 6 7 7 8 11 7 9 11 11 12 12 12 12 12 12 11
7 5 5 5 5 4 4 5 4 6 4 3 5 8 8 10 7 9 10 10 10 11 11 9 6 5 5 6 6 7 9 7 7 9 10 10 10 10 9 11 11 11 12 12 11
7 6 6 6 6 5 4 4 4 6 6 6 9 11 12 12 12 11 10 10 11 11 12 11 9 7 6 6 7 6 6 9 10 9 9 8 11 12 10 11 11 11 12 12 11
6 6 7 6 4 4 7 8 7 9 7 8 9 11 11 12 11 11 9 10 11 11 11 11 9 7 9 10 10 10 11 11 6 8 7 7 8 12 10 10 12 12 12 11 10
4 6 7 6 5 5 7 8 9 9 10 10 11 11 12 11 10 11 10 10 10 10 10 11 8 7 8 9 9 9 10 11 7 7 8 7 8 11 9 10 12 12 11 10 9
4 3 5 7 6 6 6 7 10 10 10 11 11 12 12 11 11 10 10 10 10 10 10 10 9 7 6 8 8 6 9 9 5 6 9 8 10 11 10 10 11 12 11 10 9
3 3 2 6 7 8 7 8 10 9 10 11 11 11 11 11 11 10 10 10 10 10 11 10 7 8 9 9 10 8 8 7 4 7 5 9 11 11 11 10 12 12 11 10 9
2 1 2 4 8 8 8 8 7 8 9 10 10 11 11 10 9 10 10 11 11 11 11 10 7 8 5 9 9 8 9 8 7 8 8 10 10 12 13 13 13 12 11 10 9
0 1 1 4 8 8 6 7 7 8 9 9 9 9 9 8 9 10 10 10 10 10 10 10 7 6 6 9 8 6 8 8 8 8 9 8 9 13 11 12 12 11 10 9 8

GFSSW_850_temp_075.txt.gz
Temp
4 4 4 4 4 3 3 3 3 4 4 5 4 5 5 5 5 5 5 6 7 8 9 9 9 10 10 11 11 12 11 12 13 14 16 18 17 20 23 23 22 21 22 20 19
4 4 3 4 4 4 4 4 3 4 3 3 3 3 4 4 5 4 6 7 6 8 8 9 9 9 9 10 11 10 10 13 15 15 16 18 17 17 16 21 21 20 20 19 19
3 4 4 4 4 4 3 3 4 3 3 4 4 3 3 3 3 4 7 6 6 7 7 9 9 9 9 10 11 12 11 14 15 16 17 16 14 18 17 18 20 19 19 19 20
4 4 3 3 3 3 3 3 3 3 3 3 3 3 3 3 4 6 6 5 6 6 7 8 9 9 9 9 11 11 13 14 15 16 16 16 18 18 17 20 20 20 21 20 20
3 3 3 2 3 3 3 3 3 3 3 3 3 3 3 3 3 6 5 5 6 6 7 7 8 9 8 10 11 10 12 14 14 14 15 16 16 17 18 19 20 20 20 19 18
3 3 2 3 3 3 3 3 3 3 3 3 3 3 2 2 5 5 5 5 4 6 7 7 8 9 11 10 10 12 12 13 14 13 14 15 16 17 18 18 19 20 19 19 19
2 3 2 2 3 3 3 3 3 3 3 3 3 3 2 4 5 4 5 5 4 4 6 6 7 9 11 10 12 11 10 11 12 14 14 15 14 15 17 18 18 17 19 19 19
2 2 3 3 3 3 3 3 3 3 3 3 3 2 2 5 5 5 5 5 5 4 5 6 5 7 8 12 12 11 11 9 11 14 15 14 12 14 16 17 17 18 18 19 19
1 2 2 3 3 3 3 3 3 3 3 3 3 3 3 5 5 5 5 5 5 5 5 5 6 7 9 10 9 9 9 10 12 13 13 13 13 15 16 17 17 17 18 18 18
1 1 2 3 3 2 2 2 2 2 2 3 2 3 5 5 5 5 5 5 5 5 4 5 6 7 8 9 9 9 9 9 9 12 11 12 12 14 17 16 16 17 17 18 18
1 2 2 3 2 2 2 3 2 2 1 3 4 4 5 5 5 5 5 5 5 3 3 5 7 8 8 10 10 9 9 9 10 12 11 11 12 13 15 15 15 16 17 17 18
1 2 2 3 2 2 2 2 1 1 1 3 3 4 4 4 5 5 6 5 4 3 2 4 7 7 9 10 10 10 9 9 11 12 12 10 11 12 14 13 15 16 16 17 17
1 2 3 3 2 2 2 1 0 1 1 4 4 4 4 5 5 5 5 4 4 3 3 4 6 8 10 10 9 9 8 9 11 12 12 10 10 11 13 14 15 16 17 16 16
1 2 3 3 3 2 2 2 1 1 -1 3 3 3 4 4 5 4 5 5 3 3 3 3 7 8 9 9 10 9 10 11 11 10 8 10 8 9 12 14 13 14 16 16 16
4 5 4 3 2 2 1 1 2 1 2 2 3 3 4 4 3 3 4 4 4 3 3 5 8 6 8 9 10 8 9 10 10 9 10 10 8 8 11 13 14 12 15 15 14
6 5 4 4 2 2 1 1 2 1 3 3 2 2 3 3 2 3 3 2 2 3 4 6 8 7 8 8 7 7 8 8 9 8 8 8 8 8 10 13 12 12 13 13 13
6 5 5 3 3 2 1 2 1 3 5 4 4 3 2 3 3 5 3 3 4 4 5 6 5 6 8 6 7 7 7 8 8 8 7 8 8 10 11 12 12 10 12 13 12
6 6 5 3 4 2 2 -1 1 4 3 4 4 4 4 5 4 4 3 3 2 4 5 6 6 5 6 7 7 6 7 8 10 7 8 10 7 10 9 12 13 12 12 12 12
7 6 5 4 5 4 3 2 3 3 3 3 3 4 5 5 5 4 4 6 7 8 7 5 6 5 6 7 7 7 7 6 7 9 7 8 10 10 9 9 10 11 12 12 11
7 5 5 6 5 4 2 4 3 5 4 3 3 7 6 6 6 5 7 8 9 9 8 5 6 6 6 6 6 7 8 7 5 8 8 7 8 8 9 8 9 9 10 11 11
7 6 6 6 6 6 3 4 4 6 5 5 6 7 8 8 8 8 8 9 10 11 10 7 6 6 6 6 6 6 7 7 7 6 7 6 8 9 10 9 8 9 11 11 10
7 3 6 6 4 3 5 7 8 8 7 7 6 8 9 9 8 8 8 9 10 10 10 9 7 6 7 8 8 8 7 8 5 6 6 4 8 11 8 8 10 10 11 11 10
5 5 6 6 2 5 5 7 8 8 8 9 9 10 10 9 8 9 8 9 10 9 9 10 6 6 7 8 8 7 8 9 7 6 6 7 7 8 8 8 10 10 10 10 10
4 1 5 7 6 6 6 6 8 9 8 10 10 10 10 9 9 9 8 9 10 9 9 9 7 5 5 7 6 5 8 7 4 3 6 6 8 9 9 9 9 11 11 10 10
4 2 2 2 4 6 7 8 8 8 9 9 10 9 9 9 9 8 9 9 10 10 10 8 6 7 8 8 8 6 7 6 3 7 5 9 10 9 9 9 10 11 11 10 9
2 1 1 2 3 7 6 7 7 8 8 8 7 7 7 7 7 7 9 9 9 10 10 8 5 6 3 8 8 7 7 6 7 8 7 8 9 10 11 11 11 11 10 10 9
2 1 1 3 4 7 6 6 7 6 8 9 8 7 7 7 8 8 9 9 9 9 8 8 5 4 4 8 7 5 6 6 6 7 7 7 9 11 10 11 10 11 10 10 9

GFSSW_850_temp_078.txt.gz
Temp
3 4 4 4 4 4 4 4 4 3 4 4 4 4 3 4 5 5 5 7 7 8 8 8 9 9 10 10 11 11 9 12 12 14 15 17 17 18 17 17 19 22 21 20 18
3 4 4 4 3 3 4 4 4 4 3 3 3 3 3 3 4 4 5 6 7 8 7 7 8 8 9 10 11 11 8 11 14 15 15 14 15 13 15 16 18 19 20 18 18
3 4 4 4 3 3 3 3 4 4 3 3 3 4 3 4 3 4 6 6 6 6 7 7 8 8 9 10 10 10 10 13 15 15 15 12 12 13 14 14 17 18 19 19 19
3 3 3 3 3 4 4 4 3 3 3 3 3 3 4 3 3 5 5 4 5 6 6 7 7 7 8 9 10 9 11 13 14 14 12 12 13 11 13 14 18 18 21 20 19
2 2 3 3 3 3 4 4 4 3 3 3 3 3 3 2 4 5 5 4 5 7 6 6 7 8 7 9 10 9 11 13 13 14 14 13 13 13 14 16 17 18 19 19 19
2 2 3 3 3 3 3 4 3 3 2 2 3 3 3 2 5 5 5 4 4 5 6 6 7 8 9 9 9 11 11 12 13 13 14 14 14 15 16 15 17 17 18 18 18
2 2 2 3 3 3 3 3 3 3 3 2 3 3 3 4 5 4 4 4 4 3 5 6 7 8 9 9 11 11 10 10 11 12 13 14 13 14 16 15 16 18 17 17 17
2 2 2 3 3 3 3 3 3 3 2 2 3 3 3 5 5 5 4 4 4 3 4 6 6 6 7 10 10 9 10 9 11 12 13 14 13 14 16 16 17 17 18 18 18
2 2 2 2 3 3 2 2 3 3 2 3 3 3 3 5 5 5 5 5 4 3 3 5 6 7 8 8 8 8 7 8 11 12 13 12 12 14 16 16 17 17 17 17 18
1 2 2 3 3 3 2 2 2 2 2 3 3 3 5 5 5 5 5 5 4 4 4 5 6 7 8 8 8 9 10 8 9 11 11 11 12 14 15 15 16 16 17 17 17
1 1 2 3 3 2 3 3 2 2 2 2 3 3 4 5 5 5 5 5 5 4 2 5 6 6 7 9 10 8 9 10 9 10 11 10 11 13 15 15 14 17 17 17 17
2 2 2 2 3 2 3 2 1 1 2 3 3 4 4 4 5 5 5 5 4 2 1 4 5 7 9 9 10 10 8 8 10 11 10 10 11 11 13 13 15 15 16 17 17
2 4 3 3 3 3 2 1 2 1 1 3 3 4 4 4 4 5 5 5 3 2 2 3 6 8 8 9 9 9 8 8 10 11 10 10 10 11 11 13 14 15 15 17 17
5 6 4 3 3 2 2 1 2 2 -0 3 3 3 4 4 4 4 5 4 3 3 3 3 6 6 6 8 10 8 9 10 10 9 8 10 8 9 12 11 12 13 15 15 16
6 6 4 3 3 2 2 2 1 2 2 2 2 3 3 4 3 3 4 4 3 3 3 4 5 5 6 9 9 8 9 10 9 9 10 9 8 8 10 11 12 14 14 15 15
6 6 4 3 2 2 1 1 1 -1 3 3 2 2 3 3 2 3 3 4 3 4 4 5 7 7 7 7 8 7 8 9 8 8 8 7 8 7 9 11 12 13 14 14 14
7 6 5 3 2 1 1 1 -0 1 5 3 3 2 1 2 2 3 3 2 3 2 4 4 6 6 7 6 7 7 7 7 8 8 7 7 8 10 9 10 10 11 12 13 13
7 7 5 3 3 2 2 -1 2 3 4 5 3 3 4 4 3 3 3 3 3 3 6 6 6 6 6 7 7 7 6 4 7 7 7 7 7 9 10 10 12 12 13 12 12
7 7 6 5 4 3 2 1 4 4 4 3 3 4 5 4 4 4 3 4 5 3 6 5 6 5 7 7 8 7 7 6 5 7 4 6 8 9 8 8 8 10 11 11 11
7 7 6 6 5 4 2 2 2 4 5 3 5 6 7 6 6 4 5 7 7 5 7 6 6 6 6 7 6 7 7 7 6 8 7 7 7 9 8 7 8 8 9 10 11
7 7 6 6 6 6 2 1 3 6 5 4 5 6 8 8 6 7 7 8 9 9 8 6 6 6 6 6 7 6 7 7 6 5 5 5 7 8 8 8 8 7 10 10 10
7 2 6 6 5 1 2 6 7 7 6 5 5 5 8 8 7 7 7 8 9 9 9 8 7 6 7 7 9 7 7 7 3 6 2 3 7 8 7 7 8 8 10 10 10
6 6 7 6 2 5 6 6 7 8 8 8 8 9 9 9 8 8 8 9 9 9 9 9 6 6 6 6 6 6 7 8 6 3 3 4 7 8 7 7 9 9 10 10 10
5 1 6 6 6 5 6 6 8 9 7 8 8 8 8 8 8 8 8 9 9 9 9 9 6 5 5 7 5 5 6 6 4 2 5 4 8 9 8 8 8 9 10 10 9
5 1 1 -0 2 4 6 7 8 8 8 8 9 7 7 8 8 8 8 8 9 10 9 8 6 6 8 7 7 6 6 5 4 6 5 8 8 9 9 8 9 10 10 9 9
3 1 1 1 2 2 5 6 7 7 7 7 7 7 7 7 7 7 7 8 8 9 9 6 5 5 3 8 8 7 6 6 6 7 7 7 8 10 10 10 9 10 10 9 9
3 1 0 1 1 3 4 5 6 7 7 7 7 6 6 7 7 7 7 8 8 8 7 7 4 3 3 7 7 5 6 5 6 6 7 7 8 10 9 9 10 11 11 11 10

GFSSW_850_temp_081.txt.gz
Temp
3 4 5 5 4 4 3 4 4 4 4 3 4 4 4 4 4 4 4 5 6 8 7 8 8 9 9 10 10 11 9 12 11 12 14 17 17 17 17 16 17 17 16 18 18
3 4 4 4 4 4 4 4 4 4 4 4 4 4 4 4 4 4 4 5 6 7 6 7 8 8 8 9 10 10 10 10 12 13 14 14 15 17 15 14 16 17 16 17 18
2 3 3 3 4 4 3 4 4 4 4 4 4 3 4 4 3 5 6 6 5 6 6 6 7 7 8 9 10 10 10 12 14 14 14 13 13 16 14 12 16 16 16 18 18
2 3 3 3 3 3 4 4 4 4 4 3 4 3 3 3 3 5 4 4 5 5 6 6 6 7 7 8 10 10 10 12 13 13 13 12 13 11 13 13 15 15 15 15 18
3 2 3 3 3 3 4 3 3 3 4 3 3 3 3 2 4 5 4 4 4 4 6 6 6 7 7 8 10 10 11 12 12 13 14 13 12 13 13 13 14 15 15 17 18
2 2 2 2 3 3 3 3 2 3 3 3 2 3 3 2 4 4 5 3 3 4 6 6 6 7 8 9 10 11 11 11 12 12 13 13 13 13 13 13 14 15 15 17 18
2 2 2 3 2 3 3 2 2 4 3 2 2 3 3 4 4 4 4 3 4 4 4 6 7 7 8 8 10 10 9 10 10 12 12 13 13 12 14 12 14 13 14 16 17
2 2 2 3 3 3 2 3 3 3 3 3 3 3 4 4 4 4 4 4 3 3 2 4 6 6 7 9 9 9 10 9 10 10 12 13 11 13 14 12 11 13 14 16 17
2 1 2 3 3 3 3 3 3 3 3 3 3 3 4 5 5 5 4 4 3 3 2 4 6 6 8 7 7 7 7 8 10 10 12 11 11 13 13 12 12 13 15 17 17
1 1 2 3 3 3 3 3 2 3 2 3 3 3 4 5 5 5 5 4 3 3 2 4 6 6 7 8 8 7 7 8 9 9 11 10 12 13 14 14 15 15 16 17 17
2 2 2 2 3 3 3 3 3 2 3 2 3 3 4 5 5 5 5 4 4 3 2 5 6 6 6 9 9 8 8 8 9 10 11 10 11 12 13 13 14 15 15 15 17
3 2 3 2 3 3 3 3 2 2 3 3 3 3 4 4 4 4 4 4 4 3 1 3 5 6 7 9 9 9 8 8 9 10 10 9 9 11 12 13 14 15 14 15 18
5 4 5 3 3 3 2 2 2 2 1 3 3 4 4 4 4 4 4 4 3 2 2 5 5 6 6 8 9 8 9 7 9 9 9 10 9 11 12 12 13 14 15 16 16
6 5 5 4 3 3 2 2 2 2 -3 3 3 3 3 4 3 4 4 4 3 3 3 4 6 5 5 8 9 8 9 9 10 8 7 9 7 8 12 12 11 13 13 14 15
6 6 5 4 3 2 2 1 2 2 -1 2 2 3 3 3 3 3 3 4 3 3 3 5 5 6 5 7 9 9 9 9 9 8 8 8 8 7 9 10 12 12 13 14 15
6 6 4 4 2 2 2 2 2 -1 2 2 2 2 3 2 2 2 3 4 3 4 3 4 4 7 6 6 8 8 9 8 8 7 7 7 7 7 8 10 11 11 13 14 14
6 6 4 4 3 1 1 2 -0 2 4 3 3 1 1 2 1 3 2 1 3 1 3 3 6 5 6 4 7 8 7 7 8 8 7 6 7 10 9 9 10 11 13 13 14
7 6 5 4 3 2 2 -1 3 3 4 3 3 3 3 3 3 3 2 1 2 3 4 5 6 5 5 6 7 7 6 4 6 8 7 6 6 8 8 10 11 11 12 13 13
7 6 5 4 3 2 2 1 5 4 5 3 4 4 4 4 3 3 2 4 4 3 5 5 6 5 5 6 8 7 5 6 5 5 3 6 6 8 8 8 8 9 10 10 11
7 6 5 5 4 3 1 4 2 4 4 4 4 5 5 5 4 4 4 5 5 4 5 6 6 6 5 7 7 7 6 6 6 3 6 6 6 8 9 8 7 6 8 9 10
7 6 6 5 5 4 1 1 2 5 5 4 5 5 7 7 5 5 5 6 7 6 5 6 7 6 6 6 6 6 7 6 5 4 5 5 7 6 7 7 6 6 8 9 10
7 1 6 5 4 -0 0 6 6 6 5 5 4 4 6 7 7 6 6 6 8 7 6 7 6 6 6 6 7 8 7 6 3 6 4 1 6 8 6 6 7 7 9 10 10
6 6 7 6 1 -0 4 6 6 7 6 6 7 6 8 8 7 7 7 8 8 9 8 7 6 6 6 6 6 6 7 8 5 2 1 4 7 8 6 6 8 8 9 9 9
6 0 6 6 4 4 4 4 7 8 7 7 7 7 7 8 7 8 7 7 9 9 9 9 6 5 5 7 6 6 6 7 7 5 5 3 7 8 8 7 7 8 9 9 9
5 -1 -0 -1 1 1 2 4 6 6 8 8 7 6 6 6 7 7 8 8 9 9 8 7 5 5 7 6 6 6 5 5 6 6 5 8 6 9 7 6 7 9 9 9 9
4 1 1 -0 1 1 3 4 5 6 6 6 6 6 6 6 7 7 6 7 8 9 8 6 4 5 4 7 7 7 6 5 6 6 6 6 7 8 9 9 8 9 9 9 9
3 1 -1 -0 -0 1 2 3 4 4 4 6 6 6 6 6 7 7 7 6 6 8 6 6 4 3 3 6 6 5 5 5 6 5 7 7 9 9 8 8 8 9 9 10 10

GFSSW_850_temp_084.txt.gz
Temp
3 3 4 4 4 4 4 4 4 4 4 5 4 4 4 4 4 5 4 6 6 6 7 7 8 9 9 10 9 10 10 12 11 11 13 16 16 16 16 17 16 17 15 16 17
3 3 3 3 4 4 4 4 4 4 4 4 4 4 4 4 4 4 6 6 6 6 6 7 7 8 8 9 10 10 10 10 12 12 13 15 16 17 16 15 15 17 17 14 15
3 3 3 3 3 3 4 4 4 4 4 4 4 3 3 3 3 5 5 6 5 6 5 6 6 7 8 8 9 10 8 11 13 14 14 14 14 16 14 14 15 16 17 15 14
3 3 3 3 3 3 3 4 3 2 3 4 3 3 3 3 3 5 4 4 5 5 5 6 7 6 7 7 9 9 10 12 13 13 13 13 13 13 14 17 16 17 17 15 15
2 2 2 2 3 3 3 3 2 3 3 3 3 3 3 3 4 4 4 3 3 4 5 5 6 6 7 7 8 10 10 12 12 12 13 14 12 13 14 15 15 17 16 16 16
2 2 2 3 3 3 3 2 2 2 3 3 3 3 2 2 4 4 4 4 3 3 4 4 6 7 7 8 8 10 10 11 12 12 12 12 12 13 14 15 15 15 16 16 15
2 2 2 3 3 3 3 3 3 4 3 2 2 2 3 4 4 4 4 4 4 4 4 4 5 8 7 8 10 10 9 10 10 11 11 13 12 11 14 15 16 16 16 17 15
2 2 2 3 3 3 3 4 3 4 3 3 3 3 3 4 4 4 4 4 4 4 4 3 5 6 6 8 9 8 9 8 10 10 12 12 10 11 13 14 14 16 16 16 14
2 2 2 3 3 3 3 3 3 4 3 3 3 3 4 4 4 4 4 4 4 4 3 3 4 5 7 7 7 8 8 8 9 9 11 10 10 11 13 14 13 16 16 13 14
2 2 2 2 3 4 3 3 3 3 3 3 3 3 4 4 4 4 4 3 4 3 4 3 5 6 6 7 7 7 7 10 9 9 10 9 10 11 11 13 11 12 14 13 13
2 2 2 2 3 4 3 3 3 3 3 2 2 3 4 4 5 4 4 3 4 3 2 0 5 5 6 7 8 7 7 8 9 9 10 8 10 10 11 11 11 11 12 12 13
3 4 3 3 3 4 3 3 3 2 3 3 3 4 4 4 4 4 4 4 4 3 1 2 5 7 8 6 8 8 8 8 8 9 10 8 9 10 10 11 13 11 12 13 14
5 5 5 4 3 3 3 3 2 3 2 3 3 3 4 4 4 4 4 4 3 2 2 2 6 7 5 6 7 8 9 7 8 8 9 8 8 9 10 12 13 13 14 14 15
6 5 5 4 3 3 3 3 2 2 -3 3 3 3 3 3 3 3 4 4 3 3 2 3 5 6 4 5 7 8 9 9 8 8 8 9 8 7 9 10 9 12 13 14 14
7 6 5 4 3 2 2 2 2 2 0 3 2 2 3 3 2 3 3 4 3 3 3 3 5 4 4 5 8 8 9 9 8 6 7 7 7 7 8 9 11 12 12 13 14
7 6 5 4 3 2 1 2 2 -1 1 2 2 2 2 2 2 2 3 4 3 3 3 3 3 6 5 4 8 8 8 8 7 7 5 6 7 6 7 9 10 11 13 14 15
7 6 5 4 3 2 1 1 -1 0 3 4 3 1 1 1 1 2 2 1 1 1 2 3 5 6 6 4 7 8 7 8 8 8 7 6 6 9 8 8 9 9 13 13 14
7 6 5 4 2 2 1 -1 0 3 -0 4 4 3 2 3 2 3 3 -0 1 2 1 4 5 6 5 5 6 7 6 4 6 7 6 5 6 8 8 9 10 12 13 13 13
7 6 5 4 3 2 1 -0 2 1 4 3 4 2 4 4 3 3 2 1 2 3 4 5 6 5 5 6 6 6 6 6 4 3 4 6 6 7 8 7 8 9 10 12 13
7 6 5 4 2 2 -1 3 1 4 3 4 4 4 3 4 4 3 3 4 5 3 5 6 6 6 4 6 5 6 6 6 5 4 6 6 6 8 10 9 8 7 7 9 10
7 6 5 5 3 2 -0 -0 2 5 4 4 4 4 5 5 4 4 5 5 6 4 5 5 6 6 4 5 6 7 5 6 5 3 4 5 7 5 8 8 6 6 8 8 9
7 1 5 5 2 -1 -0 5 6 5 5 4 4 4 5 6 4 5 6 6 5 6 5 6 6 6 6 6 6 7 7 6 4 5 3 1 6 8 6 5 6 7 7 8 9
7 6 5 5 0 -1 2 5 6 6 6 5 5 5 6 7 7 6 6 8 7 6 6 7 6 6 6 6 6 6 6 6 4 2 4 4 6 7 6 6 6 7 8 8 9
7 -0 5 5 3 2 2 2 5 7 6 7 6 6 6 7 7 7 4 7 8 8 8 8 6 6 6 7 6 5 5 6 4 1 5 3 5 7 8 8 7 7 8 8 9
6 -1 -1 -2 -1 -1 1 3 4 5 6 7 6 5 5 5 6 6 7 6 7 9 7 7 5 5 6 6 5 6 5 5 4 6 5 6 6 7 8 7 7 8 8 8 8
4 2 1 -1 -0 -1 1 2 2 3 4 3 5 4 6 5 6 6 6 7 7 8 7 5 5 5 4 6 6 6 5 5 6 6 5 6 5 6 9 8 7 8 8 8 8
2 2 -0 0 -1 -0 -0 0 1 2 3 4 4 2 3 5 6 7 6 6 6 7 6 6 4 4 4 6 6 5 5 5 6 5 6 5 8 8 8 7 8 8 8 9 10

GFSSW_850_temp_087.txt.gz
Temp
3 3 3 4 4 4 4 4 4 4 4 5 5 4 4 4 4 5 5 6 5 6 6 7 8 9 9 9 10 10 10 13 13 13 15 15 16 15 16 17 16 16 15 15 16
3 3 3 3 3 3 3 4 4 4 4 4 4 4 4 4 4 5 6 5 5 6 6 6 7 8 9 9 10 10 11 12 12 12 14 15 15 15 16 15 15 16 16 15 14
3 3 3 3 3 3 3 3 3 3 3 3 4 4 3 3 4 5 4 5 4 6 5 5 6 8 8 8 9 10 10 12 12 13 15 14 14 16 15 15 17 17 17 16 15
3 2 3 3 3 3 3 3 2 3 2 3 4 4 3 3 4 4 4 3 4 5 5 5 6 7 8 8 9 9 10 11 12 13 13 13 14 14 15 16 17 17 18 17 16
2 2 3 2 4 4 3 3 2 2 2 3 3 3 3 3 4 4 4 4 4 4 4 5 5 6 7 7 8 9 11 11 12 12 13 14 13 14 14 14 15 16 17 18 17
2 2 2 2 3 4 3 4 4 4 3 3 3 3 3 3 3 4 4 4 4 4 4 4 5 6 7 7 8 9 10 11 12 12 12 12 12 14 15 14 14 15 16 17 17
2 2 2 2 3 3 3 4 4 4 3 3 3 3 3 3 3 4 4 4 4 4 4 4 4 5 6 7 9 9 9 9 10 11 12 12 11 11 14 14 15 15 15 17 17
3 3 2 2 3 3 3 3 4 4 3 3 3 3 4 3 4 4 4 4 4 4 4 4 4 4 5 7 9 9 9 9 10 10 11 12 12 12 13 14 15 15 15 17 17
3 2 2 3 2 3 3 3 3 3 3 3 4 3 4 4 4 4 3 4 4 4 3 3 4 5 6 6 8 9 9 8 9 10 10 11 11 12 13 13 14 15 14 17 18
4 3 3 3 2 3 4 3 3 3 3 3 3 3 4 4 4 4 4 3 3 3 2 3 3 6 5 4 7 8 9 9 9 9 10 9 10 11 12 12 14 14 14 17 17
7 6 4 3 3 4 4 3 3 3 3 3 3 3 4 4 4 4 4 3 3 3 1 1 3 5 5 5 7 9 8 9 9 9 11 11 10 11 10 10 10 13 13 14 17
7 6 6 5 4 4 4 3 3 2 2 3 3 4 4 4 4 4 3 3 3 3 1 2 3 6 6 6 7 9 8 8 9 9 10 10 10 10 10 10 10 13 12 13 15
7 6 6 5 4 3 3 3 2 2 2 3 3 3 3 4 4 4 3 4 3 3 2 2 4 8 6 6 5 8 8 7 9 9 8 9 10 10 10 11 11 12 14 15 15
7 6 5 4 3 3 3 2 2 2 -3 2 3 3 3 3 3 3 3 3 3 3 2 3 4 7 4 6 5 7 9 9 8 9 10 8 10 8 10 10 10 12 12 13 15
8 6 5 4 3 3 2 2 2 2 -0 3 3 2 3 3 2 3 3 3 3 3 3 3 5 6 5 5 4 6 10 9 8 7 7 8 9 9 7 10 11 10 11 13 13
8 6 5 4 3 2 2 2 2 -1 1 3 2 2 2 2 2 2 3 3 3 3 3 4 3 6 5 4 4 4 9 8 7 7 7 7 8 9 8 10 11 12 12 13 14
8 6 5 4 3 2 2 2 -1 -0 2 3 3 2 1 1 1 1 2 -1 1 -1 -1 4 5 6 5 5 4 3 9 8 8 7 7 6 7 10 8 8 9 11 12 13 14
8 6 5 4 2 2 2 -1 -1 2 -1 4 4 3 2 2 2 2 3 -0 1 1 -1 3 4 6 5 4 5 8 7 6 7 7 7 5 7 10 9 9 11 11 12 12 12
7 6 5 4 2 2 2 -1 1 -1 3 3 4 3 4 3 3 3 2 1 1 2 4 4 5 5 6 5 4 6 5 6 4 3 7 7 7 9 8 8 8 9 10 11 12
8 5 5 4 2 1 -1 2 0 4 3 4 4 4 5 5 4 3 3 3 3 3 5 5 5 6 5 6 5 5 6 7 4 5 7 7 7 11 11 10 8 8 9 11 11
8 6 4 3 2 1 -1 -1 1 5 4 4 4 4 4 4 4 4 4 5 4 4 5 4 6 5 5 5 6 6 6 5 6 5 7 7 10 7 9 8 7 6 8 9 10
9 -1 3 3 1 -2 -1 4 5 5 4 4 4 4 4 4 4 5 4 4 6 5 4 5 6 6 6 6 6 6 6 6 6 6 2 4 9 8 7 6 5 6 8 8 9
9 4 4 3 -1 -1 2 3 4 5 5 4 5 5 5 6 5 5 4 7 5 6 5 6 6 6 6 6 6 6 6 5 4 4 5 6 8 7 6 7 7 7 7 8 7
8 -1 3 3 2 1 0 1 3 5 4 4 5 5 5 6 6 5 3 6 6 6 7 8 6 5 5 7 5 5 6 5 4 4 5 5 7 9 8 8 8 8 7 8 8
6 -2 0 -3 -1 -1 0 2 2 3 3 4 4 2 1 4 6 5 3 3 5 6 7 7 5 5 6 6 6 6 5 5 3 5 6 6 6 9 8 7 7 8 7 7 8
5 2 -0 -1 -1 -1 -0 1 1 2 1 2 2 2 1 2 3 4 5 3 4 6 6 5 6 5 4 5 6 6 5 5 5 6 5 5 5 6 8 8 8 8 7 7 8
3 2 1 -0 -1 -0 -0 0 0 0 2 2 2 1 2 2 2 2 4 5 6 5 6 5 5 4 4 5 6 5 5 4 5 5 6 6 8 7 8 7 9 8 8 8 9

GFSSW_850_temp_090.txt.gz
Temp
3 3 4 4 3 3 3 3 4 4 4 4 4 4 4 5 5 5 5 6 6 6 6 6 7 8 8 9 10 10 13 15 18 19 20 19 19 17 17 18 17 15 16 15 17
3 3 4 3 3 3 3 3 3 3 3 3 4 4 4 4 4 4 5 5 5 6 6 6 7 8 9 10 10 12 14 16 19 19 19 19 18 19 18 18 17 16 15 15 15
3 3 3 3 3 4 4 4 3 3 3 3 4 4 4 3 4 5 5 5 6 5 5 5 6 6 10 10 11 12 14 17 17 16 17 18 18 18 18 19 19 18 16 15 15
3 3 3 3 3 4 4 4 3 3 3 4 4 4 4 4 6 4 4 4 5 5 5 5 6 7 9 11 11 12 13 14 15 14 15 17 18 18 18 19 18 18 16 16 16
3 3 2 3 3 4 4 4 4 4 4 4 3 3 3 4 5 4 5 5 4 5 5 5 5 7 7 10 11 11 14 13 14 13 14 16 16 18 17 17 16 16 16 16 17
3 3 2 3 3 3 3 4 5 5 4 3 3 3 3 6 4 4 5 4 4 4 4 4 5 5 7 8 10 12 12 13 13 14 14 15 16 16 17 15 16 15 16 16 16
2 3 3 3 3 3 4 4 4 4 4 4 4 3 3 4 4 4 4 4 4 4 5 5 4 5 5 7 9 11 11 12 13 14 14 14 15 15 17 15 16 16 16 15 16
3 3 3 3 3 3 4 4 3 4 3 3 4 4 4 4 4 4 4 4 4 4 5 5 5 4 5 6 9 11 12 11 13 14 14 14 15 17 16 15 16 16 16 16 16
4 4 3 3 3 3 4 4 4 3 3 3 4 4 5 4 4 4 4 3 3 3 3 3 4 4 5 4 8 10 11 12 13 13 14 15 15 17 16 15 16 17 17 16 17
4 5 5 3 4 4 4 4 3 3 3 4 4 4 4 5 4 4 4 3 3 3 3 3 4 5 6 4 8 10 12 13 13 13 13 14 15 15 15 15 16 17 17 16 17
6 6 6 5 5 4 4 3 3 3 3 4 4 4 4 4 4 4 4 3 3 4 3 1 4 5 7 6 6 13 13 13 14 13 13 14 15 15 15 15 16 17 16 16 17
7 7 6 6 5 4 4 3 3 3 4 3 3 3 4 4 4 4 4 4 5 4 3 2 5 7 9 7 6 8 12 12 13 12 13 14 14 15 16 15 15 16 17 16 16
8 7 6 6 5 4 3 3 3 3 4 4 3 3 3 4 5 4 3 4 5 4 4 3 7 8 7 5 5 9 12 13 12 12 12 13 13 14 15 14 15 15 15 16 16
8 7 6 5 4 4 3 2 2 3 4 5 4 3 3 3 4 3 3 4 5 3 3 4 5 7 6 6 5 8 13 12 12 12 11 12 13 15 15 15 15 15 15 15 15
8 7 6 5 4 3 2 2 2 3 6 4 3 2 2 4 3 3 3 3 4 5 3 5 5 6 5 7 5 7 10 12 12 12 12 11 12 16 13 15 15 15 15 15 15
8 7 5 5 4 2 2 2 2 4 7 3 3 3 3 3 3 3 3 3 3 3 4 5 4 6 8 6 5 4 9 11 11 11 9 13 13 15 14 15 16 16 16 15 15
8 6 5 4 3 2 2 2 4 7 4 5 4 2 2 2 3 4 4 3 4 4 4 5 5 6 7 5 4 3 8 8 8 9 11 12 12 15 15 14 15 17 16 15 15
8 6 5 4 2 2 2 3 6 5 4 6 5 3 2 2 2 3 3 3 4 4 4 6 5 6 6 6 5 4 6 11 10 11 12 9 11 14 15 16 15 13 14 13 14
7 6 4 3 2 2 2 5 6 5 6 5 5 4 4 3 3 3 3 4 5 5 5 6 6 7 7 4 5 6 7 9 9 9 11 12 12 14 14 14 13 12 13 12 12
7 5 3 2 2 2 3 6 5 5 5 5 5 5 6 5 4 3 4 6 5 6 6 5 6 7 5 5 3 4 6 9 9 10 11 11 12 15 14 14 14 14 13 13 12
7 5 3 2 2 1 5 5 5 6 5 4 5 5 5 5 4 4 4 6 7 6 6 4 6 5 5 5 6 6 7 9 10 10 12 12 14 13 13 13 13 13 11 11 11
7 6 2 2 3 1 5 5 4 6 5 5 4 3 4 5 5 5 4 4 7 7 6 7 6 6 6 7 9 6 9 10 11 9 8 10 13 12 13 12 11 12 10 9 8
7 4 3 3 4 4 4 4 4 5 5 5 5 5 3 4 6 6 3 4 7 7 8 8 7 7 7 6 6 6 7 9 8 8 9 12 14 12 11 11 12 11 10 8 7
7 5 3 3 1 3 2 4 4 4 5 4 2 3 3 5 7 7 3 5 6 7 6 7 8 7 10 10 8 6 8 9 7 9 10 11 12 13 12 13 13 11 10 9 8
7 3 3 5 4 3 2 4 3 3 3 4 5 4 2 3 4 5 3 4 4 5 6 8 7 8 8 8 8 8 8 8 7 9 9 12 10 14 15 13 12 10 9 8 8
6 2 1 2 1 3 3 4 3 2 2 3 2 3 2 3 2 3 2 3 3 5 4 6 7 7 7 8 8 8 8 8 9 9 9 9 10 11 11 12 11 12 9 8 8
5 3 3 1 3 4 3 2 2 1 2 2 2 3 4 2 2 2 2 2 5 5 7 7 8 8 8 7 8 9 9 8 8 8 9 8 11 11 11 11 11 12 9 9 9

GFSSW_850_temp_093.txt.gz
Temp
4 4 4 4 4 4 4 4 4 4 3 3 3 4 5 5 5 4 6 7 6 6 6 7 7 9 10 11 11 11 11 15 19 21 22 22 22 21 21 20 20 18 19 18 17
4 3 3 4 4 4 4 4 4 3 3 3 3 4 4 4 4 6 6 6 6 5 6 7 8 9 9 11 11 12 12 16 20 22 22 22 21 20 20 21 20 18 16 17 16
4 3 3 3 3 4 4 4 4 3 3 3 4 4 4 4 5 7 5 5 6 6 6 6 7 8 9 12 12 13 14 17 19 20 16 19 20 20 20 21 21 20 17 16 15
3 3 3 3 3 4 4 4 4 4 4 4 4 4 4 4 7 6 5 5 6 5 5 6 7 8 10 10 13 13 15 16 18 13 16 17 17 20 20 21 21 20 18 16 16
3 3 3 3 3 3 4 4 4 5 5 4 4 4 4 6 7 5 5 5 5 5 5 5 7 8 9 11 13 14 16 16 15 14 14 15 17 19 20 20 19 20 18 18 17
3 3 3 3 3 3 3 4 5 5 4 4 4 4 4 7 5 4 4 5 5 5 5 5 6 8 8 8 10 14 14 15 15 13 14 16 17 19 19 19 19 19 18 18 17
3 3 3 3 3 3 3 4 4 4 4 4 4 3 5 6 4 4 4 4 4 5 5 5 4 5 8 8 9 11 12 14 15 16 14 16 17 18 18 18 18 18 18 18 18
3 3 3 3 3 3 3 4 4 4 4 4 4 4 6 5 4 4 4 5 4 4 4 4 4 4 7 7 9 10 11 12 14 16 16 15 15 18 18 18 17 18 19 18 18
4 3 4 3 3 3 4 4 4 4 4 4 3 4 7 5 4 5 4 5 5 4 4 4 4 3 4 6 7 8 9 12 13 14 16 15 16 19 18 18 18 18 19 19 18
5 5 5 4 4 4 4 4 3 3 3 3 3 4 5 6 5 4 4 4 5 5 4 4 4 4 4 5 8 9 10 14 14 14 15 15 16 18 18 18 18 18 19 19 19
7 6 7 6 5 4 4 3 4 4 4 6 6 6 6 5 4 5 4 4 5 5 5 2 4 5 5 6 10 9 12 14 15 16 15 15 16 18 17 17 18 18 19 19 19
8 7 7 6 5 4 4 4 3 3 6 4 4 4 4 4 5 5 4 5 6 6 5 3 4 8 8 8 6 6 10 13 16 16 15 15 15 17 17 17 17 18 19 19 18
8 7 6 6 5 3 3 3 3 3 5 6 5 5 5 4 6 6 5 6 7 7 5 4 7 9 8 6 5 6 10 13 14 14 14 14 15 16 17 17 17 17 18 18 19
9 7 6 6 4 3 3 3 3 3 4 7 5 4 3 4 5 5 5 5 7 5 3 5 6 8 7 5 6 8 13 13 14 12 12 14 13 16 16 17 17 17 17 17 18
9 8 7 5 4 3 3 2 2 2 7 5 5 3 3 4 5 5 4 5 6 5 5 5 6 8 7 7 7 7 8 13 13 13 13 13 13 16 17 16 17 17 17 17 17
9 8 6 4 3 2 2 2 2 4 7 5 5 4 3 2 5 5 5 4 5 6 5 4 4 7 8 9 8 5 9 9 12 12 10 14 14 16 16 17 18 18 17 17 17
9 7 6 4 3 2 2 2 4 7 6 6 6 3 3 3 4 5 6 5 5 4 5 6 5 6 6 4 4 4 8 8 8 8 11 15 14 16 17 17 18 18 18 18 17
8 6 5 3 2 2 2 4 6 8 6 9 8 4 3 3 3 5 5 4 6 7 7 7 5 5 6 6 5 5 6 9 10 10 12 13 13 16 18 17 16 16 17 18 17
7 6 3 3 2 3 3 6 7 4 8 4 7 4 5 4 4 4 4 6 8 7 6 8 6 6 7 6 6 5 7 10 11 14 13 13 14 15 16 16 15 16 15 15 15
6 4 3 2 2 2 5 7 7 8 7 7 5 7 6 4 4 3 5 8 7 8 8 5 6 8 6 6 5 4 4 9 10 10 11 13 15 15 14 15 16 16 15 15 15
6 7 2 2 2 4 5 6 6 7 7 7 7 6 6 5 4 4 6 8 9 8 8 6 6 5 5 6 6 5 6 9 11 11 13 12 14 15 15 14 15 15 14 14 15
6 7 4 3 5 6 6 6 6 7 7 6 5 4 4 4 6 5 5 6 9 8 7 5 6 6 6 8 10 9 8 11 11 11 11 11 13 15 14 14 14 14 13 12 12
8 5 4 4 6 6 7 6 6 6 6 6 4 4 6 4 6 6 3 5 8 9 7 6 7 7 6 6 6 7 8 9 11 9 10 12 13 14 13 14 14 14 13 11 10
7 6 5 5 5 6 5 6 6 5 6 6 6 6 6 7 5 5 3 5 8 8 6 7 6 6 9 10 9 6 8 11 7 10 13 13 13 13 13 14 15 13 13 12 10
7 5 5 8 7 6 6 6 5 4 5 5 7 6 2 5 7 5 3 3 6 6 6 6 7 9 10 10 10 9 10 10 7 10 10 13 13 15 16 15 14 14 12 11 11
7 5 4 6 4 6 6 6 4 4 4 5 4 5 4 4 3 3 3 4 4 5 4 8 8 9 8 10 10 9 10 10 10 11 11 11 11 14 14 13 13 14 12 11 10
7 5 6 5 6 7 5 4 4 3 4 4 4 5 5 4 3 3 3 3 3 5 7 9 9 9 9 9 10 9 10 10 10 10 11 10 11 13 13 13 12 13 12 11 11

GFSSW_850_temp_096.txt.gz
Temp
4 4 4 3 4 4 4 5 4 5 5 4 3 4 4 5 5 5 5 6 6 6 6 7 7 8 9 9 10 11 10 12 15 18 20 23 21 22 22 20 20 18 19 17 17
4 4 3 4 4 4 4 4 4 5 5 4 4 4 4 5 4 5 6 6 6 7 6 6 7 8 9 10 10 11 10 13 16 19 20 19 22 22 21 20 18 17 17 17 17
4 4 4 4 4 4 4 4 4 5 5 4 5 5 5 5 4 7 6 6 6 7 6 6 6 7 9 9 10 11 11 14 16 18 15 16 19 22 20 18 19 17 17 16 16
3 4 4 3 3 4 4 4 4 4 6 5 5 4 5 4 6 6 6 6 6 6 5 7 6 7 8 9 10 11 13 14 16 12 12 14 15 16 20 21 20 18 17 16 16
4 3 4 3 3 3 3 4 4 5 5 5 4 4 5 5 7 5 5 5 6 6 6 6 6 7 8 11 11 12 14 14 15 13 12 14 15 15 15 19 21 19 17 16 16
4 3 4 3 3 3 3 3 4 5 5 5 4 4 4 6 6 5 5 5 6 6 6 6 6 5 8 9 9 11 12 14 15 13 12 13 14 15 15 17 19 18 18 17 16
4 4 4 3 3 3 3 3 4 4 4 4 4 4 5 6 5 5 5 5 5 5 5 6 6 5 5 8 8 8 10 13 12 12 11 12 14 12 14 17 19 19 18 18 17
6 5 4 4 3 3 3 4 4 4 4 4 4 4 5 6 6 5 5 6 5 5 4 5 5 5 4 7 8 7 10 9 11 13 13 11 11 15 15 16 18 19 18 18 18
7 7 6 3 3 4 4 5 4 4 4 4 4 4 6 5 5 5 5 5 5 5 4 5 4 3 3 6 6 6 8 9 12 14 15 13 13 16 17 17 17 18 19 18 18
8 7 7 5 4 5 5 5 4 4 4 3 4 4 5 6 6 5 5 5 5 6 5 5 4 4 3 5 6 6 6 10 12 13 13 14 14 16 18 18 18 18 18 19 18
9 8 7 6 5 5 5 3 4 3 4 6 6 6 6 6 5 5 5 5 5 6 5 2 3 4 4 4 7 8 9 10 13 14 13 13 14 15 17 18 17 18 18 19 19
9 8 7 7 5 5 4 4 3 2 3 6 5 5 5 5 6 6 5 5 6 5 3 3 3 6 6 5 5 5 7 10 13 14 13 13 13 15 16 17 17 18 18 18 19
9 8 7 6 4 4 3 3 3 3 4 6 5 5 5 5 6 6 5 6 6 6 6 4 6 7 7 6 5 6 6 10 9 13 13 13 12 14 16 17 17 17 18 19 19
9 8 7 5 4 4 3 3 3 3 4 6 6 5 3 4 5 6 5 5 6 5 5 4 7 6 7 6 6 7 9 9 12 11 9 11 9 10 12 15 15 17 17 18 19
10 8 6 4 3 3 3 3 3 3 6 6 5 4 3 3 5 5 5 5 5 5 5 4 5 7 5 6 7 7 7 9 9 11 12 11 11 11 14 14 15 16 17 17 17
9 7 6 3 3 3 3 2 3 3 6 4 6 5 3 1 3 5 5 4 5 5 5 3 4 6 7 7 7 6 8 9 8 8 8 10 11 12 13 15 14 16 17 17 17
8 6 5 3 3 3 2 2 4 6 7 6 7 4 3 3 3 6 6 5 4 4 4 5 5 6 6 5 5 4 6 7 8 8 9 11 11 12 15 16 16 16 17 17 17
7 6 4 3 3 2 3 4 6 6 5 8 8 5 3 3 2 5 6 3 5 5 5 6 4 5 5 6 5 5 6 7 7 7 9 12 9 12 15 16 16 16 18 17 17
6 4 3 3 2 2 3 5 5 5 7 5 6 4 5 3 3 3 4 4 7 6 5 6 5 6 6 6 6 5 6 6 7 11 8 11 14 14 13 13 15 15 15 15 17
5 4 4 3 3 3 5 6 5 7 7 7 5 8 5 4 3 3 4 7 8 8 8 5 5 7 6 7 5 4 4 7 7 8 9 11 11 13 13 13 13 14 15 15 15
6 6 4 4 4 5 4 5 6 7 7 5 6 5 6 5 4 4 6 8 9 8 9 7 6 5 6 6 5 4 5 6 8 9 8 8 10 13 11 12 13 13 14 15 15
6 6 5 4 4 6 5 6 6 7 7 7 4 3 5 4 5 4 5 7 9 9 7 5 5 5 6 8 9 8 7 8 8 10 7 8 9 11 11 12 13 13 13 13 14
8 5 5 5 5 5 7 7 7 6 6 6 5 6 6 4 5 4 3 6 7 9 6 5 6 6 6 6 7 7 8 9 9 7 9 9 9 11 12 13 13 13 12 11 11
7 5 5 5 6 6 5 6 6 5 6 6 6 6 5 7 7 4 3 6 7 7 6 6 6 6 7 8 7 5 7 9 6 7 10 7 10 12 11 12 12 13 13 11 10
7 6 6 6 6 7 6 7 5 5 5 6 7 5 2 4 6 5 3 4 6 6 6 6 6 6 9 10 9 8 7 9 7 9 8 11 12 12 12 13 13 13 12 11 10
7 5 6 6 5 6 6 5 5 4 5 5 5 5 4 4 3 3 3 4 4 5 5 6 6 9 6 10 10 9 10 10 9 9 10 10 10 12 12 13 12 13 12 11 11
8 7 8 6 6 6 5 4 4 4 5 5 4 5 5 5 3 4 4 3 3 4 6 8 6 7 7 9 10 8 9 9 10 10 10 9 10 10 10 11 12 12 12 11 11

GFSSW_850_temp_099.txt.gz
Temp
4 4 4 4 4 4 4 4 4 4 5 5 3 4 4 4 4 5 5 6 6 6 6 6 7 8 8 9 9 9 10 11 14 14 16 19 20 22 21 20 19 19 18 19 18
5 4 4 4 4 4 4 4 4 4 5 5 4 5 5 5 5 5 6 5 5 6 6 6 6 7 8 9 10 9 9 10 12 14 14 14 18 21 18 17 17 17 18 17 18
5 4 4 4 4 3 4 4 4 4 4 5 5 5 5 5 5 5 5 6 6 6 6 6 6 7 7 8 9 10 9 12 12 13 13 14 17 17 17 16 17 16 16 16 17
4 4 4 4 4 4 3 4 4 4 5 6 5 5 5 4 5 5 6 6 6 6 6 6 6 6 7 8 9 8 11 11 13 11 12 13 14 15 15 17 18 18 18 17 17
5 5 5 6 4 3 4 4 4 4 5 5 5 5 5 4 5 5 6 6 6 6 6 6 6 5 6 8 9 8 10 11 12 10 9 12 13 13 13 16 17 17 18 16 16
4 5 5 5 4 4 4 3 4 4 5 5 5 4 4 4 5 5 5 5 5 6 6 5 6 5 6 7 7 8 9 10 13 9 10 12 12 12 15 16 15 18 18 17 16
4 6 7 6 4 4 4 3 4 4 4 4 4 4 4 5 5 5 5 5 5 5 5 5 5 5 4 7 8 8 8 11 11 10 10 12 11 12 12 14 14 15 17 17 17
5 6 8 7 4 4 4 5 4 4 4 4 4 4 4 5 6 5 5 5 5 5 5 5 5 5 4 3 8 8 7 9 10 11 11 12 10 12 12 11 11 14 17 17 17
5 6 8 7 6 4 5 5 5 4 4 4 4 4 5 5 5 5 5 5 5 5 5 4 4 3 3 3 6 5 7 7 10 12 10 11 11 11 12 10 10 13 17 17 17
6 8 8 7 7 5 5 5 4 4 4 4 4 4 5 6 5 5 5 5 5 5 5 5 4 4 3 3 6 6 6 8 9 11 10 9 11 13 11 11 10 13 15 17 17
7 8 8 7 6 5 5 4 4 4 4 5 5 6 6 5 5 5 5 5 5 5 2 2 2 2 4 4 3 7 6 7 11 12 11 10 11 12 13 11 10 12 16 17 17
7 8 8 7 5 5 4 3 4 3 3 5 5 5 5 5 5 6 5 5 6 3 2 1 2 5 5 5 4 5 6 8 10 13 12 12 12 13 14 15 14 14 16 18 17
8 8 7 6 5 4 3 3 3 3 2 5 5 5 5 4 5 5 5 5 5 4 4 2 5 6 6 5 4 5 6 8 9 12 11 11 11 12 14 15 16 16 17 18 18
9 8 6 6 4 4 4 3 3 3 3 5 6 5 4 3 4 5 5 5 5 4 4 3 4 6 6 5 5 6 6 8 10 9 9 9 9 11 12 13 14 16 17 18 18
9 7 5 5 4 4 3 3 3 3 0 5 5 4 2 2 3 5 5 5 4 4 4 3 3 5 5 6 6 6 6 8 8 8 9 8 8 10 11 12 12 13 16 17 17
8 6 5 3 3 3 3 3 2 0 -1 3 5 4 3 1 2 4 4 4 4 5 4 3 3 5 7 6 6 6 7 7 7 7 7 8 7 10 11 12 12 13 16 17 17
8 6 5 3 4 2 2 2 1 -0 5 4 6 3 3 2 3 5 5 2 1 2 3 4 4 6 6 5 5 4 6 7 8 8 7 9 8 10 12 13 13 13 15 17 17
7 5 4 4 3 2 3 0 -0 5 1 7 6 4 3 2 2 3 4 0 4 3 3 2 5 5 6 5 4 5 5 6 8 7 7 10 9 10 12 13 15 15 16 17 17
6 5 4 4 4 3 3 -1 1 1 6 4 4 2 4 3 3 3 0 2 5 4 5 3 5 6 6 6 5 5 5 5 7 9 6 8 10 12 11 12 13 14 15 16 17
6 3 4 5 4 4 1 2 3 6 5 6 2 6 5 4 3 2 2 5 6 7 7 5 5 6 5 6 4 5 5 6 5 7 8 8 11 10 11 11 12 12 14 15 15
5 4 4 5 5 5 -1 1 5 6 6 5 4 5 3 4 4 1 4 6 8 7 8 6 5 5 5 5 4 4 4 6 7 6 7 6 8 10 10 11 11 11 13 14 15
5 3 5 5 3 2 -0 5 6 5 6 6 4 3 4 5 5 4 5 5 6 8 5 4 5 5 5 5 7 6 7 8 5 7 4 3 7 10 10 10 11 11 12 13 14
6 5 4 4 -1 -1 5 6 6 5 5 5 5 5 5 4 5 5 3 5 7 6 4 5 6 5 5 6 7 7 7 8 7 6 6 7 8 10 10 10 12 12 12 12 12
7 1 4 4 6 3 4 5 4 5 5 5 5 4 4 5 5 4 3 5 6 6 5 5 6 5 5 6 5 5 6 7 5 5 7 7 9 10 11 11 11 12 12 11 11
7 3 5 1 2 3 4 5 4 4 5 5 5 3 4 3 5 4 3 4 6 6 5 6 6 5 6 8 8 6 6 7 6 8 8 9 10 11 11 10 11 12 11 11 10
7 5 6 4 5 4 4 4 3 3 4 4 3 4 4 3 3 3 3 3 3 5 4 4 5 7 4 9 8 7 7 7 8 9 9 9 10 9 11 12 11 11 11 10 10
6 7 8 4 4 2 2 3 3 3 4 4 4 3 5 3 3 3 3 3 3 4 6 6 5 5 4 8 8 7 8 8 9 10 10 8 9 9 9 10 10 10 11 11 10

GFSSW_850_temp_102.txt.gz
Temp
6 4 4 5 4 4 4 4 5 4 4 4 4 4 4 5 5 5 6 6 5 5 6 6 7 7 7 8 8 9 8 9 12 13 13 17 18 19 20 20 18 19 18 18 18
4 4 5 4 5 4 4 4 4 4 4 4 4 4 5 5 5 5 6 6 6 6 5 6 6 6 5 8 8 8 8 11 12 12 13 14 18 19 18 17 16 18 18 17 16
4 4 4 4 4 4 4 4 4 3 4 4 5 5 5 5 5 6 6 6 6 5 5 5 5 4 5 7 8 8 8 11 11 11 11 12 14 16 16 15 16 17 17 17 17
4 4 4 4 4 4 4 4 4 3 4 5 5 5 5 4 5 5 6 6 5 6 6 6 5 5 5 6 8 8 9 10 10 10 10 11 12 13 16 14 16 20 19 18 18
4 4 4 4 4 4 4 4 3 4 5 5 4 4 4 4 5 5 5 6 5 6 5 5 5 6 5 5 8 7 8 10 10 9 9 10 12 14 15 14 15 18 19 19 18
4 4 4 4 4 4 4 4 3 4 4 4 4 4 4 4 5 5 5 5 5 5 5 5 5 6 5 5 6 8 8 9 10 8 9 9 11 11 13 14 15 17 18 18 18
5 4 4 4 4 4 4 4 4 4 4 4 4 4 4 5 5 5 5 5 5 5 5 5 5 5 3 4 4 8 8 9 10 9 9 8 10 12 12 13 13 15 17 18 18
5 4 4 5 5 5 4 5 5 4 4 4 4 4 4 5 5 5 5 5 5 5 5 4 5 5 3 3 6 7 7 8 9 9 9 8 9 12 11 12 12 12 14 17 17
7 5 4 5 7 5 5 5 5 4 4 4 4 3 4 5 5 5 5 5 5 5 5 4 4 4 3 3 5 6 7 7 9 10 9 9 9 10 11 11 11 11 13 13 16
8 7 6 6 6 5 5 5 5 4 4 4 4 3 5 5 5 5 5 5 5 5 5 4 4 4 3 3 5 6 6 6 8 10 9 9 10 9 10 10 10 10 12 12 13
9 9 8 7 5 5 5 5 4 4 4 5 4 5 5 5 5 5 5 5 5 5 2 2 0 1 5 4 3 4 6 7 9 11 10 10 11 10 10 10 9 10 11 12 13
9 9 8 7 5 4 4 4 4 3 4 5 5 5 5 5 4 5 5 5 5 3 2 1 1 4 5 4 4 4 6 6 8 11 10 10 10 10 9 9 9 10 10 11 13
10 9 8 6 4 3 3 3 3 3 3 5 5 5 5 4 4 5 5 5 4 3 3 1 4 5 5 4 4 4 6 6 7 9 9 10 9 10 10 10 9 9 9 12 14
10 9 7 5 4 3 3 3 3 3 -1 4 5 4 4 4 3 4 5 5 4 3 3 2 4 5 6 5 4 5 6 7 7 7 8 8 8 8 8 11 11 10 10 13 13
9 8 6 5 4 3 3 2 3 3 -2 5 5 4 3 2 2 4 5 4 3 3 4 2 3 4 5 6 5 5 6 7 8 7 8 8 9 9 9 11 13 13 13 14 16
9 7 5 4 3 2 3 3 3 -1 -1 2 5 4 3 2 2 4 4 4 4 3 4 2 3 3 5 6 6 5 6 8 8 7 6 8 9 10 10 11 13 13 14 16 17
8 6 5 4 3 2 3 2 -1 -1 3 3 5 3 3 3 3 4 4 1 1 1 2 3 3 5 6 5 4 4 6 7 8 7 6 7 8 9 10 12 14 13 14 16 16
7 5 5 3 3 2 2 -1 -2 3 2 6 6 4 3 2 2 2 2 -0 2 2 2 4 5 5 6 5 3 5 5 7 8 6 7 9 8 10 11 12 14 14 15 16 16
5 5 4 3 3 3 3 -3 0 0 5 3 4 -1 4 3 3 3 -2 0 3 3 4 3 5 6 6 5 5 5 5 5 6 7 5 7 9 10 10 10 10 13 14 15 16
6 5 4 4 3 3 0 1 2 5 5 5 3 5 3 4 1 3 1 4 5 4 5 4 5 5 5 5 4 4 5 5 4 7 6 7 9 10 11 11 10 10 13 15 16
5 3 4 4 3 4 -2 -1 5 6 6 5 4 4 3 3 4 -1 4 5 5 7 6 4 5 4 5 5 4 5 5 5 7 4 5 5 7 8 7 11 10 10 12 13 14
4 3 4 3 2 -0 -1 4 6 5 5 4 4 4 3 4 5 4 3 4 5 6 4 4 4 3 4 6 6 5 6 6 3 6 2 1 7 9 7 9 9 10 11 12 13
5 3 3 3 -1 -2 4 5 5 5 4 5 5 4 5 4 4 5 3 5 5 5 5 5 5 4 4 7 6 6 6 7 5 3 4 2 6 9 8 8 10 10 11 12 12
6 0 3 3 4 1 2 4 3 4 5 5 4 3 4 4 4 4 1 5 6 6 5 5 5 3 3 6 5 4 6 7 4 2 5 3 7 10 9 10 10 11 11 11 11
7 2 4 1 2 2 3 4 3 3 4 4 4 4 3 4 5 4 3 3 6 6 5 6 5 5 6 6 6 6 6 6 4 6 7 8 8 10 9 10 11 11 11 11 10
6 3 5 3 4 2 3 3 2 3 4 3 3 4 3 3 2 4 3 3 4 4 4 3 4 5 4 8 7 7 7 7 8 8 7 7 8 8 9 10 10 10 10 11 10
7 7 8 3 1 1 1 1 2 2 3 4 3 3 3 2 2 3 3 3 3 3 5 6 4 4 4 6 8 5 7 6 8 9 8 7 8 9 9 9 9 10 10 10 11

GFSSW_850_temp_105.txt.gz
Temp
5 5 5 4 5 5 4 4 5 5 4 4 4 4 3 4 5 5 5 6 6 6 5 6 6 6 7 7 7 8 8 8 9 12 12 14 15 17 19 20 18 18 18 17 17
4 4 5 4 4 4 4 4 4 4 3 4 4 4 4 5 5 5 6 6 6 6 5 6 6 5 6 6 7 7 7 9 10 11 12 11 13 17 17 17 17 18 18 17 16
6 4 4 4 4 4 4 4 4 4 3 5 5 5 5 4 4 5 5 5 5 5 5 5 5 5 4 6 6 7 7 8 10 11 11 9 10 13 16 17 17 17 15 18 19
6 4 4 4 4 4 4 4 4 4 3 5 4 4 4 4 4 5 5 5 5 5 5 5 5 4 5 5 5 6 7 7 8 10 11 9 10 12 15 14 16 17 20 19 19
8 4 4 4 3 4 4 4 4 3 4 4 4 4 4 4 5 5 5 5 5 5 5 5 5 5 5 5 5 5 8 8 9 10 8 8 10 11 14 15 16 17 19 19 18
7 5 4 4 4 4 4 3 4 3 4 4 3 4 4 3 5 5 5 5 5 5 5 5 5 5 5 5 5 5 7 9 9 9 8 7 9 10 12 15 16 17 18 19 19
9 7 4 4 4 4 3 4 3 4 4 4 3 4 4 5 5 5 5 5 5 5 5 5 5 5 3 5 4 4 5 8 9 10 8 7 8 10 11 14 13 15 16 17 18
9 8 6 3 4 3 4 3 4 5 4 3 3 3 4 5 5 5 5 5 5 5 5 4 4 4 3 3 3 5 7 7 9 10 8 6 7 9 10 13 11 12 14 15 16
9 8 8 6 5 4 4 4 4 5 4 4 4 3 4 5 5 5 5 5 5 5 4 4 4 4 3 3 3 5 5 6 9 10 8 8 6 8 9 11 11 11 13 15 15
10 9 9 8 5 5 5 5 4 4 4 4 3 3 5 5 5 5 5 5 5 5 4 4 4 3 3 3 4 5 6 6 8 9 9 8 8 8 8 10 10 10 12 14 15
10 10 9 8 6 4 5 4 4 3 4 4 4 4 5 5 5 5 5 5 4 4 2 2 0 0 3 3 4 4 5 6 8 9 9 8 9 8 8 8 9 10 11 12 14
9 10 9 7 6 5 4 4 4 4 4 5 5 4 5 4 4 5 5 5 4 2 2 -0 0 4 5 4 4 4 5 6 7 9 10 9 9 9 8 8 8 9 10 11 13
9 10 9 7 5 4 4 3 3 4 3 5 5 5 4 4 4 4 5 5 4 3 2 1 3 5 5 3 4 4 6 5 8 8 8 9 9 9 8 8 9 8 9 11 12
9 9 8 6 4 3 3 3 3 3 -2 4 5 4 4 3 3 4 4 4 4 3 3 1 3 4 5 4 4 5 6 7 7 8 8 7 8 8 8 8 9 8 9 12 13
9 8 7 5 4 3 3 3 3 3 0 5 4 4 3 3 2 4 4 4 3 3 2 1 2 4 5 6 4 5 7 7 6 7 7 7 8 9 8 9 8 9 10 13 13
9 7 6 5 4 3 3 3 3 -1 -0 2 4 3 4 3 3 3 4 4 4 4 3 2 3 3 4 6 5 4 6 7 6 6 6 8 8 9 8 10 10 10 10 11 13
8 7 5 5 3 3 3 2 -1 -2 3 3 4 3 3 3 4 3 3 1 1 1 0 3 3 3 6 5 4 3 7 7 7 7 6 8 9 10 10 11 11 11 12 13 12
7 6 4 4 3 3 2 -2 -2 2 0 5 4 4 3 2 2 3 1 0 2 2 2 4 5 5 5 4 4 4 5 3 7 6 7 7 8 11 11 11 12 13 13 13 14
6 4 3 3 2 2 2 -5 -0 -0 4 3 3 -1 4 3 3 3 -2 0 3 3 4 3 4 6 4 4 5 4 5 5 5 5 6 7 8 9 10 10 11 12 14 14 15
6 4 3 2 2 2 -1 1 1 4 4 4 1 4 1 4 3 3 0 4 4 3 4 3 3 5 5 5 4 4 4 6 2 5 7 7 8 9 8 8 9 9 11 14 15
5 4 2 2 2 2 -3 -1 3 5 5 4 3 4 3 4 4 3 2 5 4 5 5 4 3 4 5 4 4 4 3 6 6 4 5 6 8 8 7 7 9 8 11 13 14
5 2 2 2 1 -2 -2 3 5 5 5 4 3 5 3 4 5 4 1 3 5 5 5 4 3 1 3 6 6 6 6 6 4 6 3 1 7 7 6 7 9 9 10 12 13
4 2 1 2 -1 -3 3 4 5 4 4 4 4 4 4 4 4 6 2 5 5 5 5 5 4 1 3 5 6 5 6 6 4 3 5 2 6 8 8 8 9 9 10 11 11
6 1 1 2 2 1 2 3 3 4 4 4 3 3 4 4 4 3 0 5 6 6 5 6 5 3 2 6 5 4 5 6 2 1 5 3 6 8 8 9 9 10 10 10 11
6 2 3 0 1 1 3 3 2 3 4 4 3 3 1 3 4 3 1 4 6 5 5 5 5 5 6 6 6 6 6 6 2 5 3 6 7 8 7 8 9 10 10 10 10
6 3 3 1 2 1 3 2 2 2 3 3 3 5 4 3 1 4 3 3 2 4 5 5 4 4 4 7 6 6 6 6 7 6 7 6 7 8 9 9 9 9 10 10 10
6 6 7 2 1 1 0 1 2 2 3 3 3 2 3 3 3 3 2 2 3 3 4 5 3 3 4 5 7 5 6 6 7 8 6 7 8 9 9 8 7 8 8 9 10

GFSSW_850_temp_108.txt.gz
Temp
6 5 5 4 4 5 4 4 4 4 4 4 4 4 4 4 5 5 6 6 6 6 5 5 6 6 6 6 6 7 7 7 8 9 10 13 12 13 14 16 17 18 17 18 16
6 6 4 4 4 4 4 4 4 4 4 4 4 3 3 5 5 5 6 6 5 6 5 5 6 5 5 5 6 6 6 8 9 9 9 12 12 10 12 15 17 17 18 17 16
4 5 4 4 4 4 4 4 4 4 4 3 4 4 4 4 4 5 6 5 5 5 5 5 5 4 4 5 5 5 6 8 9 9 11 11 11 11 10 12 15 16 17 15 16
5 5 4 4 4 4 4 4 4 4 3 4 3 4 4 4 4 5 5 5 5 5 5 5 5 4 5 5 5 4 6 7 8 8 8 9 11 10 9 10 15 15 18 16 16
8 4 4 4 4 3 4 4 4 4 3 4 4 4 4 3 5 5 5 5 5 5 5 5 5 4 4 4 5 5 5 6 7 8 8 9 9 9 9 10 12 15 18 17 15
8 5 4 4 4 3 4 4 4 3 3 4 3 4 3 3 5 5 5 5 5 5 5 5 5 5 4 5 4 5 5 5 6 7 8 9 9 8 9 9 11 12 17 18 18
8 8 4 4 4 3 3 4 3 3 4 4 3 3 3 5 5 5 5 5 5 5 4 4 4 4 4 5 2 4 4 5 6 8 8 8 8 8 8 8 10 14 17 18 18
8 7 4 3 6 6 3 4 3 4 4 4 3 3 4 5 5 5 5 5 5 5 4 4 4 4 4 3 3 3 4 5 6 8 7 8 8 8 7 8 8 11 16 18 17
7 6 8 3 5 6 4 3 4 4 4 3 3 3 4 5 5 5 5 5 4 5 4 4 4 4 3 3 2 3 5 5 7 9 9 7 9 8 7 6 9 9 12 15 17
6 6 7 4 4 6 6 5 4 4 4 3 3 3 5 5 5 5 5 5 4 4 4 4 3 2 2 3 -1 3 5 5 7 8 9 7 8 8 6 5 7 9 9 11 14
7 5 6 5 4 6 5 5 4 3 4 4 4 4 5 5 5 5 5 5 4 4 3 1 -0 -1 1 3 3 4 3 4 7 9 9 8 8 9 7 5 7 8 8 10 11
5 6 4 6 3 5 5 4 4 4 4 5 4 4 4 4 4 4 4 4 4 2 1 -0 -0 3 4 4 4 4 4 6 7 8 9 8 7 8 6 6 6 8 8 9 11
6 5 4 7 3 4 5 4 3 4 3 5 5 4 4 4 3 4 4 4 3 2 1 0 2 3 4 3 3 4 4 5 7 8 8 8 8 8 7 7 7 8 8 9 11
5 4 4 7 4 4 4 3 3 4 -3 4 4 4 4 3 3 4 4 4 4 3 2 1 2 3 4 3 4 3 5 6 8 7 8 6 8 8 8 8 8 8 8 9 11
5 4 3 4 4 4 4 3 3 4 -0 4 4 4 3 3 2 4 4 4 3 3 2 -0 2 3 4 5 4 5 6 6 6 6 7 7 8 7 8 8 8 8 8 10 12
4 4 2 3 3 4 3 3 4 -1 -1 2 4 3 4 3 3 3 4 4 3 3 2 1 3 3 3 4 3 3 6 7 6 6 6 7 8 7 8 9 9 9 8 10 11
4 4 2 3 4 4 3 3 -1 -2 2 3 4 3 3 3 3 2 2 1 1 1 2 3 3 2 3 4 3 3 4 5 5 5 7 7 8 10 9 10 10 10 9 10 11
4 4 2 2 4 3 3 -1 -1 2 -0 4 4 3 2 3 2 3 1 0 1 2 1 3 4 5 5 4 4 4 4 4 7 7 8 8 8 10 10 10 11 12 11 10 12
3 2 3 2 3 3 3 -3 -0 -1 3 3 2 -2 5 3 4 1 -3 -0 2 2 4 4 4 5 5 5 4 5 5 5 5 6 4 6 8 10 8 8 9 10 11 11 12
3 2 2 2 2 2 -1 2 1 3 4 4 -0 4 2 3 4 3 -0 4 3 3 3 3 1 5 6 4 4 4 5 5 4 6 8 7 7 7 7 7 7 9 11 12 12
2 2 2 1 2 2 -2 -1 2 4 5 4 3 3 3 5 3 -0 1 4 3 4 4 3 3 4 4 4 4 5 5 6 5 4 6 6 7 8 6 6 7 7 9 11 12
3 2 1 1 1 -3 -2 2 4 4 4 3 3 3 5 4 4 -1 1 3 4 4 5 4 2 2 5 6 5 5 5 5 4 6 2 2 6 7 5 6 7 7 9 10 11
2 1 1 1 -1 -3 2 3 4 4 4 4 3 4 4 5 3 4 -0 4 4 4 4 4 2 -2 2 4 6 5 5 6 3 3 5 5 7 7 6 7 8 8 9 10 11
4 1 1 1 1 1 2 2 3 4 4 4 3 3 4 4 3 3 -0 5 5 5 6 5 5 2 2 4 5 3 5 4 1 2 5 3 7 7 6 7 7 8 9 10 10
5 1 2 1 -0 0 2 2 2 3 3 4 3 3 1 2 3 3 1 5 5 5 5 5 4 5 6 6 5 5 5 6 1 4 3 6 7 7 7 6 6 8 9 10 10
5 2 2 0 1 1 3 2 2 2 2 3 3 3 2 2 1 2 4 4 1 4 5 5 4 4 4 5 6 5 5 6 6 6 6 6 7 8 8 8 7 7 8 9 9
6 5 6 1 0 1 0 1 2 2 3 3 3 2 3 2 3 3 3 2 3 3 4 5 3 2 4 4 6 4 5 6 7 7 6 8 8 8 7 6 6 7 8 7 8

GFSSW_850_temp_111.txt.gz
Temp
9 9 5 4 4 5 5 5 5 5 5 4 4 4 3 4 5 5 6 6 6 6 6 5 5 6 6 6 6 7 6 7 8 8 10 12 12 12 13 13 14 15 15 18 19
9 9 5 5 4 4 4 5 5 5 5 4 3 4 4 5 6 6 6 6 6 5 5 5 5 5 5 5 6 6 6 7 10 10 10 10 11 12 12 13 13 13 16 17 16
9 8 6 5 4 4 4 5 4 5 4 4 4 4 4 5 5 5 5 5 5 5 5 5 5 5 4 4 5 5 6 8 8 9 9 9 11 12 11 12 12 13 12 15 17
8 8 8 6 4 4 4 4 4 5 4 3 4 4 4 4 5 5 5 5 5 5 5 5 5 4 5 4 5 4 6 6 7 8 8 9 9 10 12 11 13 12 11 12 15
8 8 8 6 4 4 4 4 4 4 4 4 4 4 4 4 5 5 5 5 5 5 5 5 4 4 4 4 4 4 6 6 6 6 7 8 8 9 10 11 12 11 11 11 12
9 8 8 5 6 4 3 4 4 4 3 3 4 4 4 3 5 5 5 5 5 5 4 4 4 4 4 4 4 5 5 5 5 6 6 8 9 8 9 9 10 11 11 11 12
8 7 7 4 4 4 3 3 4 3 3 4 3 3 4 5 5 5 5 5 5 5 4 4 4 4 4 4 4 3 3 3 5 6 7 8 8 8 9 8 9 10 11 11 12
8 8 6 4 3 4 3 3 3 3 4 4 3 3 4 5 5 5 5 5 5 4 4 4 4 3 3 3 4 3 3 4 7 6 7 8 7 10 9 8 8 9 9 9 13
7 6 5 7 3 3 3 3 3 3 4 3 3 3 4 5 5 5 5 5 4 4 4 4 4 3 3 3 3 3 3 5 6 7 8 7 8 9 7 7 9 9 6 8 11
6 6 4 7 3 3 3 3 3 3 4 3 3 3 5 5 5 5 5 4 4 4 4 3 3 2 2 2 1 1 3 4 5 7 8 6 8 7 7 8 7 5 4 7 9
7 7 7 5 3 3 3 3 3 3 3 4 4 4 5 4 4 4 4 4 4 4 2 1 2 1 2 2 3 3 3 3 5 6 7 6 8 9 7 6 5 5 6 7 8
7 6 6 6 3 3 3 3 4 5 4 4 4 4 4 4 4 4 4 4 4 2 1 1 1 3 3 3 3 3 4 5 6 7 7 8 8 9 6 6 5 5 6 9 7
6 6 6 6 3 3 3 3 4 4 4 4 4 4 4 4 3 4 4 4 3 2 1 1 3 3 3 3 3 3 4 4 6 8 8 8 7 7 7 6 6 6 7 8 7
5 5 5 5 3 3 3 3 4 4 -1 4 4 4 4 3 3 4 4 4 3 2 2 1 2 3 4 3 3 4 5 5 8 7 8 6 8 8 7 7 7 7 7 7 7
5 5 5 5 3 2 3 3 4 4 1 4 3 3 4 3 3 3 4 3 2 3 2 1 2 3 3 5 4 5 3 5 7 7 7 7 9 7 8 7 8 8 7 7 8
5 5 5 5 3 3 3 3 4 0 1 2 3 3 4 3 3 3 3 3 3 2 2 2 3 3 2 3 3 3 5 6 7 7 7 7 9 8 8 8 9 8 7 7 10
4 4 5 5 3 3 3 3 0 0 2 2 2 4 2 2 3 2 1 1 1 2 0 3 3 2 2 4 4 4 4 5 7 6 7 7 9 9 9 9 10 9 7 9 10
4 3 4 4 3 3 2 0 0 2 -0 3 3 3 -0 1 1 2 1 1 1 2 -1 1 3 5 5 4 4 4 4 5 7 7 8 9 8 8 8 8 10 10 9 9 10
4 3 3 3 3 2 3 -1 1 -0 3 3 2 -3 3 2 3 1 -2 0 2 1 3 3 2 5 5 3 3 5 5 5 5 5 7 6 8 9 9 8 8 9 9 8 10
3 2 2 2 2 1 0 2 1 2 3 3 -0 3 1 3 2 -1 -0 3 3 3 3 3 3 5 5 3 4 5 5 5 5 6 8 7 7 7 7 7 7 9 9 8 10
3 2 2 2 1 2 -1 -1 2 4 4 4 3 3 3 3 2 -4 1 3 3 4 2 3 2 5 4 5 5 5 6 6 5 4 8 8 7 7 6 5 6 7 8 9 10
2 2 2 1 1 -2 -2 1 3 3 4 3 3 3 4 3 3 -2 1 3 4 4 4 4 2 3 5 5 5 5 5 5 5 6 3 6 6 7 6 6 6 6 7 8 9
1 1 1 1 -0 -3 1 3 4 3 3 3 3 4 4 4 2 3 -1 4 4 4 5 5 3 1 4 6 6 4 5 5 3 4 4 5 7 7 6 7 6 6 7 8 9
3 2 1 1 1 0 1 2 2 3 3 3 2 3 4 4 2 3 -1 5 5 5 6 6 5 3 5 5 5 4 5 4 2 5 5 5 7 6 6 6 6 7 8 8 8
4 1 2 1 0 -0 2 2 2 2 3 3 3 3 1 2 3 3 1 3 5 5 5 5 5 4 6 6 6 5 5 5 4 4 5 6 6 6 6 5 5 6 8 9 8
2 0 2 -0 0 -0 2 1 2 2 2 3 3 2 2 1 1 2 3 2 0 4 4 3 3 4 4 5 5 5 5 5 6 6 5 6 6 7 6 7 6 6 7 7 8
4 4 5 1 -1 0 -0 -0 2 1 2 3 2 2 3 2 3 3 3 2 3 3 3 3 3 3 4 4 6 4 5 6 6 5 7 6 7 6 5 5 4 6 6 6 7

GFSSW_850_temp_114.txt.gz
Temp
8 8 7 6 5 7 5 5 5 5 5 5 4 4 4 6 5 5 5 6 6 6 6 5 5 5 6 7 7 8 9 9 10 12 13 14 15 14 15 15 16 16 17 17 16
9 8 7 6 5 7 5 5 5 5 5 5 4 4 4 5 6 6 6 6 6 5 5 5 5 5 6 7 7 8 9 10 12 13 13 13 13 13 14 15 15 15 15 15 14
9 8 6 5 5 4 5 5 5 5 5 4 4 4 5 5 5 5 6 5 5 5 5 5 5 5 6 7 8 9 9 11 11 11 11 11 12 12 12 12 15 15 15 14 13
8 8 6 7 6 6 4 4 4 5 4 4 4 5 5 5 8 5 5 5 5 5 5 5 5 6 7 7 7 7 9 9 9 9 9 10 11 11 12 13 13 14 15 14 13
8 8 6 5 5 5 5 4 4 5 4 4 4 4 4 4 6 5 5 5 5 5 5 5 5 6 7 8 7 7 9 8 8 8 8 8 9 11 11 11 11 13 12 13 13
8 8 7 7 6 7 5 3 4 4 4 4 4 3 4 6 5 5 5 5 5 5 5 5 5 5 6 7 7 8 7 7 7 8 7 8 9 9 10 11 11 11 11 11 12
8 8 7 6 4 4 5 4 4 4 4 3 3 3 4 5 5 5 5 5 5 5 5 4 4 4 5 7 6 6 6 7 8 7 8 8 8 9 10 11 10 10 11 12 12
6 7 7 6 5 6 3 3 4 4 3 3 3 3 4 5 5 5 5 5 5 4 4 4 4 4 4 5 6 6 6 6 10 10 9 8 8 11 10 11 10 10 11 12 13
5 6 7 6 6 6 4 4 3 3 3 3 3 3 5 5 5 5 5 5 4 4 4 4 4 5 5 5 4 4 4 7 9 11 10 8 9 11 11 11 11 11 11 10 11
6 5 7 6 6 7 5 3 3 3 3 3 3 3 5 5 5 5 5 4 4 4 4 4 4 5 5 4 4 5 4 6 7 9 9 9 9 11 10 10 10 11 10 9 10
6 5 6 6 5 6 5 3 3 2 3 4 4 4 4 4 5 4 4 4 4 4 5 4 4 5 6 7 5 4 4 5 7 9 8 7 10 11 9 9 10 10 9 8 10
6 6 6 6 4 4 4 4 4 4 4 4 4 4 4 4 5 4 4 5 5 5 4 4 4 7 6 6 5 5 4 5 7 9 9 9 9 11 11 10 10 9 9 8 9
6 6 5 4 4 4 4 4 4 4 5 4 4 4 4 4 4 4 4 4 5 5 5 4 6 6 5 5 5 5 4 5 6 7 9 9 8 10 8 8 8 8 9 8 9
5 5 5 3 3 4 4 4 4 3 4 5 5 4 3 3 5 4 3 4 5 4 5 5 5 4 5 5 4 4 4 5 5 5 7 10 8 8 8 7 8 9 9 8 9
4 5 5 4 5 4 4 3 3 4 6 5 4 3 3 4 4 4 3 3 5 5 4 5 5 5 4 5 3 5 3 4 5 6 7 7 9 7 7 8 9 10 10 10 8
4 4 4 3 4 3 3 3 3 5 6 4 4 4 5 4 4 4 4 3 4 4 5 4 5 4 4 5 3 4 5 5 5 6 9 9 10 8 8 10 11 11 9 9 8
4 4 4 3 4 3 3 3 5 6 4 4 4 5 3 4 5 5 5 5 4 4 5 5 5 4 3 4 6 4 6 9 8 9 9 8 10 8 10 10 10 10 9 7 8
4 4 3 3 3 3 2 4 6 5 3 5 5 5 3 4 4 5 5 5 4 3 4 5 7 6 4 4 4 4 6 8 8 9 9 9 8 7 10 10 10 9 8 7 7
3 3 2 2 2 2 3 5 7 4 5 4 3 3 4 4 5 5 3 5 5 5 4 5 6 5 3 3 3 6 7 5 8 9 10 7 9 11 11 10 10 9 7 6 7
3 3 2 2 2 2 4 5 5 4 5 5 5 6 4 4 4 4 4 6 5 5 5 6 5 7 6 4 6 6 5 8 8 10 9 8 8 7 9 8 9 8 6 7 7
1 2 2 2 1 2 4 4 4 4 5 6 6 5 6 5 5 3 4 6 5 6 5 5 6 8 8 6 5 6 7 8 8 8 11 10 8 8 8 8 9 8 7 6 7
2 2 1 1 2 1 4 4 4 5 4 5 6 6 6 6 6 3 4 5 5 4 6 6 6 7 6 7 6 7 7 7 9 9 8 10 7 10 9 9 8 8 6 7 8
1 1 1 1 3 2 3 4 4 5 5 5 5 6 6 6 5 6 2 6 5 6 7 7 7 7 8 7 8 8 8 7 7 8 7 10 8 10 11 10 9 8 7 6 7
1 2 1 1 1 4 4 4 4 3 5 4 5 5 6 6 5 6 4 6 5 5 6 7 7 6 7 7 7 6 8 8 6 10 9 9 9 10 9 9 8 8 7 7 7
1 2 2 2 1 3 4 5 4 5 4 4 5 5 4 5 5 6 4 6 7 6 7 8 6 7 8 8 7 8 8 9 6 8 9 9 9 9 9 9 8 8 7 7 6
2 1 1 2 3 3 3 4 5 4 5 5 5 5 4 5 5 5 6 5 5 7 7 7 7 7 7 8 9 9 8 10 9 9 10 10 9 9 8 9 8 7 7 6 6
2 2 4 1 3 3 5 4 5 5 3 4 5 5 5 5 4 4 4 4 5 6 7 7 7 7 7 7 8 9 7 8 9 8 10 10 9 10 9 8 6 6 6 5 5

GFSSW_850_temp_117.txt.gz
Temp
9 9 8 8 9 6 5 5 5 5 5 5 5 5 5 5 6 5 6 7 6 6 6 7 7 7 8 9 9 10 11 10 11 13 14 16 16 16 17 17 17 19 19 19 18
9 8 8 8 8 7 5 5 5 5 5 5 5 5 5 5 5 6 6 6 6 6 6 7 7 7 8 9 9 10 11 11 14 14 14 15 15 15 16 16 16 17 17 17 17
8 8 8 7 7 7 5 5 5 5 5 5 5 5 5 5 5 8 6 6 6 6 6 6 6 6 8 9 9 10 9 12 13 13 13 13 13 14 15 15 14 16 17 16 16
7 8 8 7 7 7 5 4 4 5 5 5 4 5 5 4 9 6 5 5 5 6 6 7 7 8 9 10 10 9 11 11 11 11 11 12 12 12 13 13 14 14 15 16 16
6 7 8 7 7 7 6 4 4 4 5 5 4 4 4 5 7 5 6 6 5 5 6 7 7 8 9 10 10 10 11 10 10 10 10 10 10 11 11 12 13 13 13 13 14
6 7 7 7 7 7 6 5 4 4 5 4 4 4 4 6 6 5 5 5 6 6 6 6 7 7 8 8 9 9 10 10 10 10 10 10 10 10 11 11 12 13 13 13 13
6 6 7 7 6 7 4 4 4 5 4 4 4 3 4 6 5 5 5 5 5 6 6 6 6 6 7 8 8 8 8 9 10 10 10 9 9 10 10 11 11 12 13 13 13
5 6 6 7 6 5 5 5 5 5 4 3 4 3 5 5 5 5 5 5 5 5 5 6 5 5 6 7 8 7 8 7 10 11 11 10 7 11 11 11 11 12 13 13 13
4 5 5 6 5 6 5 4 5 4 4 3 3 3 6 5 5 6 6 6 6 5 5 5 5 6 7 6 5 7 6 8 9 12 12 11 8 11 11 12 12 12 12 13 12
4 5 5 5 5 5 3 3 4 3 3 3 3 3 5 6 5 5 5 5 6 6 5 5 6 7 7 5 5 6 6 7 8 10 10 8 8 11 12 12 13 12 13 13 12
5 5 5 5 5 5 3 3 3 3 3 4 5 5 6 5 5 5 5 5 6 6 6 6 5 5 6 8 7 7 6 6 8 10 9 9 9 8 12 12 12 13 13 13 12
5 6 6 5 4 3 3 4 6 5 4 3 4 4 4 5 6 5 5 6 7 6 7 5 4 8 9 8 7 7 6 6 8 9 9 9 10 12 12 11 11 11 12 11 11
4 6 5 4 3 3 3 4 5 5 6 4 4 5 5 4 6 6 5 6 7 7 7 5 8 8 7 7 6 6 5 6 6 7 8 8 10 11 12 12 12 11 11 12 12
3 4 4 4 3 3 3 4 4 4 5 6 6 5 4 5 6 5 5 5 7 6 7 7 8 7 7 6 6 4 7 4 4 5 6 10 9 10 12 11 11 11 11 11 11
4 3 4 3 3 3 4 4 4 3 8 7 6 4 4 6 6 6 5 5 5 7 6 6 7 7 6 7 4 4 5 4 5 5 5 8 7 9 12 9 9 10 11 11 11
4 4 3 3 3 4 4 3 3 5 8 5 6 6 6 6 6 6 5 4 5 5 6 6 7 7 6 7 5 4 4 5 4 5 8 10 7 7 7 8 10 10 11 10 9
3 3 4 3 3 3 3 3 5 7 6 5 5 6 5 6 7 7 7 7 5 4 6 7 6 7 4 4 7 5 6 8 8 7 10 8 8 7 6 8 9 9 8 8 8
3 3 3 3 4 3 3 4 6 8 5 7 7 7 4 6 6 7 7 7 7 5 4 6 6 6 4 4 4 4 6 7 8 9 10 12 9 7 8 10 9 8 7 7 7
2 3 3 2 2 3 4 5 9 6 7 6 6 3 6 6 6 7 6 7 8 6 5 6 7 7 6 3 4 6 8 7 7 7 10 8 7 7 9 10 7 7 6 7 7
2 2 2 2 2 2 5 7 6 7 7 7 6 7 6 5 6 5 7 8 7 7 6 6 6 9 8 6 6 6 6 8 9 9 9 9 8 6 7 7 7 7 7 6 6
2 2 2 2 2 3 4 7 6 6 7 8 8 8 9 7 7 6 7 8 7 7 7 6 6 7 8 5 5 6 7 8 9 9 9 9 7 6 8 7 7 7 6 6 6
1 2 2 1 3 4 5 6 5 6 6 7 8 8 8 8 8 5 5 7 7 6 7 8 7 7 7 9 8 8 9 9 9 10 10 10 7 9 10 8 7 6 6 6 5
1 0 1 1 4 4 5 5 6 6 7 7 7 7 8 8 7 8 4 8 7 7 7 8 8 7 9 10 10 9 10 9 10 10 10 9 8 11 10 9 8 6 5 6 5
1 2 1 1 3 7 6 6 6 5 7 6 7 7 8 8 8 7 4 8 7 7 6 7 8 7 8 8 8 7 10 10 7 10 9 8 8 10 10 10 9 8 7 6 5
2 3 2 2 4 6 7 7 6 6 6 6 7 7 6 7 8 8 5 7 8 8 9 9 7 9 10 9 10 10 10 11 9 11 9 9 9 9 10 10 9 9 8 7 6
3 3 3 4 5 6 6 7 7 6 7 7 6 8 7 7 6 7 7 6 6 9 9 10 8 9 8 10 11 9 10 10 11 11 11 10 9 10 10 9 9 8 7 7 6
2 3 5 4 5 6 7 7 7 7 5 6 8 7 6 7 7 7 7 7 7 8 9 9 9 9 9 10 10 10 8 9 10 10 11 9 10 11 9 8 7 8 7 6 6